GFSSW_2pvu_pres_000.txt.gz
Presure
209 172 136 195 242 261 258 257 215 212 258 213 252 130 130 230 171 125 140 212 247 269 162 131 243 152 129 128 130 135 174 130 134 116 125 133 135 122 122 113 125 112 124 131 123
127 131 209 221 320 215 124 252 234 259 252 158 163 243 252 246 198 139 132 234 248 259 135 134 192 154 170 161 123 131 112 101 119 131 130 117 120 118 118 112 150 123 116 118 123
183 334 291 301 287 298 319 329 242 233 125 132 146 241 244 228 224 138 136 112 240 247 145 133 134 258 135 117 147 134 185 136 148 118 124 131 134 125 126 167 113 165 122 145 149
314 286 288 283 142 303 307 307 243 130 121 234 240 240 110 130 117 119 126 121 119 133 133 224 147 109 110 137 142 142 134 133 130 126 127 133 167 128 166 126 131 167 176 162 124
314 277 245 277 198 127 206 233 148 128 123 119 243 244 118 119 123 123 124 127 123 137 174 177 241 103 238 166 145 137 100 147 162 189 183 181 180 182 179 176 129 167 122 156 168
298 164 175 255 286 250 256 234 231 192 155 130 240 210 125 118 121 126 129 124 129 204 195 204 234 183 244 248 166 203 200 133 196 190 190 181 143 141 130 134 131 137 138 164 123
305 239 231 113 323 185 119 118 135 228 231 117 238 242 242 159 237 232 136 134 237 237 241 236 227 236 243 134 246 246 238 233 195 199 210 202 180 138 126 125 135 178 131 126 130
241 225 271 240 202 116 205 126 237 233 220 141 112 146 233 215 235 234 235 235 235 236 236 235 239 242 246 132 249 207 192 252 266 261 258 240 122 124 141 216 127 125 128 136 180
312 309 234 224 219 224 131 126 220 184 201 249 121 205 240 230 231 234 232 237 236 231 235 243 253 251 252 252 254 250 258 273 246 125 174 123 138 135 130 131 131 129 181 187 130
284 280 216 231 127 135 143 130 215 237 247 117 118 236 238 240 231 227 229 237 243 245 245 241 241 241 241 237 240 240 235 150 127 200 137 126 158 133 132 128 202 218 130 130 237
255 231 224 125 253 125 138 227 158 219 224 118 115 228 231 233 224 227 227 234 235 234 233 232 235 234 230 220 234 232 228 190 125 127 155 185 234 238 240 235 133 137 221 234 223
238 214 237 241 145 163 220 215 202 218 209 120 225 235 157 234 237 232 231 142 219 208 239 230 240 239 255 222 125 125 159 262 258 239 236 230 228 130 132 137 223 225 220 225 225
172 225 215 185 168 151 226 226 211 209 220 225 220 224 133 132 148 227 173 216 216 229 228 228 243 230 231 189 141 141 183 204 221 216 172 136 132 136 182 229 218 229 223 218 213
140 200 126 132 217 215 209 209 217 225 206 220 222 132 203 213 170 132 150 218 211 235 225 223 224 177 143 145 148 143 142 140 139 230 146 137 212 215 218 223 220 217 209 206 207
199 211 219 229 211 220 206 219 215 177 210 218 209 214 218 217 216 211 212 213 216 233 142 134 141 147 141 225 223 154 148 169 134 144 138 229 222 211 219 217 207 208 199 200 201
210 229 214 201 204 206 213 108 128 114 145 155 212 207 207 204 210 207 205 203 205 190 198 181 238 223 230 235 233 167 227 226 216 215 225 219 218 204 208 205 207 190 195 196 195
223 205 199 205 206 195 204 170 203 156 118 118 208 207 204 202 202 202 210 207 213 223 246 212 237 235 239 246 254 247 231 227 230 234 230 215 220 230 198 202 195 196 195 191 191
202 204 207 195 194 209 213 199 209 127 193 197 204 199 203 202 203 207 209 208 209 229 229 224 247 244 249 258 280 241 244 236 235 230 240 230 229 180 129 194 195 200 192 191 189
206 202 191 192 205 216 211 205 201 205 205 199 200 204 206 202 208 208 209 200 220 222 220 214 209 208 205 200 205 208 206 231 228 230 230 239 224 195 188 193 191 195 191 186 195
202 190 196 203 100 173 202 199 203 197 198 202 199 198 195 198 210 207 201 206 204 210 204 206 207 207 205 206 202 199 202 200 199 198 188 118 199 191 186 188 193 192 190 191 187
194 193 188 199 213 211 201 204 182 196 201 199 195 196 195 193 198 189 202 197 208 191 190 201 199 197 197 192 191 191 189 189 189 195 194 199 207 197 196 187 190 182 182 180 188
183 198 198 202 214 208 203 201 194 197 197 197 198 196 195 200 195 188 203 206 200 196 203 199 198 195 194 196 199 197 199 198 201 200 196 193 182 182 190 190 189 189 196 195 189
189 188 193 197 220 205 208 194 194 197 193 195 195 188 197 192 191 198 200 206 194 198 198 184 193 189 189 194 195 189 192 184 185 181 181 179 185 188 189 195 195 196 181 182 185
185 207 207 208 224 204 201 197 196 169 193 194 196 195 199 194 195 188 189 194 194 198 190 187 188 191 191 191 192 190 185 186 185 186 187 192 193 195 209 201 184 183 187 182 184
197 182 201 212 220 209 200 197 189 195 195 194 192 188 196 196 195 200 190 187 188 191 189 190 186 188 188 188 182 183 178 197 203 200 201 202 202 194 182 184 188 180 175 167 180
185 208 207 194 216 206 198 194 196 196 194 196 196 186 189 192 189 195 196 191 188 191 193 188 188 190 195 191 193 193 196 203 206 207 190 193 184 194 181 181 179 160 171 176 181
205 217 201 199 219 201 199 197 198 195 196 196 196 196 194 191 189 190 193 194 191 193 198 198 196 191 194 192 188 191 188 203 204 205 200 189 192 189 186 186 187 185 185 187 189

GFSSW_2pvu_pres_003.txt.gz
Presure
119 146 180 256 157 156 267 157 129 111 138 140 175 219 251 248 247 140 155 160 150 128 121 190 124 108 117 117 125 127 138 155 172 140 161 131 140 115 123 162 118 118 125 122 125
251 180 237 251 234 140 149 139 151 119 139 263 263 268 264 265 254 245 178 194 223 247 143 179 140 126 108 234 221 117 138 184 141 129 127 106 118 119 155 128 165 126 153 125 125
245 237 251 128 136 197 325 316 315 260 253 130 189 189 217 132 242 133 229 199 243 223 137 135 140 219 233 212 144 135 145 142 156 189 130 134 136 134 134 126 191 127 116 127 126
132 131 134 261 293 299 318 132 307 257 249 123 185 161 119 132 234 244 241 237 238 237 234 235 243 245 250 150 155 126 230 144 141 177 176 141 125 118 119 129 126 131 182 178 178
145 151 320 279 287 293 315 313 226 246 237 250 123 123 134 236 233 242 238 234 238 191 118 116 119 132 132 132 211 96 111 132 102 125 116 126 130 131 133 156 184 183 186 172 164
121 176 306 280 289 275 235 241 146 206 240 237 128 119 124 237 226 221 229 210 120 119 125 124 117 130 143 203 198 231 104 231 245 221 123 136 120 120 185 115 183 189 188 187 125
139 305 307 277 253 247 287 240 235 233 232 151 136 118 134 241 236 239 115 117 119 120 119 126 127 127 229 184 228 233 244 246 156 239 230 221 214 203 196 191 189 189 192 162 180
147 308 256 249 111 171 232 209 99 122 229 225 179 174 241 131 231 230 122 120 123 152 123 227 129 135 226 224 228 230 229 226 226 232 243 239 155 229 222 199 127 138 140 131 143
308 269 231 237 272 253 104 235 183 147 134 238 236 239 232 116 124 184 238 238 119 122 235 234 160 141 188 232 223 218 229 201 186 230 241 244 249 262 126 127 137 134 135 230 180
336 270 240 243 233 158 227 202 235 228 131 237 237 244 117 124 131 223 235 207 163 235 235 239 237 236 236 234 234 236 238 239 241 276 243 158 144 137 130 131 134 203 230 248 159
308 280 236 214 102 218 225 227 133 126 215 229 213 229 223 122 235 229 230 228 232 233 232 233 237 240 241 234 230 229 252 250 242 148 142 184 127 132 222 221 222 219 130 127 133
271 242 242 230 222 204 231 132 206 131 216 231 223 222 121 118 228 226 229 228 228 231 231 231 229 229 235 234 237 239 236 248 231 132 132 189 228 201 220 236 150 130 132 156 229
226 202 221 236 246 153 143 126 139 127 213 220 189 222 131 140 227 210 229 223 224 143 227 225 222 228 229 228 229 190 125 188 189 146 138 168 259 180 131 174 130 128 244 241 231
234 232 183 227 228 233 131 126 126 212 213 219 225 225 121 148 187 133 213 216 214 212 219 240 235 250 227 226 229 235 167 134 145 146 142 168 127 198 151 137 217 212 212 223 220
229 218 129 214 125 127 127 119 214 218 221 220 218 214 215 211 201 123 130 130 132 225 221 223 224 220 224 134 137 157 146 224 146 216 194 218 233 216 226 219 207 221 242 212 200
217 213 165 229 216 211 210 209 221 218 218 212 213 209 210 209 210 212 155 165 218 220 216 218 227 229 229 226 149 135 232 231 224 221 226 156 216 240 235 223 206 213 214 209 198
214 209 216 216 214 204 212 209 212 208 212 205 153 160 206 209 209 211 206 206 219 228 225 246 249 243 239 237 240 246 253 249 231 227 228 241 252 257 257 230 225 205 199 195 195
211 220 217 204 205 206 208 211 213 210 107 205 120 117 117 206 206 207 207 205 202 239 233 223 232 240 245 249 251 237 235 234 236 235 235 237 227 241 233 238 205 116 191 189 182
218 214 200 206 106 194 206 211 196 206 201 205 207 174 205 145 204 200 207 211 202 216 215 219 217 207 212 211 205 207 209 205 206 203 204 201 197 196 206 204 198 197 193 191 189
211 198 201 211 195 202 206 197 205 204 203 205 197 198 204 201 207 215 209 207 217 216 208 205 208 210 204 206 202 205 197 197 199 200 201 203 198 202 196 195 194 198 200 197 197
199 198 208 195 195 207 158 206 205 203 202 198 198 203 204 203 208 212 199 203 203 203 208 201 199 201 197 197 193 194 198 195 189 192 205 207 211 207 201 199 189 185 185 190 189
198 201 199 194 206 214 204 104 200 201 195 189 108 143 102 198 199 196 197 193 194 205 202 190 181 200 200 197 196 200 202 200 199 192 195 194 194 192 187 187 191 196 194 203 212
200 200 191 198 192 211 205 199 198 202 190 199 196 194 197 197 199 192 192 194 199 208 195 191 196 201 195 192 191 197 190 188 206 209 193 189 196 187 190 201 207 206 204 190 182
204 190 193 191 196 210 208 203 199 198 191 199 196 193 196 196 190 188 195 192 199 199 195 198 200 195 190 187 194 198 134 193 186 184 193 194 205 205 202 205 199 192 188 195 189
193 196 204 204 210 208 201 207 204 192 194 197 191 192 195 193 192 190 192 195 188 190 189 189 191 193 196 194 191 192 193 194 193 194 191 192 206 205 206 207 198 192 193 179 169
193 196 190 191 198 196 208 199 209 197 194 194 186 195 187 196 191 188 190 198 196 197 190 191 193 194 194 197 194 197 194 195 197 187 197 195 190 206 190 202 159 168 166 183 187
180 192 198 206 198 209 199 209 208 198 196 187 191 192 194 198 191 187 193 192 182 197 196 193 192 194 197 199 199 197 195 190 189 194 193 196 183 169 200 194 171 175 82 188 185

GFSSW_2pvu_pres_006.txt.gz
Presure
209 110 121 142 119 145 135 239 230 212 142 279 135 233 252 136 178 150 132 247 208 125 143 133 157 240 127 129 158 122 184 125 124 122 123 197 134 170 132 150 182 171 116 117 164
248 255 206 145 125 133 126 266 192 283 234 278 129 130 123 141 198 240 235 234 181 246 248 166 128 117 261 177 125 176 110 111 127 139 173 124 154 132 126 125 119 116 133 127 164
246 248 255 146 248 145 228 296 171 220 147 149 249 180 144 236 232 140 149 228 249 249 245 173 163 150 250 251 215 212 115 134 139 222 98 134 131 195 173 122 125 130 132 118 126
245 249 243 253 263 209 144 298 263 142 133 170 265 217 242 261 251 259 242 218 241 243 124 159 243 243 241 187 134 216 132 133 234 103 219 133 192 148 150 187 191 123 127 133 128
247 243 244 264 322 283 249 140 159 338 231 252 244 252 250 253 194 230 134 133 238 236 235 249 236 239 206 249 133 173 227 244 196 178 232 103 119 136 117 147 125 122 126 125 158
244 243 251 246 199 134 128 122 305 294 270 126 244 249 255 249 245 146 162 240 238 229 226 233 234 234 232 207 159 160 133 162 161 169 148 120 153 205 150 172 135 119 165 142 185
237 262 131 132 135 129 184 294 284 257 237 245 243 248 244 143 176 129 221 231 237 229 229 229 224 223 129 126 125 124 124 226 212 220 139 226 234 235 140 209 181 201 221 200 191
114 318 339 274 219 283 246 285 232 238 167 238 141 240 225 127 135 118 203 226 220 216 222 118 119 119 121 118 123 120 123 182 237 235 243 243 237 235 237 237 232 227 221 216 136
228 256 154 187 117 226 246 253 230 229 168 237 238 236 191 182 126 130 232 234 226 217 123 122 120 121 122 122 125 123 172 226 228 221 230 235 234 234 185 223 203 233 189 130 129
324 135 148 134 263 240 240 235 228 212 127 133 130 201 243 244 205 122 121 125 193 235 230 201 126 125 222 222 223 222 139 221 222 223 227 226 226 227 235 233 225 133 128 189 256
301 285 230 225 258 239 195 229 227 231 114 141 114 231 230 233 230 119 123 128 132 228 232 229 229 228 227 227 226 227 225 226 227 231 237 237 238 238 232 250 153 139 238 252 223
130 306 219 243 225 224 225 227 218 219 144 118 126 187 228 221 230 190 119 119 227 228 231 230 225 226 227 224 225 227 232 242 245 243 252 241 237 210 153 229 205 158 199 133 213
294 267 251 219 217 212 214 173 234 220 133 130 133 221 193 234 209 191 122 232 230 230 229 231 230 231 232 229 237 236 233 231 229 227 217 127 212 177 148 229 148 132 143 163 230
272 258 239 236 224 245 227 151 208 143 187 220 166 222 232 231 229 147 122 230 228 230 231 229 193 229 226 226 227 224 223 227 236 248 247 160 142 143 207 177 134 132 170 210 220
214 216 217 246 238 224 225 219 137 220 129 132 219 227 222 145 214 217 116 224 131 186 218 217 217 220 240 239 219 217 226 220 134 140 146 180 200 215 138 215 215 219 224 223 221
219 226 207 223 221 219 209 223 131 221 215 225 216 220 219 224 211 212 215 215 188 155 125 123 157 218 224 225 224 232 166 187 173 220 232 226 224 224 217 209 211 211 214 227 222
227 233 218 218 203 158 219 209 193 219 218 212 213 208 216 207 207 212 209 200 201 214 182 181 231 247 245 245 243 244 241 249 253 252 253 243 240 238 238 241 246 251 223 222 206
218 214 210 217 218 160 129 213 221 216 207 213 207 207 123 210 214 212 115 213 210 243 254 252 250 231 233 240 246 256 234 227 227 225 220 218 210 209 219 221 221 220 226 221 211
215 223 225 207 211 206 210 213 206 206 213 208 213 201 208 129 117 126 124 208 218 224 207 226 235 232 227 220 215 209 208 205 211 211 206 203 200 202 202 204 203 199 197 196 196
215 206 210 210 207 161 208 209 210 211 206 202 204 198 209 205 206 204 204 169 217 210 209 209 211 202 206 207 200 197 199 202 202 196 198 195 194 204 208 207 207 202 200 198 193
193 214 211 201 206 202 198 213 210 203 200 204 206 206 205 207 199 206 207 206 214 212 206 206 204 202 204 194 195 199 196 193 191 197 208 208 202 200 196 188 189 199 195 205 207
206 215 201 203 203 197 199 210 199 206 201 201 200 198 197 199 207 214 205 200 201 205 195 205 200 196 187 196 201 203 203 194 201 200 196 194 203 197 190 198 205 214 210 212 210
217 201 195 201 197 196 207 208 205 102 119 203 198 199 202 198 155 209 198 195 198 195 189 201 203 191 196 197 199 196 195 189 189 198 194 197 198 196 198 198 197 197 207 204 193
207 195 193 202 191 202 214 212 205 203 200 198 196 198 196 194 194 202 192 192 190 194 196 203 204 195 198 196 195 195 195 197 192 192 196 196 196 199 194 196 200 195 186 201 204
199 192 197 201 196 201 211 212 205 202 202 191 190 198 197 194 195 198 188 188 191 190 198 191 188 193 194 189 192 194 194 196 195 194 194 196 193 185 190 196 194 188 181 204 210
205 200 199 198 192 196 204 213 207 205 201 195 188 196 195 193 192 192 195 190 189 193 199 201 197 197 194 194 194 195 195 194 190 189 183 194 187 195 193 187 189 195 189 196 202
183 193 201 202 194 194 201 208 207 207 204 194 189 196 195 187 190 185 189 192 189 185 187 197 187 187 193 196 194 181 179 185 183 187 186 186 194 193 198 223 231 211 139 190 207

GFSSW_2pvu_pres_009.txt.gz
Presure
210 260 210 116 235 268 138 166 123 198 111 231 133 190 234 224 159 139 127 145 140 132 103 148 133 133 215 227 129 201 142 190 206 201 129 127 123 177 161 149 117 131 113 128 136
199 193 166 254 187 212 152 114 154 206 132 128 224 144 140 197 142 171 208 187 132 139 267 198 234 134 206 131 267 130 174 129 162 222 161 171 119 117 124 131 114 140 128 170 109
256 272 121 248 255 258 133 240 120 152 237 140 136 127 150 135 268 134 127 216 141 143 231 245 257 253 146 177 252 235 240 141 107 226 112 130 111 124 205 159 121 196 177 198 201
264 250 247 247 255 250 238 335 143 126 309 122 131 343 165 143 199 186 139 127 148 204 151 239 252 252 244 252 263 241 233 135 220 213 118 188 142 132 204 155 188 202 157 105 132
263 244 244 253 249 251 268 323 265 313 327 234 125 341 247 202 165 254 250 149 111 235 226 232 260 253 239 245 133 123 249 238 186 171 212 131 103 224 196 130 168 114 110 130 160
257 242 247 242 247 305 183 278 293 272 308 273 346 190 159 151 230 247 251 249 252 250 199 238 236 247 195 130 233 237 239 161 160 150 195 209 217 168 235 232 211 125 127 128 192
254 241 241 244 296 307 318 276 141 213 361 137 138 233 244 251 248 248 253 248 246 249 136 202 125 231 240 232 231 238 149 238 239 141 150 220 156 140 133 133 136 221 224 226 222
253 239 247 295 334 321 273 220 246 134 137 256 242 242 250 130 250 248 241 236 234 136 143 232 227 226 235 235 237 220 231 119 123 126 122 118 121 130 208 224 206 207 228 223 221
238 236 281 341 328 254 249 184 141 165 239 241 241 244 243 239 238 239 232 182 207 129 190 228 229 230 230 225 118 118 118 118 120 117 123 125 154 217 212 208 208 216 215 219 210
237 277 297 314 132 243 225 226 124 228 233 235 172 237 240 162 232 228 134 124 122 130 224 220 221 223 223 222 222 150 124 122 119 134 146 157 143 236 236 232 229 230 226 229 240
253 283 339 124 236 272 220 228 159 228 234 230 231 231 231 227 232 231 219 135 120 124 131 134 179 222 222 226 130 125 125 224 224 219 218 218 222 220 220 221 221 221 221 245 128
281 147 282 134 215 148 221 236 232 231 229 228 174 114 146 153 224 225 225 221 131 149 122 125 220 222 224 221 222 223 225 226 227 222 221 222 226 225 239 241 237 236 182 233 156
303 222 130 225 240 229 220 223 224 194 224 220 110 209 127 122 223 225 225 229 227 146 120 220 225 221 222 222 223 222 222 223 223 227 235 240 235 233 229 153 218 179 138 143 140
193 313 215 234 205 220 211 222 239 250 249 236 250 168 130 148 223 132 224 224 175 222 123 226 229 226 226 231 228 228 230 231 228 226 225 225 221 219 224 191 216 141 139 146 133
163 211 249 217 211 211 206 234 227 229 217 235 132 125 231 231 230 133 221 234 228 152 109 230 131 225 225 138 220 222 224 232 244 239 258 232 220 134 164 204 201 218 223 228 230
263 266 241 233 225 214 230 225 209 233 211 226 131 133 135 226 233 224 231 229 231 134 231 228 125 119 125 229 231 221 219 218 220 222 223 216 222 217 218 216 218 220 224 237 248
190 224 228 227 239 223 215 211 220 222 190 221 125 152 134 223 224 220 223 222 218 218 215 214 211 216 213 212 225 230 237 251 253 259 266 142 246 233 231 231 215 225 227 224 219
221 215 227 228 223 220 213 222 219 220 224 210 125 204 217 212 214 207 209 214 206 210 207 205 220 245 246 246 240 267 233 231 228 224 222 222 219 214 209 206 207 199 196 198 190
133 217 226 218 218 213 222 190 223 224 210 147 207 208 210 206 208 201 210 222 118 226 256 152 247 233 243 237 226 221 219 215 209 205 204 204 203 196 197 196 191 200 205 202 202
225 233 212 213 212 216 208 205 215 214 204 209 204 206 204 205 208 213 158 119 118 239 216 229 223 227 216 212 212 207 199 197 202 200 198 198 199 204 207 206 204 200 193 190 193
228 208 208 216 218 209 205 207 206 204 211 197 206 200 203 205 195 209 204 206 209 208 217 210 210 209 203 205 203 198 191 199 205 202 188 192 200 199 196 196 196 195 192 199 190
212 209 223 207 211 206 205 205 206 201 201 204 200 199 209 207 208 203 207 208 213 215 211 204 202 202 202 195 188 198 193 203 201 206 199 192 198 193 195 202 200 198 202 192 201
210 226 202 210 203 202 202 200 209 204 192 199 198 208 201 198 196 205 214 209 201 197 199 196 193 201 203 197 191 199 203 200 196 195 196 195 197 198 202 201 200 195 190 195 190
216 200 209 210 205 201 198 197 209 197 194 197 201 150 198 194 202 196 201 205 192 192 194 200 191 202 202 198 196 193 190 190 191 195 199 201 199 191 177 184 185 186 182 215 244
204 201 210 193 199 200 195 204 201 197 200 199 200 199 193 198 198 195 196 205 189 186 189 188 190 197 195 191 193 193 193 194 195 195 186 183 185 186 193 195 202 217 233 230 229
204 207 204 198 198 205 192 197 207 200 195 200 197 197 196 199 198 194 192 188 189 190 189 190 193 184 195 197 190 186 184 188 187 186 186 185 183 196 204 212 215 215 223 229 219
201 204 200 192 193 202 189 207 211 200 197 198 198 199 193 188 196 191 190 190 187 189 193 190 189 189 190 191 194 194 195 192 188 188 195 201 199 196 196 207 209 219 224 222 235

GFSSW_2pvu_pres_015.txt.gz
Presure
179 190 239 209 232 233 222 188 151 241 129 115 124 235 132 146 194 126 128 123 135 230 226 176 173 143 128 197 127 135 132 136 140 133 141 132 131 140 134 127 132 150 127 143 162
228 220 188 228 232 238 207 228 198 110 112 117 219 118 202 133 157 123 192 121 132 181 192 226 122 128 129 131 152 123 139 142 138 134 139 134 131 118 125 129 134 127 206 161 213
203 214 228 201 209 222 187 250 107 255 256 125 114 130 256 248 125 188 117 263 117 152 116 265 133 136 128 161 126 140 127 131 235 152 132 135 144 133 163 232 212 222 220 243 156
206 227 175 160 214 246 223 273 261 218 252 238 126 180 115 273 110 114 128 137 114 125 136 123 128 151 139 116 139 154 132 245 143 140 139 132 136 241 243 231 224 213 167 163 206
198 235 213 229 226 237 226 263 251 252 191 300 175 158 137 113 210 264 117 133 165 123 119 139 171 127 143 198 191 171 233 136 170 143 140 141 233 240 250 230 133 186 191 164 219
225 195 208 204 207 249 268 249 249 246 320 315 208 193 122 216 319 333 136 125 135 127 129 204 133 212 142 191 234 211 228 175 129 147 235 237 243 232 235 233 244 221 238 231 218
189 242 208 207 177 253 245 247 250 336 324 312 273 289 341 307 338 341 268 145 191 246 140 151 133 238 235 241 144 145 243 206 134 239 245 238 235 235 229 225 158 229 225 219 122
206 189 190 225 278 270 253 251 341 331 312 293 305 360 357 322 337 327 295 253 257 231 251 246 169 232 141 159 238 242 239 235 238 234 162 241 242 225 224 221 219 218 198 113 125
248 192 190 206 226 258 248 341 330 307 296 294 273 323 310 231 278 241 250 259 262 258 200 186 151 223 229 228 229 229 240 236 233 236 231 229 230 231 233 238 169 115 117 194 205
233 219 194 221 252 260 267 333 295 265 258 278 250 242 237 239 244 210 250 251 193 220 242 235 234 229 240 234 229 232 229 234 236 227 230 227 228 229 229 117 119 228 225 230 213
204 202 207 207 237 262 331 336 301 232 244 238 248 235 135 131 243 175 238 245 238 236 247 245 243 246 238 233 226 127 223 226 229 230 229 228 226 225 223 224 226 228 227 224 223
218 204 184 199 257 270 342 248 254 261 227 198 232 183 237 133 215 205 240 242 246 240 234 231 231 230 200 113 153 148 157 206 133 217 219 219 218 219 221 220 219 221 219 215 214
185 198 198 278 257 335 155 263 176 128 131 225 232 216 182 235 232 234 232 228 225 225 117 223 228 142 131 122 199 116 125 216 217 217 217 220 217 215 216 219 219 216 216 219 231
204 249 178 215 259 144 181 242 128 210 222 220 222 224 226 231 227 226 224 225 217 217 219 217 178 132 134 211 213 127 215 219 220 217 212 211 211 214 217 219 226 230 228 217 214
241 198 279 220 251 121 242 127 227 169 218 224 224 227 233 230 224 222 217 219 221 156 218 216 217 219 222 219 221 209 204 217 215 209 192 124 227 231 233 227 243 236 225 218 215
218 204 220 254 311 154 150 132 216 220 220 217 212 220 232 223 230 219 220 224 130 124 217 217 218 221 214 221 220 109 217 221 125 128 122 165 219 231 221 215 218 223 234 228 220
179 217 263 248 278 216 133 127 216 215 243 229 224 231 216 207 214 216 218 160 194 207 221 226 227 226 220 225 226 122 225 219 217 224 222 233 242 250 257 238 229 218 209 202 196
206 188 218 242 262 172 211 204 207 226 225 223 238 219 213 233 228 227 222 228 130 230 232 232 231 225 228 221 217 234 208 213 265 245 234 228 219 213 206 204 201 199 196 191 192
232 204 236 264 250 239 208 205 206 229 217 203 202 231 230 230 229 228 229 135 124 220 219 212 216 214 215 211 221 227 242 142 226 219 213 206 202 202 197 198 191 190 199 203 192
220 191 212 263 230 236 214 208 220 197 212 225 227 228 225 227 227 218 217 128 154 189 204 212 214 209 224 242 113 127 135 220 213 204 195 190 193 196 198 196 194 199 191 199 195
231 209 170 254 244 228 225 208 213 219 222 214 223 217 219 215 216 215 211 208 210 209 211 233 236 217 243 147 166 211 202 203 199 194 191 201 204 204 202 198 195 197 188 193 185
238 179 236 246 196 165 207 210 208 207 227 220 216 217 212 206 209 207 208 195 208 208 199 213 217 230 124 210 206 202 198 196 192 185 201 195 191 195 196 190 197 191 188 189 190
255 203 234 248 222 233 209 209 207 217 219 220 215 208 210 205 207 204 206 205 194 201 212 216 214 210 197 200 203 201 204 206 201 194 194 197 198 195 187 191 188 190 191 201 209
261 234 236 240 217 217 214 211 215 215 213 213 207 205 206 202 204 207 206 200 202 209 209 202 198 200 201 195 193 202 200 198 200 198 197 192 186 188 195 193 190 196 200 202 201
256 235 242 225 232 216 212 208 211 207 212 212 206 208 200 198 206 198 201 215 155 204 191 191 191 187 190 187 187 193 196 191 188 191 195 194 193 189 190 201 196 189 197 198 196
240 249 233 227 226 213 209 210 214 205 212 206 204 201 197 204 200 196 199 196 196 198 200 194 194 188 189 192 194 194 195 196 197 196 190 189 196 198 198 193 204 199 194 196 191
234 241 225 209 225 213 209 209 205 208 202 207 199 197 195 197 198 194 198 193 194 197 197 198 191 195 195 194 192 192 195 189 189 188 190 197 199 192 189 198 200 196 190 196 198

GFSSW_2pvu_pres_021.txt.gz
Presure
139 202 199 184 191 149 217 235 231 203 195 105 220 184 237 262 219 166 170 259 136 185 140 150 138 130 144 147 129 129 130 232 140 146 183 142 145 122 123 140 136 141 126 139 127
192 191 178 201 198 208 195 231 218 198 253 215 201 274 273 258 199 241 255 259 261 154 128 173 142 139 117 132 137 130 130 127 120 120 153 147 137 128 136 141 135 132 140 150 130
187 187 102 199 214 192 223 194 238 186 218 233 263 306 259 261 311 324 324 140 267 178 249 139 146 113 146 137 127 155 143 127 131 141 128 114 139 115 170 122 149 126 148 127 124
193 172 201 196 216 224 203 227 185 226 235 228 298 266 347 344 292 327 108 105 257 152 266 123 147 127 130 131 130 127 120 147 132 251 114 119 127 132 129 130 161 132 137 120 130
190 184 182 204 176 181 207 186 194 182 223 231 265 293 338 319 308 257 103 122 122 147 111 121 110 124 171 114 158 119 246 136 133 132 130 169 132 132 153 135 127 137 170 155 131
156 194 166 195 151 162 199 238 189 229 240 232 274 345 295 300 295 330 214 257 207 245 137 138 125 119 118 113 142 142 139 138 138 113 168 132 153 131 134 129 163 232 181 127 138
173 185 187 138 209 225 209 205 233 214 227 257 309 308 283 295 261 334 134 113 190 160 146 107 122 129 125 128 108 119 238 122 139 230 129 238 146 224 131 227 241 140 237 141 232
190 185 159 200 212 190 225 173 196 217 227 258 357 288 292 337 348 332 274 332 254 250 163 170 184 118 245 132 133 201 131 123 162 137 209 173 238 137 140 159 139 158 234 204 227
135 169 199 200 188 195 223 211 232 249 230 275 313 294 291 329 333 343 328 327 217 255 253 188 214 201 238 181 163 140 182 139 232 134 196 163 139 147 149 233 235 238 234 232 230
192 185 181 165 216 207 186 173 202 247 250 282 257 247 274 248 346 323 322 246 246 248 240 232 243 239 237 228 226 228 226 230 234 223 138 205 221 222 223 230 230 229 239 238 232
195 154 214 210 194 194 182 177 229 243 262 272 287 212 240 238 296 253 273 254 238 235 235 239 243 235 228 228 223 229 233 141 228 232 230 230 222 223 225 224 220 225 221 222 219
199 206 198 202 198 201 215 224 239 229 246 271 269 218 226 232 230 234 252 254 243 235 234 243 236 230 224 226 224 218 215 226 218 223 223 226 226 224 117 185 197 218 216 214 212
157 204 205 199 181 202 217 224 185 241 249 330 249 218 219 229 235 237 249 247 240 244 246 240 180 192 219 221 217 218 219 216 217 215 207 144 221 117 190 225 211 216 213 212 214
177 149 197 176 198 193 218 235 157 219 231 244 206 213 221 230 232 243 235 235 198 126 132 215 230 225 221 215 213 216 216 214 217 219 118 123 117 120 117 111 206 211 213 213 119
141 202 190 152 208 196 150 239 229 240 261 225 239 214 133 126 223 240 126 236 228 223 239 235 226 222 218 224 230 228 220 215 218 214 217 211 210 109 222 207 208 212 216 217 218
196 200 173 205 188 187 189 185 220 238 251 229 232 219 216 132 140 224 232 243 241 237 232 234 224 223 225 224 191 134 216 210 206 206 207 206 211 214 210 184 220 221 216 221 217
154 184 151 203 189 163 203 188 231 237 251 118 177 209 138 219 225 215 222 221 222 214 214 213 214 213 213 124 174 203 202 203 211 212 215 216 214 219 219 216 214 211 208 211 225
157 177 199 213 209 220 226 221 203 224 254 272 142 207 211 208 228 226 217 219 208 218 207 216 213 210 134 142 208 205 207 213 212 214 212 221 217 214 220 245 238 229 219 213 209
198 134 190 166 210 210 225 177 202 238 285 134 208 210 234 246 227 210 229 223 216 212 210 208 210 209 215 127 125 210 213 222 220 217 213 208 231 231 220 211 207 203 189 198 195
194 219 208 207 173 227 173 186 196 206 267 128 206 226 213 196 218 208 223 221 212 216 210 212 214 215 210 133 129 126 218 213 214 209 224 227 216 211 204 203 196 208 199 213 190
222 209 196 200 224 231 171 215 225 283 255 190 209 213 237 201 233 227 230 220 227 220 222 224 222 224 126 190 216 212 209 205 230 224 213 208 202 202 194 196 195 203 195 192 197
223 210 205 215 219 229 171 188 190 259 244 227 213 217 223 224 226 230 224 227 223 220 217 217 211 215 203 205 201 204 239 224 214 208 203 201 200 202 196 194 205 193 198 193 195
233 229 227 227 223 226 178 226 228 262 238 219 212 215 217 221 222 221 218 214 215 209 208 199 212 210 209 227 251 225 216 206 201 197 200 201 195 196 203 198 190 194 190 196 194
240 235 187 226 216 199 207 147 188 253 234 215 219 211 215 213 219 214 207 208 210 219 203 220 223 232 249 229 215 208 200 198 197 195 199 206 204 198 193 187 187 189 194 194 195
241 242 232 239 174 197 218 252 187 170 228 217 217 210 208 207 215 207 202 211 206 209 208 215 232 239 218 208 205 197 200 201 196 198 201 193 195 191 189 188 193 197 195 191 198
252 255 190 168 180 245 214 192 248 233 220 222 216 207 208 210 213 203 197 205 208 204 206 200 222 208 207 204 193 197 197 197 199 191 187 187 191 190 192 189 188 191 192 192 194
257 253 251 252 205 248 250 237 240 230 220 211 215 219 210 214 209 202 205 208 210 207 205 200 211 201 196 206 198 195 195 192 190 195 193 190 191 190 190 193 195 193 191 196 201

GFSSW_2pvu_pres_024.txt.gz
Presure
191 164 187 164 144 155 203 221 200 118 210 237 206 162 209 216 260 321 286 272 182 180 261 235 286 265 253 231 152 141 153 128 129 193 136 123 154 154 134 146 122 152 123 136 133
193 183 187 162 172 193 196 111 183 184 155 213 238 187 199 245 254 191 340 332 135 145 127 264 131 190 158 243 158 130 151 146 136 127 128 131 120 138 127 117 126 212 145 135 122
191 200 174 191 187 190 181 198 221 215 211 215 205 212 263 303 354 312 310 308 333 307 261 247 141 267 149 254 132 144 151 137 137 144 136 136 138 156 130 134 139 126 140 128 124
187 195 189 195 166 177 171 204 199 192 218 220 228 238 262 361 334 320 311 316 310 298 143 267 146 140 143 134 149 115 143 136 129 135 130 123 128 142 141 105 119 131 148 127 112
187 204 170 172 150 190 201 194 204 202 212 221 218 206 247 346 293 338 328 282 288 252 267 258 227 266 180 122 115 149 143 120 111 140 120 120 137 144 109 138 151 125 124 135 125
187 198 191 158 189 190 191 131 210 209 213 213 197 242 240 345 294 298 355 349 341 256 104 187 173 252 115 141 209 156 131 125 119 131 123 140 139 138 116 132 131 130 126 143 121
196 191 185 191 205 196 150 197 216 188 217 187 234 248 235 297 281 270 346 355 321 146 257 265 118 133 232 112 150 130 109 110 127 131 136 142 137 114 125 128 127 130 233 169 207
199 185 178 177 191 166 139 206 218 164 224 230 217 249 261 242 250 308 312 307 298 248 254 126 118 131 114 161 139 128 116 111 112 143 203 124 124 111 131 123 123 227 218 224 229
197 172 174 184 194 174 192 217 213 194 222 217 209 254 270 225 246 237 355 333 322 251 252 146 152 247 243 122 188 125 128 119 181 232 139 127 130 135 134 147 130 227 179 207 134
184 176 183 178 151 178 182 207 217 196 189 185 244 228 221 225 232 239 337 330 259 254 253 248 248 240 239 230 130 123 136 127 220 229 128 136 137 138 129 234 159 138 180 232 233
183 158 182 164 171 192 180 199 212 189 221 231 248 247 247 220 219 227 226 310 242 256 248 248 246 239 237 232 232 131 234 231 227 226 161 227 227 224 217 217 221 225 225 222 227
172 173 186 169 134 194 201 210 216 203 234 202 249 245 219 207 216 223 241 255 240 249 236 239 235 234 236 231 229 227 233 226 222 223 226 224 229 223 216 218 221 224 217 135 202
179 168 173 162 186 205 205 216 200 221 221 196 240 246 229 205 211 221 231 244 243 237 240 229 234 237 231 229 220 223 219 225 234 221 213 215 215 216 225 224 227 222 218 132 155
161 155 170 189 188 166 176 196 201 196 190 232 228 237 254 205 209 212 227 244 242 241 235 235 245 235 229 223 218 223 224 220 216 216 216 214 219 224 223 221 220 137 116 115 212
190 169 192 145 186 173 206 205 202 164 186 225 232 252 248 213 209 212 224 233 240 245 248 243 125 127 227 221 220 216 218 217 215 216 216 219 227 209 210 198 126 115 160 212 211
196 147 159 133 194 220 172 194 197 192 160 221 230 247 229 211 209 210 219 223 235 237 236 243 163 166 229 225 217 217 217 220 221 215 214 213 202 205 210 203 206 218 215 212 219
164 182 189 206 180 200 161 197 203 198 215 234 222 241 217 208 211 180 123 133 223 241 236 229 230 221 220 218 220 227 227 221 138 212 202 201 204 203 206 202 205 196 216 213 213
206 156 194 233 177 196 164 203 181 213 215 232 227 243 213 201 208 199 143 217 210 212 218 225 226 228 210 211 217 224 210 202 131 200 206 206 208 206 211 213 216 207 211 247 236
194 210 180 138 163 222 209 139 184 225 220 192 238 244 213 147 204 210 217 221 212 208 209 212 202 208 207 212 209 207 198 125 203 207 208 204 206 215 216 214 254 236 220 207 203
189 184 147 189 161 210 182 177 199 213 183 184 228 241 209 158 247 222 215 203 217 211 211 211 211 208 203 202 211 208 207 154 124 160 213 215 217 211 234 221 215 209 201 201 206
195 190 195 201 190 171 195 197 204 214 170 186 226 238 144 197 208 229 211 212 200 206 205 215 214 211 211 210 209 208 124 195 152 215 216 214 227 216 215 212 199 200 198 196 187
128 152 173 180 212 133 200 195 221 201 181 181 227 238 127 196 215 209 213 229 223 219 213 213 208 216 216 217 221 225 220 224 218 214 237 230 213 211 206 203 198 199 191 204 196
175 213 195 190 201 193 158 187 220 183 217 177 204 234 244 223 208 206 229 226 227 227 225 225 225 223 223 222 218 212 212 215 214 233 223 215 208 201 199 197 196 206 202 199 197
199 190 192 198 203 202 190 187 225 210 235 176 215 229 252 219 211 214 225 223 220 218 220 218 218 216 209 208 210 207 208 230 228 219 209 203 197 195 204 202 200 199 196 194 192
237 207 156 203 208 199 189 206 220 228 202 177 195 259 243 215 210 213 221 216 217 213 215 208 211 199 214 208 214 242 239 224 217 208 200 198 195 203 190 186 190 195 193 192 195
154 150 192 200 187 227 189 222 220 221 239 182 195 253 235 211 222 215 213 217 207 205 206 214 209 207 222 232 250 232 221 214 206 198 197 198 200 189 192 194 194 190 192 189 188
192 186 165 198 214 176 203 217 223 232 219 205 198 247 235 213 214 211 206 211 203 199 210 198 205 205 261 248 227 220 210 205 199 203 197 193 195 197 197 187 190 193 193 196 200

GFSSW_2pvu_pres_030.txt.gz
Presure
190 196 198 196 114 191 196 197 192 193 202 189 209 96 189 205 217 211 259 243 257 215 333 289 297 258 133 118 121 158 156 138 147 241 121 122 159 165 154 149 146 157 147 128 118
188 182 188 122 184 191 193 185 194 187 189 204 213 194 202 211 219 220 215 290 251 252 349 340 338 244 259 192 164 250 179 133 134 126 139 185 146 119 208 149 127 140 135 124 129
185 180 190 185 180 186 188 194 189 192 162 169 183 200 193 203 210 201 273 273 241 254 384 324 342 268 251 142 171 164 151 254 198 260 243 127 150 142 157 102 293 147 152 123 130
185 186 194 182 182 186 184 183 203 203 171 202 195 169 182 201 211 211 273 244 249 342 370 302 320 309 256 269 201 245 256 153 141 141 143 139 233 135 159 147 216 153 138 142 116
179 201 188 188 184 181 182 185 187 180 175 182 193 138 191 208 213 236 286 232 244 368 362 301 317 342 255 267 255 226 241 234 247 134 269 256 201 172 181 122 208 141 141 131 131
195 200 184 183 182 182 184 197 182 184 190 198 169 191 178 200 211 246 282 229 252 333 341 259 365 258 255 267 178 245 261 234 203 255 187 238 177 224 183 179 139 148 117 117 128
196 189 181 182 183 187 183 98 182 180 185 164 204 188 192 200 211 239 276 224 254 347 297 255 265 256 259 250 242 160 238 233 225 241 122 232 142 143 239 135 110 220 130 122 126
197 168 185 171 144 188 190 163 189 190 184 182 187 178 200 198 212 241 274 216 249 291 335 249 252 129 278 242 224 146 227 238 244 157 224 201 156 164 207 117 136 118 131 143 132
202 177 176 168 183 182 185 175 184 174 193 184 176 178 197 185 199 231 273 224 251 251 238 243 254 259 268 246 175 229 240 241 175 145 176 141 121 188 115 132 180 136 121 123 124
192 186 173 178 167 175 174 160 182 182 153 194 189 189 189 194 181 231 271 225 237 251 263 255 263 267 261 153 108 243 237 117 214 118 121 126 126 121 121 127 115 119 123 142 125
185 172 175 174 173 157 181 182 192 167 186 166 202 167 198 208 186 243 269 226 223 239 238 253 280 254 240 243 185 112 126 238 151 122 134 233 217 123 120 117 116 123 126 138 122
183 182 177 170 171 183 183 184 168 148 206 192 184 169 203 170 191 225 254 228 220 238 241 229 266 249 239 237 244 227 128 148 169 122 118 246 201 202 166 205 131 146 164 126 125
183 176 181 181 185 185 176 181 196 160 188 166 198 195 181 173 186 237 242 222 218 235 239 233 222 261 246 236 237 182 221 198 225 228 227 230 232 228 203 135 136 135 132 134 181
175 180 176 173 174 169 190 194 150 182 187 199 185 167 197 206 193 223 185 218 215 219 233 235 231 220 243 231 235 227 236 224 223 224 225 229 227 228 223 221 155 216 214 214 214
168 185 174 163 172 186 157 161 182 185 166 187 169 200 195 198 186 226 188 248 214 221 221 235 234 229 229 241 231 233 235 220 219 222 226 227 216 227 218 216 213 209 223 219 222
196 182 171 167 182 173 182 185 180 150 181 168 185 190 184 201 183 210 227 243 214 219 219 226 233 240 236 239 243 241 229 224 221 214 225 231 228 218 216 220 215 204 209 219 219
188 182 189 184 195 187 192 198 158 154 178 191 181 185 198 202 190 183 225 237 211 215 217 220 225 229 238 243 238 230 229 219 161 221 222 217 218 214 214 212 214 218 224 204 202
185 200 195 207 191 167 195 201 198 171 189 191 171 180 182 181 184 199 228 233 228 215 211 217 224 230 231 231 230 232 221 213 217 211 213 218 224 229 213 124 217 210 223 204 207
187 179 172 173 131 192 208 168 191 178 201 195 194 205 211 200 189 197 231 193 242 131 233 223 218 224 221 222 237 225 224 226 221 221 225 225 222 213 216 206 194 132 214 218 222
182 188 184 194 200 201 182 193 173 185 194 179 180 212 215 211 212 195 229 218 246 200 228 228 225 222 223 217 209 204 205 216 216 217 217 201 199 158 204 185 128 123 222 225 215
192 189 164 141 163 201 188 198 159 174 149 206 204 199 219 213 193 187 225 227 225 248 204 219 214 215 208 211 208 215 213 205 204 207 209 208 206 207 208 142 127 215 214 214 229
185 211 182 191 200 191 216 197 187 214 202 202 207 186 181 175 187 184 195 231 184 280 204 240 198 218 213 213 211 220 219 208 205 208 209 217 207 210 150 215 209 202 228 222 213
195 145 161 197 228 195 174 189 186 200 179 197 194 219 179 182 196 199 192 230 231 214 218 229 208 245 235 226 215 214 207 209 210 213 214 219 224 220 229 212 208 222 213 208 202
219 210 217 195 177 212 204 174 202 162 178 186 206 208 209 180 201 203 192 224 233 134 228 223 211 234 234 232 226 226 226 225 223 223 226 228 217 219 212 229 227 218 205 200 196
233 239 227 112 203 194 190 206 177 224 190 165 171 155 198 186 187 222 191 200 232 180 260 223 211 224 225 228 222 221 220 216 209 205 209 213 212 208 232 225 208 205 204 197 201
249 232 199 222 195 205 193 188 191 226 204 208 185 193 195 207 206 196 193 190 236 192 265 209 210 222 219 221 215 211 212 203 206 211 211 216 206 243 218 210 202 199 196 191 195
277 260 199 193 211 186 202 206 206 209 197 223 207 205 226 197 194 185 202 197 237 225 263 224 216 219 221 217 208 209 216 213 212 207 221 223 255 232 218 201 194 191 191 193 195

GFSSW_2pvu_pres_033.txt.gz
Presure
102 182 192 176 181 206 190 182 184 198 191 189 195 193 180 120 210 183 176 219 225 302 245 249 294 357 293 276 269 277 181 269 261 272 216 132 306 249 255 191 156 170 137 135 158
185 190 190 192 188 191 184 186 89 193 189 190 198 166 184 191 186 200 200 219 240 308 237 274 337 351 306 266 263 267 253 112 123 258 195 127 147 278 204 117 258 152 158 138 148
169 194 187 181 192 187 187 181 197 189 194 195 194 194 184 208 211 199 204 214 237 274 243 374 349 332 318 271 256 262 261 265 118 254 294 122 137 151 252 221 153 144 145 232 144
185 185 183 190 187 185 179 179 197 170 184 183 186 174 193 182 187 206 202 204 226 261 260 375 308 310 362 273 242 263 252 206 121 241 144 149 139 246 139 128 133 140 153 149 137
185 192 191 185 182 186 179 184 198 189 185 194 171 195 193 195 178 92 211 201 232 254 265 309 283 318 345 251 243 251 247 116 121 232 147 119 143 144 187 255 130 147 184 238 168
180 183 181 184 184 190 181 191 186 173 181 188 173 151 188 122 201 206 201 222 228 245 267 273 260 377 314 253 253 246 241 244 229 198 227 234 225 141 218 259 166 140 143 149 149
190 192 183 185 183 181 176 148 161 176 172 194 185 182 186 186 166 186 209 246 262 242 264 261 258 261 258 259 269 237 234 242 216 230 228 196 235 127 242 151 143 151 150 151 215
194 183 183 189 182 181 181 181 189 170 153 161 175 189 168 199 199 209 211 222 266 240 237 257 252 252 253 267 266 240 242 185 228 232 233 201 246 239 229 219 203 136 215 146 136
177 192 191 188 184 185 181 197 203 177 171 181 185 179 182 179 194 187 193 218 248 238 227 255 256 259 256 262 250 242 230 238 232 227 230 237 243 220 223 190 226 188 181 206 182
183 173 176 182 173 176 173 203 193 159 185 185 191 188 185 198 188 180 206 224 226 238 221 248 255 262 269 246 233 246 238 190 215 226 218 227 216 246 194 222 218 208 116 128 123
172 178 181 176 165 184 195 187 195 179 185 181 181 176 184 179 187 198 203 219 211 264 218 257 243 280 275 246 239 232 223 109 230 235 218 223 205 230 204 210 115 139 126 118 120
182 183 181 181 184 179 182 182 186 187 177 185 193 185 172 192 192 200 191 192 207 276 214 259 231 248 251 255 241 230 235 145 230 112 116 215 203 116 168 123 111 124 117 118 119
189 187 189 179 179 192 187 189 185 183 189 180 171 172 184 183 191 187 193 215 208 312 211 234 241 226 246 238 232 241 234 145 174 219 171 145 113 134 138 193 181 119 216 172 178
185 188 175 187 175 167 191 175 184 195 177 179 176 191 184 182 182 179 200 179 208 260 214 226 247 234 234 245 238 238 225 224 224 225 200 215 222 118 213 221 216 212 172 134 225
187 183 173 194 166 187 185 194 194 191 191 164 170 189 186 171 190 194 192 199 196 253 220 214 219 233 235 228 231 236 233 230 227 225 229 227 228 219 223 220 219 223 232 224 222
184 192 186 171 179 190 176 184 176 168 171 180 175 180 171 175 192 195 198 201 194 246 289 207 215 217 233 236 228 229 229 232 232 222 222 226 228 229 224 222 218 218 217 217 211
193 163 183 193 187 177 180 181 155 176 176 190 169 181 196 200 204 181 203 208 194 212 219 213 206 221 224 242 242 237 230 230 227 218 224 222 220 223 218 218 216 208 212 215 219
198 189 184 173 186 186 193 190 189 177 179 184 188 176 196 193 177 190 203 213 188 197 238 255 243 228 218 224 240 237 230 227 222 226 222 220 218 213 210 213 210 208 210 210 210
195 214 207 193 179 195 156 184 189 190 193 194 210 197 207 210 178 197 212 180 172 192 239 261 223 293 224 190 225 240 234 228 225 216 216 213 208 206 209 214 226 225 215 213 126
223 198 188 184 198 205 193 174 177 177 168 197 195 186 186 168 190 195 190 206 195 188 219 268 248 210 212 219 212 212 207 219 225 226 226 223 219 223 222 219 219 202 200 203 206
189 210 200 186 202 183 203 198 184 179 203 172 199 195 204 209 203 209 194 185 179 188 192 238 263 206 228 207 209 211 212 214 211 209 213 209 203 207 203 203 206 199 208 209 216
243 205 187 213 189 178 201 195 176 190 202 185 206 193 179 160 216 200 172 182 194 188 197 244 267 235 233 202 215 207 214 209 218 220 211 206 206 207 199 204 204 205 212 212 216
182 186 240 205 206 201 196 189 162 136 185 195 199 191 206 204 201 188 177 187 196 193 203 210 260 250 225 209 237 226 225 218 215 213 214 212 217 206 210 213 209 214 215 213 219
255 198 152 212 161 196 209 188 185 189 166 174 181 191 182 174 185 206 173 204 196 200 207 195 240 201 229 230 229 230 228 219 220 219 223 231 232 223 215 205 206 206 205 225 229
257 258 175 249 228 161 173 206 194 198 190 204 191 163 184 199 166 177 211 189 189 193 169 201 235 252 235 229 227 221 227 232 229 224 221 214 206 202 207 202 201 204 215 229 210
256 264 141 113 223 231 202 168 207 196 131 210 177 166 202 213 204 220 196 189 202 196 189 227 214 261 241 216 226 219 223 223 211 211 209 209 213 210 205 215 216 217 234 216 196
288 251 142 138 158 188 228 210 158 170 168 179 172 187 156 196 185 206 188 226 208 191 183 189 235 229 257 223 223 214 229 215 208 216 213 214 211 223 228 199 244 244 220 196 193

GFSSW_2pvu_pres_036.txt.gz
Presure
191 195 190 191 177 180 189 151 147 157 192 192 181 191 176 206 202 143 191 201 195 206 133 224 250 373 338 347 296 282 269 282 268 266 279 265 277 293 288 276 144 156 132 140 208
191 200 200 183 190 156 185 195 143 191 188 85 184 169 184 206 194 191 200 197 192 223 224 286 233 378 305 349 292 277 274 278 264 270 165 255 212 132 287 237 181 178 175 219 124
209 184 184 198 195 188 190 181 185 194 193 173 184 175 189 205 193 192 193 197 179 215 204 285 237 263 262 354 209 261 259 266 264 261 253 249 277 265 290 146 217 232 234 187 232
204 184 204 181 192 187 164 195 193 192 188 182 164 177 185 171 196 191 187 196 194 202 217 271 252 256 276 349 290 245 132 248 246 255 204 130 247 259 126 133 142 226 225 124 133
192 194 184 187 204 189 187 183 183 179 184 186 185 167 176 206 195 191 191 190 182 160 224 260 258 264 324 355 285 264 258 248 248 244 254 113 217 243 241 124 174 197 237 241 191
191 193 193 184 197 192 189 197 198 192 182 188 166 181 185 195 182 185 193 140 178 215 218 257 265 277 284 334 254 274 253 248 194 233 249 112 131 242 141 135 126 237 133 165 172
197 201 181 193 184 195 185 185 182 192 190 186 184 182 187 203 204 193 194 162 207 203 218 262 241 269 278 271 243 270 249 247 188 228 227 127 199 142 128 182 260 240 190 198 133
188 198 193 169 177 192 183 175 191 185 183 189 189 182 189 152 204 188 177 166 210 198 215 266 239 261 264 256 249 267 248 234 236 227 227 210 225 230 241 232 240 133 135 190 218
182 188 182 193 192 175 186 186 176 192 181 179 171 184 180 197 183 193 196 170 198 207 219 273 217 264 263 270 265 246 240 237 230 225 217 225 241 236 245 236 147 139 151 215 214
192 180 177 185 181 186 189 192 183 181 186 177 180 184 198 165 194 194 174 171 195 203 203 280 216 265 283 251 247 245 234 241 230 211 165 231 183 247 237 134 221 227 225 207 142
191 188 189 186 185 170 180 182 165 173 183 175 160 188 195 191 192 192 193 177 190 189 198 237 225 253 255 260 241 235 240 232 239 226 219 233 230 239 225 214 221 224 231 132 218
173 183 185 176 167 177 177 179 180 182 172 180 180 181 189 190 177 180 193 173 200 198 198 215 233 235 252 252 245 236 231 222 229 225 173 200 226 234 229 233 151 210 200 172 133
173 195 181 189 178 181 175 187 179 187 185 185 184 192 186 190 183 185 168 187 204 204 227 211 246 213 250 245 243 243 226 226 228 228 173 240 220 228 178 220 234 209 233 209 144
187 182 179 175 173 191 187 182 187 192 185 170 194 186 183 183 176 191 177 193 191 200 211 211 271 216 221 240 231 237 239 228 219 220 212 227 225 120 197 220 205 118 133 117 118
192 159 195 185 200 174 171 181 176 172 176 186 168 181 195 195 192 187 185 198 198 207 214 229 266 227 204 249 240 229 243 228 223 224 223 217 221 221 144 172 128 123 123 129 212
171 188 171 215 192 182 187 198 191 181 191 192 196 186 188 180 185 159 195 200 180 155 217 214 214 291 206 222 249 238 233 237 229 230 229 220 218 216 221 220 217 213 218 220 218
214 179 170 194 158 190 184 175 182 193 186 188 186 199 167 187 184 186 164 203 206 213 216 197 206 263 201 228 219 242 235 230 232 232 228 216 217 219 226 225 230 226 219 219 226
248 230 181 162 181 194 198 180 174 179 190 179 168 186 187 182 188 196 162 191 197 212 185 205 201 213 256 241 224 221 246 243 238 237 229 218 220 221 218 218 221 222 220 221 211
252 242 234 190 177 183 181 199 185 170 174 182 183 186 193 187 195 178 186 171 204 209 218 195 195 205 283 206 233 126 219 243 237 237 231 226 216 219 214 211 209 210 212 211 211
253 243 238 229 221 199 181 165 175 174 185 183 182 191 177 188 182 188 193 197 201 189 199 190 199 194 265 231 215 208 213 211 222 215 224 217 213 219 210 207 210 216 215 217 221
252 253 250 183 233 200 189 221 181 185 176 191 195 171 182 186 191 202 200 205 195 197 187 189 194 202 215 271 228 209 209 207 214 211 211 210 216 219 222 219 215 218 208 201 198
250 256 241 229 254 247 157 177 197 188 189 198 186 202 193 197 183 206 189 200 186 203 174 185 195 195 194 284 236 231 201 213 209 209 206 205 213 212 206 206 205 205 203 205 208
253 245 244 235 241 241 238 199 149 186 180 202 179 197 199 172 193 180 198 188 186 181 189 223 199 190 182 261 245 223 235 243 226 219 211 202 214 206 214 206 208 206 210 208 206
251 264 252 153 245 246 232 168 174 179 193 206 184 169 172 186 179 187 183 188 188 212 204 188 216 189 197 194 268 228 221 231 236 230 220 212 211 205 204 209 210 214 222 222 225
261 255 98 221 257 245 221 227 183 171 200 141 194 183 186 196 171 176 188 175 187 193 211 180 188 189 194 194 279 231 217 223 223 224 225 226 219 224 218 219 219 220 221 211 210
275 265 258 265 153 243 231 216 160 193 200 201 147 193 169 161 187 206 189 172 170 203 202 184 214 212 193 190 197 252 227 223 224 215 214 216 216 219 213 204 191 203 204 209 218
292 271 262 112 111 123 243 231 222 212 185 126 192 193 182 191 183 202 163 194 208 213 185 199 211 219 189 199 205 264 244 226 225 221 213 207 205 209 206 200 211 213 217 220 205

GFSSW_2pvu_pres_042.txt.gz
Presure
196 197 157 194 227 220 227 225 202 180 154 192 194 155 192 188 199 184 198 189 123 214 215 211 207 213 180 220 274 325 343 104 288 266 260 260 258 265 275 272 291 233 148 149 231
202 207 178 195 209 205 220 204 206 201 216 188 201 196 191 197 179 190 137 188 197 210 204 205 217 193 196 233 260 379 335 289 273 267 259 263 262 249 276 273 282 214 155 154 236
225 223 236 216 204 212 171 198 197 203 200 207 183 214 190 181 179 186 198 187 185 209 201 210 211 206 196 233 258 367 300 277 270 255 245 253 252 245 259 279 203 297 210 225 231
206 194 230 220 218 217 194 213 202 190 185 221 195 184 171 179 180 185 189 211 189 208 203 207 192 145 224 242 276 266 265 283 258 246 258 248 243 249 267 294 298 289 231 224 240
214 207 211 211 218 196 214 203 193 199 197 204 215 180 213 202 187 188 196 193 192 196 199 204 190 203 231 273 240 268 288 266 258 258 240 241 259 270 249 253 260 126 222 230 127
209 196 191 178 203 179 207 204 208 189 207 199 196 197 191 187 190 199 204 206 174 181 201 208 182 214 206 269 235 270 268 256 244 250 244 244 253 253 250 255 233 231 213 212 227
179 176 163 172 165 175 195 193 193 212 185 194 192 201 191 181 201 210 160 199 189 196 198 185 190 210 202 249 228 275 255 250 245 238 265 242 254 244 244 255 237 232 216 218 133
154 189 172 195 185 200 190 186 201 197 195 190 189 195 182 201 193 200 194 183 190 196 192 193 195 205 224 233 221 290 256 236 221 239 232 242 243 243 242 247 241 228 222 217 228
208 193 189 197 183 187 204 173 169 201 192 203 196 167 175 186 187 187 167 176 192 194 205 191 215 192 221 214 227 250 259 235 231 233 238 229 229 236 241 238 128 115 141 219 215
200 175 188 151 185 190 180 152 185 175 194 182 197 200 198 194 194 192 189 186 201 200 199 186 208 178 223 211 251 215 264 232 235 225 219 224 222 228 236 226 224 246 216 210 215
201 187 153 196 152 180 179 188 185 149 193 198 191 192 191 182 194 191 175 198 174 198 170 177 187 203 220 210 257 214 249 248 245 225 212 217 208 219 239 236 236 221 232 215 145
199 159 162 195 144 156 170 175 179 181 178 172 179 176 188 193 196 180 193 193 174 197 185 197 212 201 182 204 245 241 213 240 231 248 219 223 223 223 238 246 234 239 214 212 224
173 170 191 182 168 171 165 140 168 182 167 163 165 178 188 180 189 195 196 170 182 192 201 198 217 201 180 200 231 250 218 243 231 230 230 226 223 223 230 236 227 225 222 222 216
189 194 140 194 187 139 155 189 183 183 158 175 175 189 175 184 179 193 184 199 187 201 187 211 186 199 204 197 222 263 232 229 236 232 231 230 221 132 230 208 111 226 235 217 216
173 208 193 173 193 157 174 161 146 143 167 187 171 189 176 168 179 187 201 190 198 199 195 196 159 204 201 191 213 231 255 216 242 238 227 224 224 228 236 231 134 114 210 210 210
181 189 181 180 182 182 193 171 177 155 155 159 176 177 185 179 176 178 176 202 192 205 200 182 172 202 216 172 200 219 248 235 201 242 233 228 225 223 219 224 225 116 207 203 217
211 212 208 194 194 202 176 151 187 165 182 174 178 163 176 177 174 175 185 189 192 198 192 187 188 160 218 177 197 205 221 244 213 208 240 235 229 231 230 221 220 210 211 226 206
218 248 232 215 221 206 220 212 210 170 214 213 177 199 172 158 183 167 169 184 174 181 187 202 197 188 212 182 180 201 216 235 224 203 228 242 241 229 230 223 222 219 218 219 220
265 263 261 226 212 227 221 212 246 204 152 208 200 174 177 169 169 193 177 195 171 180 189 200 171 179 206 188 182 203 205 218 255 220 204 217 240 242 230 225 221 218 218 222 222
264 253 249 247 248 253 233 216 169 227 219 206 214 188 194 187 156 189 180 183 176 186 200 179 186 186 200 174 200 190 194 208 222 244 214 200 210 203 236 226 221 223 224 216 218
296 294 261 249 250 251 263 242 241 226 195 201 217 188 178 195 167 177 165 189 180 186 172 188 199 204 204 175 189 196 181 202 214 211 238 214 203 216 204 208 226 218 219 217 215
347 376 313 275 255 266 262 242 240 226 225 237 217 208 197 196 186 193 169 184 189 175 184 188 194 182 206 191 178 214 186 179 201 214 245 227 221 205 217 207 223 229 213 226 219
312 338 412 376 283 274 259 254 248 249 214 219 215 210 214 202 176 184 173 177 167 184 186 193 199 195 183 204 174 197 192 222 192 201 212 242 228 197 229 218 218 211 209 211 210
307 307 340 279 354 249 255 262 256 245 236 229 175 216 213 208 190 183 184 169 169 190 188 181 190 200 178 183 187 205 201 207 195 191 203 246 246 217 226 243 240 222 216 210 211
318 302 312 287 422 356 294 263 255 226 242 104 189 206 213 212 202 189 193 186 181 182 188 193 180 177 196 177 179 203 197 190 204 183 194 230 247 241 220 219 217 223 225 224 223
341 302 297 313 217 385 302 115 256 191 92 239 226 219 220 218 206 205 203 198 201 188 184 194 172 200 199 186 189 201 207 189 204 216 181 212 217 254 236 220 215 211 221 222 215
357 301 292 158 162 360 360 103 126 243 188 239 223 222 229 217 209 207 204 200 209 183 193 176 195 165 183 179 191 202 186 192 197 207 232 196 203 201 248 234 220 214 214 210 210

GFSSW_2pvu_pres_045.txt.gz
Presure
187 176 202 210 190 139 193 168 203 195 235 168 217 213 206 162 175 204 184 193 206 195 185 192 205 218 207 213 222 216 304 193 297 288 279 270 268 252 270 260 265 276 327 215 294
197 175 202 195 217 197 209 199 193 129 207 196 221 223 220 212 214 207 206 205 213 166 186 200 202 191 211 205 204 237 338 315 293 283 257 255 269 254 260 299 288 304 321 223 208
177 185 154 198 205 220 169 219 172 218 203 178 192 201 192 219 188 216 220 193 203 107 202 206 212 191 218 186 212 267 295 290 265 270 256 257 241 253 289 284 193 238 293 162 216
183 191 197 197 171 207 192 228 200 198 224 213 198 201 193 189 205 209 211 190 193 199 218 171 208 199 214 216 220 253 289 296 268 243 254 253 256 243 234 222 213 209 255 247 211
196 192 183 184 200 206 201 214 203 221 207 211 203 209 195 198 189 193 199 195 186 218 212 206 192 214 196 209 229 253 285 261 256 259 255 253 243 270 271 257 206 231 192 193 215
191 185 200 200 182 210 158 160 208 193 208 193 208 206 200 195 190 197 194 206 204 201 199 188 197 210 192 182 223 244 280 256 249 252 248 251 258 246 265 261 251 241 229 228 222
192 200 185 201 190 196 200 178 178 202 189 162 208 193 187 193 196 199 198 196 194 192 176 182 218 204 203 213 218 245 289 255 251 234 260 250 238 249 245 253 236 227 232 218 145
183 179 196 142 199 195 204 163 165 176 173 200 187 190 206 196 164 194 190 169 191 198 194 197 204 195 206 212 223 246 266 245 238 236 233 210 223 247 246 247 239 227 225 226 240
191 182 193 179 198 192 167 162 174 194 193 187 186 187 177 195 196 184 205 206 194 194 202 186 197 192 194 206 205 252 230 247 240 233 233 234 230 235 232 244 237 236 225 221 210
195 180 168 201 180 177 177 199 184 190 187 164 184 197 179 169 205 203 200 199 206 192 199 203 202 195 212 204 213 253 235 238 236 226 220 221 226 231 233 250 227 233 217 216 117
195 188 204 174 205 165 180 197 163 198 174 192 188 191 187 175 184 177 193 178 178 200 187 180 205 201 197 208 205 207 241 228 249 239 228 218 230 223 225 254 230 237 212 159 122
200 194 171 191 181 184 194 147 192 197 180 182 166 190 185 182 168 172 198 192 188 185 192 203 204 197 200 203 217 208 257 221 245 248 229 228 215 232 229 233 228 241 217 210 200
203 195 201 177 172 192 195 140 166 172 179 182 192 166 170 165 188 175 189 170 187 194 197 203 203 199 193 208 203 190 231 240 235 237 234 232 224 217 225 255 235 237 217 212 205
202 196 202 203 195 175 156 193 153 193 183 194 142 172 198 153 174 181 171 164 174 188 177 195 201 191 210 195 207 190 209 265 232 232 241 237 229 224 217 228 243 238 218 227 211
209 201 204 197 172 159 163 181 200 156 172 187 179 168 179 154 167 168 168 182 179 173 196 194 202 190 186 163 212 180 196 239 232 210 235 244 232 233 232 236 220 241 178 215 219
214 212 198 214 205 206 190 208 169 178 172 163 171 150 148 164 172 168 178 164 189 176 182 194 189 187 199 197 185 187 208 205 274 215 209 231 235 226 224 227 225 220 233 210 222
218 219 217 208 199 191 181 180 178 186 192 165 178 183 178 177 169 192 178 172 181 184 184 177 179 183 178 194 200 197 181 197 214 270 250 209 227 233 229 228 229 226 227 228 214
222 197 211 205 220 199 203 205 197 160 186 187 178 191 193 187 176 151 186 156 179 175 187 181 171 183 198 191 201 203 184 182 201 215 268 258 209 225 240 232 235 225 232 222 221
245 244 242 221 213 202 222 212 198 190 194 192 172 173 175 190 176 196 196 180 163 166 176 170 183 173 195 180 207 184 196 198 187 207 219 262 219 203 231 234 238 231 226 224 221
265 274 242 239 217 224 225 215 205 207 191 186 185 187 184 186 189 180 197 155 169 182 182 176 181 192 186 188 207 193 183 211 185 189 205 220 259 213 209 209 223 237 224 227 222
341 312 277 264 252 226 241 235 218 198 211 193 186 186 192 196 148 201 185 205 158 181 177 188 190 186 185 181 186 198 184 178 207 186 187 202 219 252 232 203 219 208 211 233 232
313 331 343 360 296 267 276 267 216 114 212 219 205 196 195 197 200 212 194 202 174 184 197 194 185 173 192 184 194 184 197 172 198 207 190 193 202 218 250 201 251 220 216 212 213
312 311 316 310 340 343 347 277 262 270 263 131 214 216 214 217 204 220 208 203 189 186 168 197 211 170 177 189 192 182 199 182 180 209 187 195 191 204 264 241 221 228 237 230 222
299 315 301 316 319 272 231 449 232 259 261 259 252 220 213 219 216 215 210 199 190 165 173 187 193 174 185 180 187 195 174 182 178 197 205 202 202 203 221 259 237 224 221 224 246
272 312 135 312 343 160 298 338 420 296 267 253 244 237 240 222 209 215 209 192 194 189 188 190 176 178 193 176 196 190 182 166 180 201 193 198 203 213 190 215 249 250 232 217 214
293 313 279 288 93 210 245 317 395 356 133 252 139 229 232 227 223 219 206 211 199 198 195 194 166 184 195 178 189 179 194 177 182 200 189 188 193 205 224 192 201 260 253 236 219
343 348 325 277 351 287 246 88 384 257 130 269 142 226 232 228 240 221 219 214 209 204 195 177 166 184 193 189 199 172 196 195 179 194 181 196 207 191 201 235 211 189 212 254 244

GFSSW_2pvu_pres_048.txt.gz
Presure
205 196 194 196 205 202 192 200 207 186 181 186 199 195 201 205 199 175 215 220 226 211 209 225 222 188 196 208 182 225 221 222 311 325 288 238 296 239 95 250 200 212 186 193 213
205 197 191 167 197 168 199 202 190 182 181 228 196 201 205 197 212 212 200 188 198 214 212 215 211 195 223 212 201 208 225 252 303 307 285 273 276 225 232 226 209 216 212 203 336
195 181 188 190 200 195 203 230 205 188 233 234 233 227 232 205 208 209 196 208 212 207 206 201 206 205 211 203 211 195 244 268 290 256 256 273 258 254 288 221 217 203 224 236 228
193 147 174 186 185 212 212 173 182 216 216 192 229 189 230 220 216 209 203 211 201 204 205 206 211 208 199 201 210 201 237 274 265 264 263 280 267 272 224 227 223 224 195 207 220
194 170 174 196 170 192 194 187 201 191 180 185 212 218 219 212 210 210 209 205 201 193 175 205 199 194 186 212 202 216 222 295 268 270 259 243 226 282 241 202 210 192 212 218 226
187 196 196 184 194 187 188 196 195 200 194 207 206 192 200 213 207 191 201 200 190 200 200 204 191 201 194 202 217 208 200 286 273 248 254 249 207 200 196 248 233 188 209 208 257
187 192 188 191 196 185 186 188 204 175 207 209 187 202 169 201 165 203 195 194 200 180 200 207 189 208 201 205 200 227 183 256 256 228 260 226 208 196 216 230 274 217 215 217 246
182 167 181 184 166 190 201 201 167 199 198 182 198 166 178 205 199 198 186 177 201 206 211 219 205 201 194 206 202 196 202 247 264 245 231 213 209 210 245 239 260 245 241 245 238
180 182 184 187 182 184 199 183 187 198 200 190 194 191 191 190 158 180 172 202 181 205 202 199 203 189 201 201 200 208 211 253 257 256 228 217 201 206 235 260 253 229 231 230 222
193 184 179 176 181 185 182 196 165 182 181 223 147 181 187 152 190 161 205 193 196 193 193 192 200 205 207 204 199 196 208 265 251 230 241 224 202 195 199 231 238 226 215 226 231
189 196 195 205 189 175 203 195 168 175 180 200 189 188 180 190 170 187 190 182 196 179 180 189 202 191 195 191 196 205 181 213 244 253 247 224 226 265 209 208 249 233 216 209 206
194 193 181 189 196 191 199 192 183 192 168 152 180 197 194 192 196 170 200 163 177 188 193 182 194 193 207 193 187 207 203 198 245 244 244 229 229 213 202 209 253 226 207 209 207
190 189 195 182 190 184 194 186 197 182 195 191 201 194 155 187 171 168 155 187 196 168 195 189 177 203 203 191 196 203 202 193 211 243 212 240 232 233 223 233 230 229 230 208 207
203 184 189 194 195 187 192 186 198 209 196 187 192 190 185 186 145 179 183 197 186 166 187 174 190 193 200 180 193 199 190 196 196 268 223 239 241 233 235 227 248 224 238 218 210
217 196 191 199 199 197 185 197 195 182 194 176 200 185 190 186 176 178 150 151 190 169 166 178 186 184 187 188 182 199 196 177 185 205 262 217 236 241 241 241 229 235 238 224 216
230 234 210 198 215 201 199 206 203 208 216 181 217 195 147 187 170 178 144 161 164 186 164 178 169 189 182 174 195 187 198 189 196 194 210 255 227 238 240 234 245 230 245 220 213
232 218 218 236 224 214 205 198 205 209 210 188 191 171 158 188 178 173 168 176 169 180 172 176 183 188 188 197 181 184 209 197 185 181 194 213 265 229 216 243 230 238 234 220 215
222 231 224 234 213 229 222 208 214 208 194 209 184 160 182 191 169 177 154 178 171 178 158 166 184 178 173 186 181 196 200 190 207 184 184 198 212 255 220 210 248 236 236 237 219
241 224 224 207 222 207 218 225 217 214 189 203 191 190 182 167 182 186 188 199 176 182 158 170 189 176 174 181 170 194 199 194 173 194 207 184 194 206 239 226 213 233 239 239 239
240 252 219 226 220 222 218 216 202 210 213 191 191 199 200 178 179 179 174 164 184 192 182 184 184 164 198 197 180 180 196 184 200 180 182 206 184 193 205 245 230 212 206 222 242
250 256 257 239 227 239 239 86 196 207 209 216 211 205 182 184 188 187 185 188 181 182 188 190 156 178 201 179 185 192 188 186 206 184 193 191 202 194 216 199 246 240 216 222 209
282 294 267 279 268 266 256 245 159 102 117 230 214 216 193 189 189 187 188 188 188 186 188 186 158 181 209 187 179 199 191 196 189 190 175 175 199 192 198 188 206 249 238 239 236
314 323 323 285 293 285 274 242 280 207 114 221 219 230 198 191 195 183 181 186 189 183 184 187 196 187 165 185 199 189 216 184 191 186 183 194 198 196 185 215 209 199 247 241 238
302 297 308 310 324 329 329 304 96 228 290 249 185 197 215 206 200 201 193 188 187 185 184 195 195 192 213 192 199 170 181 192 197 187 192 178 187 199 194 188 218 220 202 202 252
289 297 296 305 310 237 254 303 322 335 291 283 255 253 221 214 194 198 209 195 198 197 197 197 191 185 204 196 189 192 183 167 187 198 176 177 179 193 203 187 212 208 244 200 205
297 298 295 84 253 287 314 118 319 323 324 357 283 272 251 218 220 208 212 212 210 197 195 198 195 208 203 175 177 178 184 182 179 197 177 182 173 189 187 189 200 207 201 239 228
286 299 292 310 95 309 249 281 177 250 328 325 173 338 214 260 219 223 220 207 207 217 207 208 205 216 204 179 196 175 181 185 180 196 192 189 195 178 183 183 186 198 211 214 222

GFSSW_2pvu_pres_051.txt.gz
Presure
204 148 204 158 187 195 208 205 195 195 208 205 189 192 105 211 187 219 223 190 204 219 217 200 201 212 211 212 213 219 213 220 241 308 310 326 263 281 241 233 261 207 89 215 191
217 178 182 195 156 182 197 207 204 193 187 179 179 206 224 196 202 233 226 230 218 208 216 207 198 207 210 212 209 207 203 219 228 277 278 289 252 230 242 180 142 212 161 206 188
180 170 205 166 188 128 195 202 171 192 198 196 204 190 218 230 200 221 233 223 211 220 209 199 213 205 198 207 206 201 199 237 221 294 295 305 226 226 237 217 221 219 204 200 202
148 165 184 210 200 198 193 204 181 199 192 214 196 196 205 195 181 206 218 213 215 207 211 211 203 200 208 206 193 205 222 236 294 266 284 263 269 218 210 223 217 204 197 203 199
199 176 198 188 180 186 179 201 195 191 198 193 180 201 201 211 197 212 199 186 190 208 202 208 194 204 200 207 215 216 222 219 290 270 253 255 232 211 203 215 219 222 197 203 221
228 205 179 190 203 194 193 199 177 193 202 202 193 174 192 203 215 192 201 191 201 171 197 201 202 204 213 202 202 209 220 212 264 255 235 215 212 211 196 217 215 209 222 191 224
222 214 206 137 197 179 196 193 186 192 181 200 170 197 181 202 198 204 202 186 206 196 200 174 209 214 210 206 206 212 215 212 235 246 264 228 227 209 205 205 212 247 244 211 227
214 186 148 197 193 195 192 193 194 187 175 193 167 199 191 208 200 194 209 204 198 186 188 221 210 209 206 212 206 199 214 210 262 253 217 239 228 207 201 223 241 253 247 237 202
206 211 215 200 200 196 195 181 185 165 173 178 181 198 189 204 197 182 197 191 180 186 198 195 203 194 195 204 204 192 205 222 214 214 235 226 227 221 196 234 246 255 240 241 245
193 205 204 209 198 199 197 178 163 182 189 194 192 181 192 174 197 193 186 183 168 173 187 197 195 197 184 203 205 196 195 213 195 306 234 233 226 217 228 211 226 244 220 231 243
207 205 196 206 210 204 184 190 192 183 169 180 178 189 200 186 190 190 174 189 182 189 190 168 185 189 187 202 200 201 199 204 202 223 258 236 216 216 208 211 206 238 223 217 226
221 208 200 193 193 204 206 188 192 187 182 190 165 182 202 193 188 190 193 176 161 198 199 194 195 203 187 204 189 186 194 198 203 195 275 240 230 210 214 237 210 226 228 218 222
220 209 207 199 191 196 195 201 193 188 177 195 192 197 191 190 183 201 199 202 181 172 179 171 186 187 187 197 184 178 203 199 192 188 201 273 211 257 231 219 223 242 249 226 211
213 216 200 206 194 192 189 194 204 183 198 178 189 189 195 196 167 181 185 179 185 172 160 177 190 181 194 196 193 189 179 199 193 193 191 206 260 214 241 242 232 234 222 213 213
213 217 210 203 203 191 204 194 192 201 189 186 200 139 194 163 176 191 160 187 181 186 180 166 163 188 178 173 197 180 191 188 188 192 192 193 209 265 225 241 249 227 235 235 213
207 221 206 209 201 207 205 202 191 181 198 190 189 192 189 154 191 188 200 190 185 186 146 177 169 183 167 177 191 180 200 185 193 183 194 188 191 214 254 212 233 231 249 233 229
221 217 211 210 215 214 212 210 202 200 189 193 171 184 192 196 192 191 163 194 176 163 151 171 166 180 158 174 188 176 172 197 186 188 184 189 193 196 213 255 210 240 240 245 240
241 230 216 212 215 221 223 235 214 154 206 194 188 185 188 188 200 178 186 198 187 174 184 149 156 176 189 166 199 186 177 182 197 169 186 185 202 172 223 206 264 222 223 235 239
234 246 244 225 238 239 234 242 203 215 207 212 198 195 196 193 199 201 188 204 195 186 173 156 178 181 188 182 172 166 183 199 172 188 195 181 186 183 202 226 201 275 241 209 239
235 234 230 222 233 234 236 216 218 212 179 209 220 213 208 197 195 208 190 208 193 191 187 154 184 183 192 187 197 191 187 169 194 188 195 189 190 197 194 199 225 196 251 256 197
266 259 233 228 231 233 230 81 88 218 212 182 212 209 215 207 202 207 190 187 195 176 185 177 184 156 167 169 180 177 191 171 203 191 206 186 180 176 180 203 200 223 192 230 247
271 274 266 259 247 242 233 108 219 159 90 229 230 229 221 208 194 207 202 197 197 186 194 186 186 181 193 190 191 190 180 191 181 212 203 185 186 187 185 187 204 200 215 224 207
293 280 266 279 133 270 243 240 123 223 227 217 128 227 217 224 216 209 198 197 199 192 189 183 194 186 179 192 192 180 191 190 181 216 203 200 186 169 179 182 200 202 146 211 251
328 311 296 277 294 189 276 181 256 180 241 239 216 205 220 209 211 229 223 209 197 191 204 195 194 187 194 190 191 179 194 187 195 210 192 196 187 179 183 180 196 196 185 204 207
307 314 315 314 316 319 321 306 96 171 231 157 218 222 227 222 214 206 216 220 203 200 198 189 185 191 187 189 190 181 183 193 193 196 210 168 185 198 184 178 182 181 192 193 202
294 301 302 304 289 297 308 314 316 321 327 293 290 256 230 232 223 213 209 212 209 213 206 196 188 194 193 192 183 181 191 191 189 193 184 191 169 193 204 177 175 182 179 192 189
284 285 285 293 288 293 307 179 292 307 322 318 127 194 280 280 249 232 223 216 207 212 215 205 194 194 199 195 194 192 185 191 186 198 212 176 186 181 196 177 194 198 193 185 187

GFSSW_2pvu_pres_054.txt.gz
Presure
210 204 194 204 194 204 199 173 187 180 182 163 195 174 204 202 192 200 175 202 201 260 235 133 175 227 213 209 203 223 211 210 217 229 314 286 261 270 258 253 260 236 220 212 206
204 197 184 208 204 197 207 200 192 204 181 170 192 196 179 173 208 189 206 199 215 235 228 224 216 216 212 203 215 208 208 207 211 243 310 288 276 281 253 235 254 239 219 211 211
178 165 209 207 174 191 177 193 185 174 191 173 173 199 203 193 183 196 217 194 187 189 181 205 214 212 211 210 205 207 207 217 232 303 295 309 257 239 246 240 234 259 217 215 191
197 167 195 211 217 182 193 195 187 188 166 217 191 154 188 161 203 213 222 188 228 222 211 202 184 214 203 202 207 208 208 210 227 279 267 276 246 248 230 238 230 254 213 224 194
203 192 214 222 190 198 199 181 195 155 185 184 179 203 199 190 202 212 198 184 208 212 194 204 190 190 187 189 206 204 211 213 217 277 271 221 238 226 235 224 230 221 224 212 209
205 217 205 201 192 175 168 192 162 184 184 211 190 198 182 205 191 205 219 200 190 199 206 186 197 198 201 201 199 213 208 214 224 286 217 243 225 233 230 233 208 181 206 221 223
249 234 202 172 201 180 142 214 208 196 183 194 192 185 169 202 181 199 202 192 208 205 197 198 189 206 201 202 211 197 206 205 241 207 249 252 249 204 227 234 248 213 239 205 228
220 235 197 184 213 204 218 215 214 202 181 186 189 187 180 193 181 185 202 196 203 192 202 203 177 190 182 191 204 207 198 207 224 202 260 264 239 236 228 225 233 251 243 230 210
237 219 187 221 210 225 213 216 199 212 179 185 194 181 189 184 167 189 188 190 179 196 194 176 159 186 196 187 177 203 203 207 201 194 253 236 233 229 216 210 204 231 258 258 254
218 227 210 160 212 224 224 208 215 195 200 194 193 189 182 183 164 164 194 174 196 191 181 188 174 192 194 182 189 199 202 200 201 191 237 252 235 239 234 259 219 229 248 239 252
235 215 216 196 183 194 217 216 210 207 198 194 190 187 184 177 171 183 170 203 168 193 165 187 183 205 188 195 198 192 195 203 206 196 187 248 235 195 229 216 225 212 249 235 225
208 220 224 231 227 223 214 218 206 212 210 197 195 186 180 190 177 172 186 195 197 197 187 187 191 186 189 193 180 188 181 193 188 200 184 197 249 225 215 224 227 228 226 234 219
221 230 236 229 213 218 207 222 212 198 194 204 190 187 181 181 182 186 188 200 189 192 178 193 189 183 188 178 185 185 193 194 190 191 197 185 202 252 261 244 231 234 215 244 227
233 229 228 233 218 214 215 214 203 213 208 197 204 179 185 181 150 185 189 199 184 196 185 188 176 177 163 189 183 184 177 185 180 195 193 201 185 198 261 207 250 237 257 236 226
223 230 210 234 224 228 215 216 207 195 201 189 194 202 190 187 164 183 182 174 189 193 193 182 181 164 191 165 182 189 199 172 187 181 190 195 195 213 201 258 218 248 244 231 233
230 229 240 230 226 224 222 210 217 201 193 185 188 190 185 194 195 191 192 196 194 182 196 177 171 182 181 155 167 168 184 179 174 177 190 197 201 194 187 202 241 237 227 245 240
242 231 220 230 228 220 226 215 226 213 205 195 190 187 192 186 180 190 196 190 179 191 191 183 185 170 149 162 173 182 175 182 173 173 190 187 186 191 212 192 202 232 249 244 251
256 235 225 228 232 231 215 230 208 94 103 201 199 197 193 190 188 188 188 188 145 195 193 175 193 168 159 188 177 184 157 194 184 171 173 189 184 194 181 203 213 199 224 247 203
245 246 243 227 239 232 223 231 204 95 190 216 189 193 183 189 193 192 184 186 190 186 189 197 200 187 179 147 177 187 179 184 171 187 175 193 176 191 191 197 204 196 196 244 244
247 230 230 243 240 249 229 223 222 186 213 215 209 204 197 194 194 200 187 186 188 188 195 194 195 202 186 162 166 183 174 199 183 184 188 180 179 175 187 188 184 203 192 193 226
267 254 234 237 235 234 226 128 99 83 126 215 225 205 207 214 212 201 201 199 200 197 187 196 197 196 197 165 154 185 179 186 190 163 187 184 192 179 178 189 186 196 213 171 177
284 271 253 248 238 177 225 219 231 234 239 243 239 221 232 239 233 223 213 197 197 205 196 197 201 201 208 198 180 165 172 181 181 197 192 168 182 200 174 184 182 187 196 212 142
286 273 112 265 219 184 229 207 229 221 231 89 124 105 224 227 219 220 219 211 209 204 211 209 193 201 160 198 188 159 170 173 192 195 199 181 183 189 180 187 190 179 185 196 187
291 296 291 284 289 265 240 240 228 190 226 227 184 232 217 219 218 210 215 220 218 209 199 210 204 203 190 194 196 186 193 181 194 194 164 187 190 202 186 209 187 180 182 181 190
317 328 302 276 284 293 283 137 192 223 243 219 229 219 220 211 223 221 219 216 209 217 202 201 196 202 196 189 198 196 194 182 190 191 185 188 191 194 184 182 218 186 181 179 181
327 327 306 316 321 344 337 289 288 106 98 108 261 236 238 223 228 223 211 222 215 214 145 205 194 196 201 195 188 179 186 185 188 190 189 187 193 187 191 190 166 172 198 173 178
330 324 317 314 315 317 253 165 244 330 312 269 262 270 275 245 233 184 228 220 219 219 221 221 209 204 200 201 198 198 198 198 196 193 194 180 178 188 194 196 189 216 180 190 184

GFSSW_2pvu_pres_057.txt.gz
Presure
199 196 199 204 204 213 206 203 210 198 198 203 156 161 197 167 189 182 142 166 197 212 210 213 233 178 233 230 219 219 219 216 212 210 224 233 305 312 273 261 271 275 209 237 226
200 201 198 197 196 203 202 197 204 181 193 199 204 204 200 157 182 205 196 190 179 172 215 187 200 201 208 199 217 216 212 208 210 223 225 287 265 290 254 247 266 271 241 221 220
194 224 205 183 201 195 207 193 183 181 216 179 205 198 195 186 174 180 158 201 163 215 208 229 225 218 206 213 214 199 200 198 213 226 242 271 289 263 250 254 259 262 244 218 201
213 218 205 231 206 193 178 197 194 204 189 215 180 152 186 172 186 195 192 211 201 208 196 204 210 199 212 199 197 197 207 218 222 221 229 250 297 254 229 233 243 255 244 215 222
216 173 208 197 172 207 219 205 204 177 219 213 199 200 184 194 182 184 183 208 183 207 202 210 201 203 203 193 198 207 220 213 206 232 223 262 228 249 225 246 225 252 237 205 205
207 217 162 197 162 207 176 190 213 202 212 196 189 202 201 153 181 184 189 202 186 207 203 210 205 206 199 193 207 210 205 201 217 215 212 251 237 242 239 221 241 233 222 179 215
223 233 180 176 188 200 206 202 210 203 195 186 191 160 148 199 163 197 201 191 199 187 199 202 204 195 203 207 210 194 208 214 211 216 208 284 245 228 232 226 195 245 236 221 182
237 216 206 209 238 215 206 212 215 211 157 194 179 184 191 203 179 199 194 188 196 185 201 197 193 187 189 208 180 184 175 205 207 213 222 258 263 269 245 210 233 203 209 236 208
329 264 280 264 220 242 233 239 234 207 180 204 199 206 206 198 182 182 188 193 189 199 190 177 196 192 183 184 182 181 197 195 203 200 214 197 256 238 229 237 224 210 204 226 195
277 282 274 257 253 242 234 228 213 232 178 202 171 200 207 191 202 182 191 194 181 191 191 197 195 178 187 194 196 186 198 189 198 193 208 204 203 270 249 229 244 231 220 236 206
262 293 256 243 230 239 239 228 218 184 232 191 232 209 193 205 190 190 193 191 152 175 181 185 197 198 179 164 197 155 191 189 183 190 209 207 200 212 263 209 235 228 228 229 245
265 277 244 245 236 233 234 234 230 213 207 220 224 205 193 196 193 194 184 190 187 187 190 187 204 161 188 191 189 187 190 190 183 196 190 196 203 189 209 254 240 230 231 237 235
263 270 243 242 244 231 221 220 209 223 188 182 220 203 203 192 192 191 188 189 182 186 185 194 205 181 185 192 189 187 189 177 178 181 189 185 195 204 208 256 228 270 249 239 210
263 257 242 236 236 229 220 233 218 224 213 220 219 198 200 201 193 192 193 182 189 181 194 190 196 190 187 171 189 175 190 181 175 176 200 187 184 209 203 204 237 218 258 258 258
254 254 248 235 233 224 223 220 210 224 227 218 218 210 208 207 197 195 192 196 168 173 191 193 188 195 186 191 164 172 178 171 183 172 172 186 180 192 194 199 203 233 210 250 248
256 251 231 239 234 228 238 214 229 206 212 222 217 217 198 200 197 192 188 198 188 189 180 177 190 184 181 185 175 197 168 158 191 172 180 183 181 184 189 192 204 210 232 219 261
254 237 247 240 225 229 230 225 208 196 226 216 219 214 198 213 206 199 189 186 186 186 188 189 195 187 201 188 156 182 164 156 157 159 170 179 177 177 186 194 190 206 200 232 250
272 253 243 250 245 228 224 225 232 202 205 222 207 209 206 205 208 193 197 198 197 197 192 189 184 185 190 201 180 190 183 183 192 164 173 189 175 175 192 178 191 190 215 206 222
287 264 251 246 252 230 227 230 227 227 232 215 200 208 208 204 195 201 193 187 191 185 184 187 183 196 201 192 205 189 158 185 166 172 199 168 197 179 178 193 175 165 206 208 220
284 284 263 243 252 246 238 235 230 229 244 224 218 218 189 210 204 199 191 194 176 196 197 194 185 149 196 202 198 165 184 181 164 189 187 165 184 188 176 178 205 177 190 193 217
271 286 271 264 257 248 256 242 231 246 226 229 221 213 204 206 208 203 208 200 196 196 189 188 195 181 193 191 182 166 156 191 148 194 198 178 170 194 170 188 185 178 179 189 196
287 273 267 274 260 251 232 240 255 229 230 228 223 151 215 197 204 207 194 191 190 194 195 203 202 190 194 173 198 173 159 203 202 188 187 181 163 161 176 170 188 194 178 178 178
294 286 267 121 279 225 248 240 238 177 244 234 224 228 221 231 201 210 206 202 199 198 199 199 180 195 198 205 203 193 187 196 195 160 189 178 175 164 191 169 179 194 196 180 176
356 292 283 286 278 278 250 249 236 230 222 239 241 240 162 224 222 222 203 204 206 203 201 201 199 210 206 211 187 193 206 198 204 172 188 169 186 191 181 181 171 183 192 186 185
346 285 297 274 283 262 272 251 240 231 236 229 217 219 214 222 217 208 226 214 208 215 218 207 208 218 212 209 213 209 204 203 201 194 150 186 179 189 162 186 185 185 179 193 190
325 336 345 284 276 292 269 275 219 252 240 234 186 227 227 220 219 221 224 231 230 235 246 236 228 223 210 200 202 206 206 201 199 189 192 196 190 184 188 195 183 185 179 182 186
294 306 313 161 330 111 98 142 263 270 258 244 205 229 231 144 232 211 213 214 213 214 218 219 218 214 213 211 212 184 199 202 196 198 187 191 192 187 189 194 179 187 192 186 171

GFSSW_2pvu_pres_060.txt.gz
Presure
182 205 184 193 201 211 180 203 212 192 207 199 202 207 213 202 204 202 204 209 190 203 195 206 179 206 196 232 214 215 193 204 219 214 215 220 217 241 309 257 279 264 287 247 249
158 210 198 176 173 172 194 169 179 186 205 211 194 184 186 188 203 186 201 207 209 202 202 205 206 182 219 184 211 221 219 208 207 210 211 234 236 261 238 270 269 251 271 238 230
200 189 208 201 196 211 208 174 204 208 144 202 198 198 209 195 212 181 219 195 177 194 198 177 211 203 202 209 220 211 202 136 207 213 229 221 246 265 253 265 243 256 267 220 220
208 211 194 205 217 208 148 221 198 203 208 175 195 201 179 166 180 165 183 202 195 195 207 193 206 222 207 206 207 210 202 203 210 222 200 225 239 254 243 254 226 248 234 211 203
180 205 173 198 196 234 236 235 216 235 207 175 193 189 192 188 179 196 169 188 180 186 208 180 186 212 210 204 205 206 201 206 207 199 218 225 220 271 250 243 228 244 223 213 185
212 231 233 234 242 170 255 243 171 188 211 194 182 194 210 150 199 193 210 184 192 181 192 186 191 205 206 213 210 211 201 193 193 206 215 221 218 276 248 235 222 241 205 223 199
220 219 237 159 255 230 173 238 212 210 228 182 184 187 193 197 208 190 189 207 175 189 204 195 196 182 201 207 196 206 191 181 193 192 214 216 210 254 263 244 240 234 209 262 203
242 240 251 210 336 267 349 198 226 206 188 182 205 200 181 204 177 206 190 192 206 163 186 192 186 193 196 200 198 204 184 198 201 203 207 205 205 265 247 254 258 198 199 251 227
253 273 312 312 303 321 342 307 195 209 228 209 197 198 197 194 176 212 195 169 182 192 183 186 188 196 189 201 187 191 176 201 188 194 195 188 209 195 230 247 240 236 217 206 239
235 301 304 302 289 305 329 267 279 232 265 180 206 245 178 216 228 181 191 190 208 200 181 187 192 196 196 208 182 188 192 187 186 192 199 197 207 209 222 226 219 241 220 211 229
228 304 296 299 289 285 269 280 268 260 254 242 244 243 222 222 224 208 199 170 217 192 182 192 187 187 188 188 193 191 196 194 173 187 197 196 192 201 212 206 274 261 236 253 204
295 283 274 278 261 284 275 276 258 239 241 240 241 231 199 206 199 191 199 183 206 205 182 198 182 180 187 195 185 186 197 189 179 184 187 195 196 196 211 211 210 251 224 269 242
268 279 276 252 254 277 273 259 235 241 242 238 223 223 209 225 187 191 198 208 203 189 189 191 178 185 183 195 200 188 200 177 180 175 176 182 183 193 197 201 208 203 267 255 270
252 278 282 275 252 274 264 251 233 224 228 223 226 215 200 214 186 213 198 208 194 196 193 188 185 185 179 195 195 185 181 188 186 182 183 179 179 187 196 193 200 206 220 256 260
260 269 257 275 263 264 258 240 238 217 231 221 219 220 215 197 213 206 202 210 196 193 200 186 187 176 182 189 194 194 180 190 183 171 178 174 177 184 186 192 195 205 203 226 251
270 275 269 258 251 266 263 239 235 246 227 223 213 210 204 191 187 199 209 202 201 195 194 194 176 191 175 168 190 203 185 175 179 168 165 167 171 189 178 182 188 198 199 204 212
281 281 282 264 272 263 263 251 231 241 223 219 196 211 216 208 209 212 202 200 199 195 190 197 189 177 190 193 193 186 164 153 175 179 160 163 162 166 181 183 175 203 191 196 199
293 301 279 258 278 259 256 262 239 235 222 230 226 206 202 222 216 211 210 197 204 205 199 187 193 186 195 158 189 183 199 191 180 162 161 174 179 171 179 185 180 181 200 188 197
287 278 289 270 284 269 257 261 244 239 223 229 223 211 208 221 205 215 207 199 204 205 193 191 195 191 189 179 197 186 192 184 158 181 156 179 180 173 175 187 178 177 186 193 178
318 291 276 284 277 280 266 249 257 241 226 228 220 217 209 212 218 214 206 199 189 200 201 203 190 187 192 200 203 194 189 192 197 197 167 175 154 181 182 169 187 173 191 200 189
442 417 352 272 280 295 271 260 241 248 227 215 213 217 205 217 219 221 217 214 199 204 208 194 196 195 197 191 185 191 190 181 195 196 176 192 157 187 173 187 185 183 171 187 195
447 456 443 337 300 279 278 261 251 238 232 233 221 224 223 222 216 219 216 214 216 220 204 201 197 194 186 194 196 178 190 184 193 187 174 193 163 199 183 198 168 189 180 174 193
429 436 191 345 281 260 285 258 252 248 242 231 235 227 215 227 180 129 216 206 202 207 204 208 200 196 199 202 201 196 179 194 183 186 161 180 184 192 183 192 171 162 180 175 177
410 415 408 367 295 282 289 267 231 248 252 253 206 181 228 225 222 230 216 218 213 201 211 200 199 195 192 191 203 175 193 183 195 182 160 177 169 169 182 187 179 176 190 177 188
397 404 400 383 288 281 262 277 260 232 241 257 249 236 235 229 227 242 230 207 227 205 208 213 215 209 204 201 195 202 199 185 195 178 206 167 162 160 206 177 167 195 190 189 173
390 393 383 103 127 281 92 89 265 259 252 247 240 254 232 245 236 222 221 223 220 227 199 204 204 203 201 197 195 196 203 195 193 208 213 186 201 189 189 176 186 192 197 186 178
370 375 378 383 365 283 278 258 272 260 245 245 134 247 250 245 247 221 221 218 220 221 222 209 202 209 197 196 198 199 197 203 206 200 204 220 208 191 191 191 161 167 194 181 183

GFSSW_2pvu_pres_063.txt.gz
Presure
183 168 166 147 127 185 184 201 185 186 200 194 202 183 191 180 206 197 189 196 193 200 169 202 214 205 207 211 204 206 219 167 210 216 228 220 228 244 234 244 234 284 272 263 240
154 156 195 185 166 165 184 175 180 161 175 186 179 203 211 186 198 172 190 193 199 189 195 192 210 195 199 194 201 145 201 215 219 212 208 220 237 188 196 317 266 251 254 258 230
203 203 187 188 170 218 203 220 125 175 193 219 208 177 177 201 202 156 203 193 194 198 194 189 196 195 183 190 141 224 198 156 201 208 225 217 209 231 229 220 260 253 262 253 228
204 204 190 208 225 202 200 193 198 204 217 225 211 217 178 201 191 212 209 184 204 183 178 184 201 197 143 192 198 142 215 214 207 211 205 210 216 219 233 280 259 245 258 220 193
195 196 144 149 199 205 190 213 199 224 237 202 228 239 178 161 198 204 188 204 184 200 186 198 196 163 156 198 188 214 210 207 209 200 200 208 220 223 230 279 257 239 222 213 214
196 196 191 136 211 162 198 240 218 228 231 199 227 200 214 185 216 189 183 193 198 197 181 196 199 189 186 193 194 212 210 211 199 196 201 203 209 223 216 270 252 258 241 188 203
195 211 192 206 208 234 266 210 154 304 258 177 242 236 195 218 219 183 198 172 185 194 202 199 199 195 189 190 174 214 190 208 195 194 177 206 201 210 218 250 270 256 236 188 202
188 218 217 219 224 248 249 172 260 221 344 354 220 211 159 215 217 203 183 167 190 194 197 196 173 203 192 164 183 202 187 195 190 187 187 198 210 197 212 192 269 246 228 241 200
219 228 223 190 240 237 238 250 305 320 306 334 316 291 219 210 191 201 189 204 190 194 187 207 190 165 190 189 200 199 186 190 184 194 179 191 209 207 205 218 243 217 253 220 208
228 238 226 242 309 237 314 317 312 296 309 300 338 285 217 188 201 202 180 213 194 198 189 208 173 180 168 189 197 192 193 187 190 183 187 177 192 194 207 212 198 251 269 255 251
233 248 316 223 311 306 308 295 308 285 307 348 357 231 239 219 210 191 174 202 202 198 225 193 165 176 194 189 191 192 197 193 186 189 185 185 190 200 197 195 186 213 251 222 252
230 260 218 270 306 296 295 285 287 275 296 309 285 271 233 235 212 206 210 222 195 232 211 164 170 190 199 181 190 194 200 186 191 186 188 184 184 193 198 198 202 200 172 253 218
241 281 245 270 298 285 267 289 271 283 294 280 275 258 258 243 207 220 218 213 223 226 198 193 201 202 195 188 187 194 198 187 190 189 179 185 175 187 190 195 197 210 209 210 274
305 262 305 284 284 286 254 295 267 274 281 264 261 247 250 239 235 221 231 217 221 208 198 197 194 201 196 186 186 184 212 191 187 185 179 192 175 165 182 193 197 190 207 208 217
301 297 291 279 273 261 256 295 269 265 282 243 248 237 235 231 225 221 222 212 202 198 192 185 204 197 194 190 186 178 194 193 188 192 179 187 176 173 180 186 189 180 197 196 201
286 280 270 266 275 263 264 263 266 271 261 246 222 242 231 226 231 214 219 205 210 198 185 208 205 197 197 188 186 152 187 199 194 186 178 187 172 166 174 175 188 184 186 203 201
290 283 289 271 276 284 268 258 271 279 257 245 226 229 229 225 209 215 212 206 201 201 213 201 201 196 191 185 179 186 187 190 200 180 183 180 168 176 167 171 179 189 172 186 201
293 292 284 281 283 289 288 268 284 282 249 236 229 220 225 214 213 212 198 210 204 216 207 200 209 198 191 190 186 138 185 196 198 195 168 173 170 190 179 169 170 179 182 179 189
294 294 290 294 296 303 302 327 297 276 253 238 220 221 226 213 203 207 211 217 206 211 208 187 203 197 196 194 163 184 177 188 187 183 166 197 166 168 155 187 178 178 191 179 175
287 286 279 284 285 286 296 315 309 271 249 235 223 215 227 219 212 215 206 196 190 194 201 205 201 203 199 193 193 192 170 182 185 186 186 175 176 162 158 166 160 186 177 185 181
277 280 274 278 290 294 304 294 316 266 259 237 235 231 229 225 213 209 163 206 198 199 203 199 200 191 195 202 190 192 189 185 196 182 175 189 191 166 196 182 172 197 195 187 180
321 336 347 352 366 368 307 294 302 273 264 238 233 240 232 223 216 216 207 220 206 199 204 212 209 197 200 200 204 188 197 184 197 184 177 185 187 168 194 170 197 188 177 169 190
333 334 353 170 403 451 459 460 280 283 257 253 240 236 221 217 225 222 206 205 210 206 207 198 204 197 198 200 198 204 194 186 195 180 191 183 184 187 195 190 198 169 207 205 178
363 347 369 79 149 432 450 455 278 294 269 263 244 235 229 231 226 223 230 215 218 198 214 209 204 209 198 194 199 205 204 193 193 176 183 184 185 180 189 188 188 156 165 197 179
370 346 359 379 403 421 428 432 283 295 277 253 258 243 237 226 227 223 220 211 211 212 210 219 212 203 197 191 207 197 197 196 183 193 177 190 183 182 184 188 163 152 157 192 192
318 340 357 368 396 405 414 411 284 273 281 259 252 259 241 235 229 233 226 218 211 209 212 216 221 217 205 199 214 202 196 193 206 204 194 177 189 185 180 174 192 162 183 160 191
334 343 362 365 387 90 83 82 242 275 276 262 122 248 251 244 229 224 233 226 231 219 223 217 217 210 208 207 203 205 204 201 199 199 200 201 186 179 195 187 200 213 186 194 204

GFSSW_2pvu_pres_069.txt.gz
Presure
190 180 174 176 187 184 181 181 180 178 184 183 186 190 180 180 181 181 202 195 195 196 199 205 190 213 176 197 188 192 191 196 198 198 189 208 206 209 230 186 212 214 240 237 277
183 179 186 189 184 183 188 184 187 179 190 184 194 192 190 190 203 206 209 195 176 190 210 190 191 174 189 202 193 210 208 178 190 200 201 209 205 209 198 171 216 218 232 190 244
183 180 180 182 178 185 183 176 143 186 182 186 188 192 191 200 202 194 220 184 206 208 190 192 173 193 160 180 183 204 195 217 178 198 206 209 190 194 213 215 213 218 204 257 279
182 188 183 190 179 191 173 189 189 194 191 212 216 188 212 201 194 191 217 150 199 191 222 171 209 230 187 185 205 172 205 179 197 195 188 198 190 198 217 207 217 218 214 252 269
185 178 189 187 195 194 182 188 198 189 208 199 192 197 210 199 217 216 217 192 219 199 196 169 194 194 233 182 199 167 204 191 186 197 190 189 195 217 210 205 205 205 226 284 254
189 189 189 186 190 194 203 199 189 195 188 204 215 203 204 217 200 227 233 231 243 237 193 226 203 245 234 209 222 208 208 202 199 197 202 198 196 191 204 210 198 215 222 279 258
199 205 207 198 183 204 203 206 187 206 164 151 204 208 209 231 241 176 229 251 175 179 286 246 200 222 187 236 222 207 204 179 203 195 202 198 205 181 195 200 204 210 220 282 257
196 194 194 198 192 195 203 202 203 204 193 208 207 213 229 226 215 239 205 252 374 179 266 227 208 238 234 233 214 207 186 204 198 189 187 195 205 189 196 197 198 210 207 260 218
196 199 198 195 203 202 182 197 179 208 208 194 223 222 215 162 233 165 246 351 247 262 283 307 272 221 236 220 206 194 186 191 196 193 200 184 186 196 196 202 193 206 199 210 242
201 187 197 195 195 200 196 190 203 206 204 210 233 150 258 197 199 201 198 329 348 198 261 264 202 235 245 216 188 195 170 205 194 206 196 191 190 196 188 198 198 192 210 204 216
230 204 205 205 210 213 213 211 209 193 222 249 244 205 221 251 274 264 329 318 327 280 240 260 230 235 217 204 194 208 151 191 181 202 191 192 193 189 196 193 195 187 199 203 214
242 220 222 231 213 232 230 236 226 239 200 240 210 213 210 225 222 296 303 329 356 268 256 240 221 229 217 219 205 196 197 188 183 197 189 186 194 195 193 197 192 187 197 190 206
244 227 226 231 221 241 235 237 238 215 215 225 226 220 259 325 296 292 310 301 288 261 256 217 222 223 211 208 202 197 192 194 185 196 190 180 188 187 199 193 191 183 186 196 194
244 246 240 251 239 239 227 241 230 232 234 232 241 223 327 333 280 285 309 352 265 256 255 221 223 210 212 206 196 194 188 188 177 195 189 184 191 192 189 193 196 185 179 194 196
228 218 239 232 239 209 246 247 228 218 219 228 245 326 317 304 273 270 296 313 250 245 252 220 221 204 213 208 197 194 193 198 191 193 175 187 184 195 189 192 191 192 180 182 193
249 256 244 251 243 247 240 244 240 243 229 246 290 313 297 322 264 274 299 279 251 249 242 212 214 207 188 209 196 187 188 195 189 187 183 186 190 196 185 187 196 189 180 176 183
244 242 241 242 245 243 248 228 245 242 252 267 327 309 273 261 265 275 282 250 239 230 234 214 203 200 205 206 193 184 201 173 191 183 186 184 189 185 190 186 191 185 191 183 172
241 246 252 253 235 232 256 242 266 252 242 336 304 302 260 267 254 277 248 235 238 225 224 222 208 204 206 200 191 190 196 183 190 189 191 186 184 183 198 188 190 186 192 183 171
251 249 242 239 249 252 249 255 256 266 320 314 298 299 254 264 253 260 248 237 236 221 231 223 207 209 207 187 205 216 194 194 187 188 189 188 187 185 182 196 191 197 175 179 173
323 282 263 259 258 263 306 288 317 303 280 299 299 297 255 261 258 254 256 241 223 222 216 226 211 198 204 196 197 222 199 184 194 188 188 186 188 191 181 197 192 188 190 181 191
293 307 305 305 310 317 321 301 276 311 306 299 300 302 248 255 260 255 246 229 226 224 217 217 228 212 204 218 192 193 186 197 187 189 187 185 183 179 187 187 200 197 188 184 174
281 277 268 281 286 273 268 252 294 281 297 292 287 300 267 263 251 256 234 241 228 220 227 214 211 216 200 188 212 211 195 193 181 193 189 188 184 187 188 179 191 195 197 198 194
336 320 295 273 276 284 271 286 276 271 279 285 283 287 278 264 251 263 249 241 231 218 214 212 222 216 225 213 198 205 190 193 200 182 184 186 187 187 183 186 184 187 194 195 194
336 331 321 314 199 195 293 265 277 282 269 271 279 286 299 305 256 268 252 231 228 218 219 210 224 220 226 206 205 195 217 198 198 191 187 191 185 179 186 188 188 186 189 188 195
336 317 319 320 259 280 303 301 300 291 290 294 288 280 295 315 266 269 249 240 228 222 219 211 217 221 223 206 205 206 197 204 197 196 196 191 188 186 187 188 188 184 180 198 186
367 340 323 322 320 319 315 310 311 316 328 342 344 372 295 313 271 256 253 240 230 225 228 217 214 215 216 209 210 200 201 205 190 202 196 175 185 189 191 185 186 190 189 198 191
368 350 331 327 323 322 149 147 312 327 325 336 367 376 405 304 277 259 258 241 224 230 219 235 222 215 207 210 197 201 211 200 197 189 202 195 193 190 191 189 190 188 185 190 192

GFSSW_2pvu_pres_072.txt.gz
Presure
128 195 163 147 187 181 162 178 173 178 182 181 182 187 185 185 183 183 179 190 190 197 193 179 202 219 194 188 208 181 205 202 204 213 180 199 188 181 216 193 213 207 219 222 232
184 182 175 187 186 182 190 180 186 180 186 178 180 184 193 191 189 191 193 199 185 195 199 199 190 210 204 190 191 197 209 182 182 203 203 174 207 202 208 213 206 200 208 221 223
185 180 194 188 187 184 176 177 178 177 172 186 182 188 184 192 180 174 192 190 192 190 225 187 185 201 213 182 203 191 193 178 187 220 192 190 206 159 194 202 211 210 219 211 230
185 181 183 173 185 179 181 181 180 181 184 183 183 186 174 191 187 187 194 205 224 222 221 176 220 198 194 201 207 195 212 194 201 213 162 188 183 180 193 204 197 213 213 222 219
195 199 190 189 189 187 182 179 177 180 177 191 183 184 191 185 192 197 209 220 217 216 164 208 219 228 203 199 198 216 195 190 195 227 209 194 207 218 201 208 201 205 202 203 226
196 194 193 188 187 187 188 189 190 189 182 184 185 189 195 194 183 209 200 217 216 213 222 219 216 170 194 231 178 194 212 189 202 231 178 214 201 210 203 202 206 192 200 201 214
201 199 182 199 196 191 193 183 184 184 185 182 189 198 196 193 209 212 208 202 186 218 207 183 245 181 229 220 142 234 140 232 221 224 210 205 207 205 200 202 204 194 201 204 222
204 203 175 197 204 206 203 205 199 192 198 209 196 206 206 206 207 212 215 205 208 206 224 188 241 262 192 268 233 178 229 221 207 228 208 205 209 199 196 195 179 199 203 202 217
184 204 199 198 194 202 203 207 206 200 203 199 194 197 207 213 214 213 214 228 199 237 201 193 225 367 247 257 278 277 226 211 232 215 200 207 200 204 189 195 192 197 204 200 216
215 216 208 201 198 193 204 206 199 204 203 203 210 210 212 209 207 219 201 202 164 245 231 231 302 343 300 249 257 208 225 230 233 210 200 158 178 197 194 196 197 199 205 195 202
214 221 224 229 207 232 216 211 200 202 207 203 201 203 210 215 212 205 214 209 199 209 283 338 340 296 282 238 278 234 236 227 224 202 199 202 199 197 193 189 194 194 205 198 194
223 223 204 215 214 223 215 217 220 226 211 205 203 203 210 210 222 248 247 255 243 255 333 330 348 275 269 256 233 235 218 229 211 191 199 203 196 199 189 190 187 197 200 198 185
235 227 228 223 237 202 209 220 225 244 229 240 236 227 241 248 246 241 260 244 216 238 319 315 289 266 266 255 232 230 222 218 204 196 200 185 197 202 189 186 189 195 202 190 186
238 240 230 241 241 246 219 242 249 246 245 245 224 220 239 243 197 255 245 219 295 317 323 314 274 266 262 234 229 243 230 209 197 193 166 183 194 176 192 186 193 189 199 190 196
242 255 245 234 238 252 252 249 245 243 240 242 236 246 249 241 259 234 228 234 319 295 284 261 265 267 254 230 226 224 216 209 204 193 194 184 185 189 191 180 188 191 189 196 193
248 239 242 244 240 245 235 233 233 215 230 234 240 244 244 234 251 237 254 357 287 276 319 260 261 251 252 228 223 222 214 207 201 193 191 186 187 183 191 184 186 195 191 190 193
264 259 257 261 243 248 229 238 228 241 237 259 260 240 242 246 252 246 314 341 276 286 338 264 254 254 224 217 225 217 220 200 196 190 182 197 188 183 196 180 183 191 190 186 195
266 254 263 262 256 258 262 262 262 265 249 261 248 250 249 228 267 248 351 296 277 300 247 244 247 247 221 215 219 212 210 200 189 187 192 158 182 190 189 188 183 191 188 189 188
287 280 269 241 248 254 252 250 258 250 252 250 258 256 248 259 254 353 334 278 269 301 250 240 248 263 209 215 217 219 209 197 193 189 179 177 180 182 189 189 186 186 192 190 190
352 316 330 298 270 258 258 258 243 244 243 240 249 240 257 261 319 328 340 269 261 287 241 237 243 244 217 211 214 204 214 195 198 187 183 196 187 189 187 186 186 184 188 185 189
397 428 310 302 315 327 288 265 256 261 262 262 266 257 262 321 334 324 278 271 254 284 243 232 245 232 211 215 207 200 217 197 196 186 180 190 190 189 189 190 185 184 182 186 196
427 398 365 361 290 298 309 309 308 307 313 291 312 312 317 312 322 328 315 268 271 242 245 234 236 237 221 210 199 197 199 197 187 179 198 186 192 190 189 187 187 177 182 190 181
432 373 401 371 351 294 275 280 295 291 302 304 312 309 282 310 316 322 273 266 261 239 229 237 220 233 221 205 201 201 216 199 197 192 197 198 191 189 194 185 190 188 186 189 184
428 368 385 375 358 335 322 279 273 273 281 282 267 259 286 309 305 320 270 272 258 238 237 230 223 230 232 213 207 199 202 200 200 203 196 191 187 195 191 187 182 191 187 181 180
419 355 372 371 356 334 324 315 311 267 262 263 263 260 282 283 294 315 265 273 251 251 242 236 222 217 227 217 208 208 204 199 197 213 203 195 191 194 188 187 187 190 188 186 187
381 346 369 368 353 340 330 322 316 307 307 300 299 293 278 274 288 304 266 262 263 256 247 227 217 212 212 224 204 200 203 206 195 198 205 201 194 196 195 191 188 187 190 188 181
340 348 370 360 346 338 198 319 207 315 306 310 305 278 284 293 281 295 314 253 257 248 244 229 220 222 219 217 224 203 207 208 203 196 208 192 198 189 195 194 190 190 190 188 192

GFSSW_2pvu_pres_075.txt.gz
Presure
191 196 196 191 194 201 197 197 195 188 198 190 149 160 190 144 191 189 189 183 197 193 189 185 184 187 182 182 193 190 203 190 176 211 196 208 206 204 217 169 147 167 196 196 228
204 192 199 195 185 202 190 168 160 140 167 163 171 175 177 180 159 180 185 186 187 191 191 194 192 192 193 193 202 203 191 199 197 194 209 211 211 196 219 185 214 209 197 197 210
192 206 184 202 195 183 186 192 188 185 186 179 193 183 183 191 186 196 191 185 186 189 193 190 196 204 186 182 207 235 230 207 212 202 205 190 194 214 214 204 215 224 210 215 214
119 193 205 185 130 195 186 183 199 186 184 185 183 187 180 179 185 180 184 204 203 195 201 182 185 120 204 207 220 218 203 214 200 218 228 215 188 203 198 201 221 210 205 219 207
211 174 193 203 190 193 200 191 186 182 184 177 193 190 185 184 187 180 184 189 188 187 190 187 183 210 203 217 221 218 213 208 202 138 196 236 211 207 185 182 204 222 218 213 215
210 218 193 202 200 184 194 198 194 193 184 185 186 190 186 185 189 191 186 187 191 191 192 196 209 204 207 225 230 200 202 209 238 145 243 249 247 211 185 218 200 204 207 211 215
207 202 213 212 204 194 193 182 188 196 198 200 186 190 186 195 189 186 194 187 190 195 193 199 203 219 219 234 201 228 229 208 270 234 235 219 237 227 233 214 209 219 208 205 185
218 205 196 206 183 211 205 205 193 194 180 193 201 197 196 187 194 192 192 195 196 192 194 199 225 223 234 192 201 196 266 221 178 135 271 249 184 234 234 208 208 206 206 203 194
222 214 201 215 206 200 197 206 214 206 205 212 180 183 200 199 198 194 192 194 199 207 212 206 225 227 227 236 241 245 236 246 242 315 239 244 226 226 225 205 212 206 201 203 191
224 228 208 216 215 216 203 198 207 207 198 210 208 211 210 209 209 200 216 207 212 216 219 219 220 227 166 209 219 229 217 297 298 279 227 241 226 226 216 203 200 197 201 197 185
229 234 237 205 213 205 204 214 207 212 213 209 202 201 202 212 205 201 210 209 208 213 216 231 158 238 168 247 227 361 198 304 295 280 250 252 233 230 209 187 205 198 199 192 192
239 236 232 231 215 221 201 209 212 222 201 212 209 204 211 207 207 206 209 210 213 213 211 205 221 215 210 264 262 332 301 301 254 242 241 229 234 224 205 201 192 201 197 185 192
258 244 232 235 225 225 231 213 223 196 226 219 217 213 222 219 213 236 224 213 232 230 198 211 227 225 206 310 359 295 299 185 231 221 236 240 222 217 209 195 205 197 196 187 192
260 277 249 252 237 245 231 222 229 231 232 233 221 220 215 216 222 228 219 212 244 238 256 246 221 235 244 327 286 298 306 291 237 234 254 231 219 207 211 202 199 196 197 192 190
254 254 254 262 268 247 246 248 247 238 240 248 226 229 230 235 226 235 253 257 253 250 260 274 259 256 326 322 274 255 282 265 236 230 242 220 211 199 188 203 197 198 188 188 191
269 267 261 257 251 254 260 262 264 273 264 258 257 244 242 243 249 250 244 246 243 251 260 275 246 379 296 346 256 261 260 234 229 224 226 214 195 199 167 187 193 197 185 188 190
296 290 283 279 272 259 256 252 251 246 236 250 250 244 237 242 242 243 237 230 238 244 266 250 253 331 288 325 264 257 225 225 231 232 210 211 202 176 180 200 195 193 186 186 191
307 320 334 313 279 280 273 270 270 246 242 241 253 250 237 240 232 237 247 238 248 265 239 261 366 290 344 272 257 262 223 214 237 220 210 199 206 194 178 182 197 191 189 186 194
403 411 400 309 332 302 287 277 279 267 247 247 249 239 234 239 238 243 260 273 260 225 258 302 328 295 277 248 260 231 214 220 233 212 207 201 199 199 197 201 188 188 188 186 190
367 374 388 451 390 306 336 334 268 268 263 262 259 264 259 256 267 264 281 280 273 259 251 360 284 311 261 245 249 227 215 221 220 213 206 199 197 187 179 189 193 187 188 186 187
357 365 353 393 416 403 416 297 326 271 264 254 255 260 263 259 260 256 253 248 242 265 344 332 278 279 251 238 235 224 214 223 230 211 207 198 192 178 184 186 187 189 185 190 186
360 356 341 367 424 401 419 403 309 309 281 268 267 260 251 248 256 262 263 267 282 324 346 257 275 266 250 243 234 218 211 209 226 211 204 194 192 195 189 188 193 188 186 190 191
371 413 536 480 454 398 393 385 355 300 302 316 312 287 275 267 265 270 279 297 330 336 334 260 244 238 247 240 234 216 207 220 216 205 206 196 197 191 182 181 176 183 189 189 190
463 462 470 444 391 378 385 376 350 327 283 275 302 309 311 308 312 312 314 321 328 331 273 256 242 239 234 234 228 217 209 207 208 221 199 196 191 191 187 197 192 193 191 187 162
460 427 418 387 361 362 397 362 335 326 314 283 275 285 300 298 297 314 315 315 298 330 261 250 242 237 232 242 230 221 208 208 214 202 192 199 195 193 187 190 202 190 188 195 184
424 407 405 379 358 352 363 355 331 323 319 303 276 271 285 280 303 313 267 278 326 328 256 235 248 229 229 234 228 223 205 209 209 198 215 194 177 187 186 191 196 205 193 185 180
406 410 394 367 353 356 361 343 329 322 319 313 303 290 276 269 269 263 259 295 315 331 261 237 252 230 223 230 226 223 212 201 206 203 200 223 193 190 199 189 198 197 192 193 193

GFSSW_2pvu_pres_081.txt.gz
Presure
193 190 210 193 220 199 240 197 214 207 199 211 208 183 183 211 196 201 191 170 169 182 189 183 161 139 140 146 207 195 190 156 158 202 191 198 200 205 199 199 200 190 197 200 224
195 183 203 189 189 186 227 241 229 210 208 202 208 208 196 182 185 204 201 191 170 192 158 189 187 197 197 196 186 194 190 193 205 200 197 201 209 196 207 191 187 197 192 229 217
176 203 191 202 187 208 135 232 219 233 203 204 202 203 209 197 182 195 141 198 189 196 186 194 197 176 187 197 193 211 202 197 203 193 173 178 187 191 187 184 192 193 197 206 210
208 212 198 210 173 206 171 234 229 228 227 202 161 195 196 188 193 198 193 190 190 196 197 199 196 191 202 207 196 194 206 203 177 182 193 185 191 198 200 195 192 210 220 227 219
181 203 175 190 196 205 221 194 218 224 214 187 197 202 199 193 199 193 193 194 195 194 191 207 175 181 189 184 203 201 192 195 190 186 187 195 194 189 203 196 205 207 193 179 153
203 201 208 205 205 224 216 238 230 232 221 215 214 209 207 174 200 194 181 181 187 199 207 197 190 193 193 207 210 195 189 186 195 193 202 197 196 204 178 220 223 217 231 219 262
201 189 220 187 171 237 250 242 230 173 208 221 211 212 210 209 205 191 194 196 190 196 197 200 198 194 191 194 195 196 199 199 193 200 198 204 201 210 223 223 225 184 202 233 261
212 221 216 215 243 260 265 247 231 234 230 200 215 218 206 217 208 211 206 194 200 204 184 189 195 200 200 200 195 200 205 204 205 209 210 199 222 233 212 221 233 225 201 340 256
218 207 226 262 285 273 273 242 253 236 245 224 201 211 212 213 213 199 200 205 198 196 200 199 192 191 188 192 189 189 196 201 198 194 203 233 66 203 232 244 197 279 286 217 251
222 241 241 301 289 276 287 255 261 238 242 234 221 217 209 214 213 210 213 211 203 205 200 199 199 199 197 198 195 198 207 209 214 212 206 241 234 258 260 198 285 362 256 227 227
237 237 308 299 277 273 267 258 252 259 246 232 231 222 223 207 225 212 221 207 198 214 206 197 197 205 202 210 216 216 201 240 217 225 189 256 254 160 275 356 386 358 216 215 246
234 286 292 285 299 297 275 258 260 261 256 250 234 235 249 241 213 217 214 218 217 212 215 201 211 214 218 204 224 228 221 216 231 165 251 207 247 299 343 322 363 301 233 252 238
255 282 287 283 276 282 288 284 274 261 253 241 253 237 241 247 237 229 216 223 206 226 207 215 212 208 209 219 222 218 212 230 236 253 240 264 310 193 157 290 317 246 212 246 228
296 290 288 277 278 288 287 281 282 277 278 260 248 240 242 236 229 232 234 220 219 220 212 222 209 206 223 215 227 228 233 229 225 237 258 267 286 372 315 330 244 215 237 222 218
293 293 297 310 277 277 280 300 289 278 289 271 268 256 260 247 229 228 237 236 232 226 229 225 215 215 205 225 219 226 218 232 243 256 288 218 363 151 314 248 209 233 225 216 164
299 305 333 324 322 317 330 320 330 284 219 270 273 264 256 249 241 238 231 227 234 232 229 233 231 225 228 225 220 222 231 245 261 290 149 209 378 297 157 212 225 222 216 214 206
290 304 311 331 350 413 420 333 347 358 263 267 273 260 267 251 255 246 242 238 235 228 233 233 232 232 229 224 226 237 224 265 269 274 262 339 331 293 232 218 226 230 221 214 207
276 306 328 346 397 394 391 408 443 483 322 333 280 264 260 257 262 262 251 246 247 237 238 234 228 234 235 233 244 247 263 266 274 267 264 339 335 278 224 223 226 227 219 213 203
302 328 331 345 371 364 374 380 381 398 416 410 329 310 265 265 257 258 262 259 260 257 244 245 244 241 241 244 251 261 257 266 267 266 334 320 277 239 223 220 227 227 216 206 192
310 329 321 359 345 339 348 376 355 363 405 419 365 334 312 266 266 258 250 250 244 248 252 250 249 253 263 256 261 258 259 256 275 346 317 295 231 228 213 217 221 216 208 206 190
321 320 376 344 331 324 354 348 358 350 285 417 287 320 332 316 269 271 260 247 244 244 247 245 244 246 249 257 256 253 253 254 265 347 286 231 221 216 220 216 212 211 200 193 181
327 398 350 335 317 343 344 390 359 342 353 404 381 363 319 293 328 299 275 254 246 244 245 241 245 240 243 251 252 250 256 270 308 293 260 238 215 218 223 214 208 206 200 201 189
372 357 334 314 335 348 432 402 360 347 343 363 387 337 329 304 345 320 291 282 262 254 248 251 248 243 241 248 250 257 260 252 324 283 293 233 214 224 224 210 208 201 199 203 195
384 331 307 328 354 452 430 399 362 342 344 353 383 345 322 328 299 299 331 317 287 269 261 248 244 249 250 257 258 257 244 276 305 277 264 216 210 223 221 203 205 202 194 190 189
344 309 315 356 453 449 506 397 368 333 336 347 383 358 316 321 324 305 288 315 308 279 268 268 267 264 265 259 266 255 245 308 284 249 246 221 210 212 211 210 202 198 192 189 189
311 302 366 357 425 412 412 407 414 351 335 339 378 346 331 323 322 313 295 310 301 288 268 264 271 275 272 277 276 237 267 300 272 254 224 208 206 212 210 204 207 194 197 194 192
299 338 353 407 406 391 377 373 371 386 370 377 374 365 341 336 326 325 292 275 300 307 301 288 262 265 266 265 264 273 329 295 266 254 215 212 206 201 212 215 206 198 193 189 188

GFSSW_2pvu_pres_084.txt.gz
Presure
188 164 175 192 193 178 197 184 224 181 221 229 251 217 215 211 211 204 203 211 211 204 198 202 175 153 199 197 204 153 177 194 192 160 170 144 211 205 201 172 198 206 209 203 200
197 193 191 196 183 184 188 221 198 125 215 201 211 222 214 208 202 210 204 202 161 178 179 193 192 193 201 189 170 196 182 172 169 174 184 193 204 203 178 207 207 179 182 184 183
170 199 185 194 190 187 181 192 183 196 212 186 224 194 224 211 209 198 213 182 211 196 209 182 205 177 195 159 192 202 198 209 148 193 194 192 197 201 208 214 187 196 190 192 194
187 180 176 190 183 196 186 182 190 190 184 204 208 229 221 223 209 204 188 199 197 196 199 197 188 187 181 204 206 194 185 187 190 186 187 196 192 178 194 186 191 190 197 198 189
185 179 188 206 197 203 212 205 211 196 214 210 198 214 217 232 220 209 204 193 199 196 183 199 200 196 188 188 194 183 193 202 199 195 198 184 187 214 145 186 190 208 192 194 200
186 185 195 208 191 202 216 201 218 217 209 216 186 241 206 212 164 228 167 196 182 175 189 196 195 191 203 195 193 192 189 189 205 197 187 207 210 210 198 193 197 200 205 196 212
200 208 198 195 222 220 211 204 228 215 248 304 208 247 207 211 195 213 120 207 196 203 188 192 193 196 196 179 199 199 200 201 196 202 202 196 198 199 216 208 213 192 211 211 217
205 195 209 209 206 235 229 214 237 217 306 290 265 257 237 224 222 218 219 217 209 198 193 207 195 198 195 194 194 188 195 204 209 205 203 204 199 199 199 207 205 201 210 224 233
224 202 217 210 222 200 217 242 241 316 295 306 264 254 241 225 225 219 208 217 218 218 211 212 202 204 205 196 197 199 201 190 191 197 201 196 188 103 180 211 215 206 225 236 274
208 224 222 232 215 220 242 328 321 316 294 286 276 257 234 235 223 225 220 210 213 204 214 204 209 208 214 207 205 204 204 206 207 201 207 219 175 220 138 222 228 239 240 266 282
221 228 216 232 237 237 272 314 312 309 318 286 282 269 250 234 231 228 217 212 219 213 206 217 222 205 206 206 209 208 212 212 207 197 197 201 230 197 229 205 211 235 202 294 407
222 227 248 241 234 303 304 307 314 307 309 293 275 268 260 252 241 229 236 214 217 207 214 225 212 220 214 200 206 206 215 212 212 208 221 226 220 233 218 217 218 230 284 398 376
220 213 243 229 300 265 301 305 298 304 304 297 292 269 267 257 251 230 243 226 220 215 211 212 211 221 226 217 212 213 221 207 218 208 209 220 243 219 220 156 268 285 354 365 266
234 270 256 304 315 303 307 301 308 303 338 125 277 287 267 258 261 232 245 238 224 219 224 227 220 206 216 224 219 223 218 219 218 216 217 231 226 149 204 250 284 257 288 271 246
231 240 270 316 307 306 312 299 347 341 349 337 314 288 271 282 257 255 247 235 236 228 228 225 227 237 220 214 222 220 226 228 224 216 213 210 235 145 206 288 262 371 344 259 239
249 272 311 319 306 290 311 330 320 364 395 369 279 222 281 273 280 253 255 251 238 232 234 238 240 237 240 239 229 220 215 220 238 240 239 215 235 186 182 272 283 342 288 235 224
276 309 312 305 298 309 312 302 355 380 413 444 457 332 314 282 278 264 263 247 246 250 239 237 237 233 232 234 238 237 234 231 238 244 241 232 245 250 177 273 339 321 215 223 238
284 312 301 292 320 305 329 342 351 377 380 385 424 442 341 305 284 269 272 266 259 253 236 238 226 223 229 230 232 233 233 231 237 241 234 238 273 248 170 320 336 285 229 237 235
310 301 292 274 303 322 330 347 371 350 353 374 392 467 365 332 296 284 270 270 271 264 256 251 243 236 236 236 231 228 228 237 234 234 238 261 280 224 285 313 286 240 231 235 217
301 288 273 297 320 326 365 382 350 338 339 354 375 286 293 331 326 288 277 265 263 263 252 251 242 238 237 236 240 237 233 234 245 247 257 278 252 228 295 308 255 237 231 224 209
293 285 297 315 331 327 400 357 336 324 331 345 367 400 415 368 302 330 282 265 263 252 261 260 254 249 251 253 239 245 243 250 255 181 271 247 257 358 285 295 247 230 224 224 209
310 297 307 340 328 446 362 333 319 317 345 348 365 361 398 384 327 273 310 278 262 257 252 249 248 251 254 257 260 259 257 259 267 267 255 253 245 278 299 267 240 220 214 222 211
296 317 334 386 447 372 338 311 318 358 348 357 367 352 386 372 328 338 277 310 280 260 254 248 240 239 243 247 248 251 249 250 257 255 247 256 297 275 296 247 226 207 212 219 212
323 413 477 404 358 329 310 339 362 420 421 386 358 343 360 346 331 314 321 300 302 284 258 255 245 247 243 246 250 246 246 251 247 251 263 261 296 273 273 228 218 210 209 214 207
335 399 358 338 319 308 374 455 442 415 395 372 350 348 340 334 322 304 305 292 303 304 283 258 261 251 246 244 244 248 246 252 254 260 265 281 286 264 229 219 207 211 208 208 209
358 336 325 313 301 368 454 438 415 388 373 360 341 337 338 334 337 316 309 314 288 298 307 292 282 266 257 253 254 248 252 258 264 269 258 310 281 241 227 217 207 211 207 203 206
331 320 309 294 369 423 411 395 391 379 366 344 334 369 340 323 325 328 316 309 331 278 323 306 292 278 276 279 263 262 256 263 273 263 276 269 246 234 232 215 209 210 203 200 202

GFSSW_2pvu_pres_087.txt.gz
Presure
125 142 151 180 194 170 188 194 194 197 191 192 190 187 194 223 198 185 232 203 218 221 214 219 199 208 210 198 186 199 159 195 202 187 180 195 160 132 170 156 199 199 135 205 213
169 166 155 132 164 182 182 181 185 181 185 206 195 182 201 201 195 217 243 174 219 213 214 210 207 212 204 209 204 209 210 166 198 179 153 171 209 188 177 182 175 179 214 213 190
127 136 178 193 188 178 177 182 196 184 186 186 203 188 196 212 200 201 230 238 197 189 210 212 201 199 214 208 204 202 194 204 193 197 198 199 158 144 199 82 213 206 189 198 192
149 165 181 200 192 192 171 186 189 184 184 180 190 183 213 201 205 194 211 195 237 191 179 209 203 208 197 199 204 201 199 195 189 202 193 180 175 194 185 161 183 188 188 189 201
176 160 184 180 192 196 192 196 195 191 194 198 195 197 208 201 214 226 206 143 239 228 189 202 207 204 206 200 205 196 197 192 201 200 194 202 206 204 157 191 160 204 203 206 203
184 209 203 208 207 186 215 200 201 203 202 196 200 196 210 221 223 226 206 196 225 206 222 204 208 201 201 199 201 201 193 197 198 188 182 195 190 198 186 185 190 205 189 145 207
221 206 207 205 191 210 219 223 215 208 205 198 232 201 219 198 242 237 231 230 223 228 233 211 206 203 198 194 200 198 195 195 191 187 196 198 187 191 192 198 201 204 211 212 197
209 221 209 221 216 221 223 222 226 228 215 207 240 265 278 290 196 240 218 212 243 225 207 231 215 201 197 200 188 200 194 191 187 197 187 194 194 193 200 199 200 217 207 187 208
216 213 221 225 215 219 224 228 241 249 281 290 280 267 325 304 285 281 275 253 243 222 226 225 210 214 202 201 203 192 195 194 188 196 198 197 177 191 201 205 205 200 198 206 208
222 218 220 224 232 228 227 236 244 256 247 291 324 313 323 313 291 285 273 258 239 233 222 220 218 222 208 210 200 203 202 202 195 194 198 198 195 107 94 208 207 205 175 201 227
216 220 218 223 228 229 220 255 245 266 296 331 307 306 308 309 293 273 273 256 240 235 222 220 215 215 221 218 208 209 205 199 197 202 207 210 200 205 199 224 216 93 217 212 218
225 222 223 222 238 224 237 241 251 281 303 305 306 308 309 302 300 278 276 255 246 237 224 224 222 220 211 220 218 214 207 208 202 217 217 214 218 107 220 216 215 210 208 221 214
224 225 221 231 235 241 242 256 260 330 338 188 198 310 315 323 304 287 285 259 250 240 236 227 224 227 224 217 221 218 217 217 212 210 208 212 163 200 208 214 216 210 215 213 182
219 225 238 234 248 233 251 252 287 339 169 311 326 327 330 294 314 300 286 275 251 249 235 234 227 223 226 221 221 214 213 209 222 222 219 222 222 211 203 210 224 219 230 208 228
221 236 217 235 244 242 243 263 329 330 307 294 340 339 325 338 362 334 302 286 261 251 242 235 231 220 232 224 223 218 218 213 212 218 214 224 235 217 218 223 225 227 236 229 243
230 227 244 248 238 241 247 270 329 308 322 322 353 367 365 399 190 314 305 297 271 266 248 236 237 232 228 229 219 217 217 216 215 216 220 212 216 229 227 221 221 250 238 243 292
233 228 228 251 234 246 270 325 320 298 324 361 339 259 408 419 436 331 332 295 289 269 265 246 238 237 228 236 231 225 218 221 224 230 230 240 233 232 221 231 194 242 252 290 256
231 254 251 227 259 295 319 309 329 324 324 349 344 399 383 401 440 378 330 292 291 275 264 255 252 248 230 233 237 232 226 228 227 252 242 242 241 242 240 231 212 155 279 331 341
231 242 254 265 256 320 314 330 317 324 348 338 413 374 357 389 430 401 318 303 285 283 267 259 257 252 244 235 241 235 233 233 236 243 232 225 236 240 238 196 247 288 269 326 185
244 259 257 316 318 314 321 317 348 345 343 392 376 350 338 367 442 247 335 326 284 278 275 272 259 255 249 244 242 242 229 229 242 237 227 231 233 236 234 247 267 207 321 301 261
258 267 308 314 309 319 315 509 497 472 456 389 347 326 329 362 416 376 350 323 306 274 269 266 259 257 251 244 241 238 243 252 240 242 231 235 235 236 239 170 260 304 301 262 253
281 306 317 305 312 364 406 423 422 405 384 345 316 177 346 366 371 333 362 312 318 278 266 267 258 259 260 257 248 252 256 248 252 239 239 239 236 243 259 261 251 321 273 243 237
298 312 306 309 341 371 352 345 334 327 324 314 322 349 352 362 367 326 309 341 304 291 265 259 260 259 260 260 260 259 258 258 246 244 251 268 243 261 259 247 319 288 253 239 228
311 303 303 302 374 345 334 322 307 323 351 375 373 351 340 358 372 329 315 343 276 311 292 267 257 258 256 255 259 263 264 264 265 263 264 255 253 243 253 250 296 273 247 238 206
292 301 300 379 346 329 326 303 493 487 451 449 445 401 366 391 344 324 307 302 292 242 314 282 266 260 261 254 251 251 256 257 249 253 253 244 238 255 247 287 278 268 245 234 230
285 297 331 352 329 318 381 442 426 417 412 418 400 369 346 344 330 315 317 307 281 293 289 345 282 270 261 262 254 252 246 245 244 260 247 241 239 243 266 283 281 264 242 231 223
300 281 342 331 318 357 427 416 408 395 392 379 358 343 342 357 315 300 290 301 292 319 317 279 298 284 271 261 253 247 247 246 242 248 245 246 230 250 274 277 278 260 235 225 219

GFSSW_2pvu_pres_090.txt.gz
Presure
176 143 174 179 130 163 151 181 163 156 181 175 152 164 200 194 177 134 206 206 213 178 188 205 184 169 170 210 152 214 223 227 216 212 217 218 193 183 149 172 189 208 204 195 156
129 176 161 178 153 148 141 200 160 165 185 199 191 203 190 186 191 195 206 212 195 211 201 190 223 224 201 225 206 179 205 206 210 207 212 214 215 153 211 159 160 159 152 170 201
138 209 191 166 176 197 203 142 190 166 173 197 198 194 191 184 191 198 201 195 201 211 227 232 213 179 225 217 222 218 213 205 204 205 205 206 210 209 211 202 207 204 200 201 201
140 138 207 192 155 209 191 144 195 176 195 197 189 195 195 204 204 210 209 201 211 205 197 209 230 184 214 191 196 218 178 207 177 203 205 206 198 212 206 196 205 199 195 198 190
212 181 132 138 203 206 210 208 165 211 205 194 202 198 221 196 199 206 199 206 212 201 206 209 228 163 214 197 201 198 212 210 201 198 206 192 197 198 199 200 198 188 202 198 206
216 146 198 163 116 208 218 210 224 212 201 212 194 218 217 216 217 204 203 225 211 201 217 206 200 233 198 217 213 219 210 185 211 199 211 201 187 200 201 191 198 194 161 194 195
211 223 210 224 210 223 215 220 225 227 232 208 216 222 194 203 243 235 201 253 216 210 213 214 213 222 232 224 185 213 210 200 198 205 200 200 201 197 194 203 196 192 190 193 185
141 217 204 224 161 224 219 160 227 239 220 212 220 235 224 246 246 251 300 292 280 232 226 262 238 226 228 220 215 217 216 206 205 202 197 200 196 205 196 196 198 193 194 195 198
220 198 223 209 225 137 142 221 220 234 229 240 227 249 258 257 253 290 293 320 315 307 277 271 256 236 228 230 217 214 213 206 200 200 200 205 199 200 198 201 197 192 197 197 191
216 204 156 128 141 214 224 217 241 228 236 218 233 239 246 247 262 344 267 317 327 312 316 287 265 234 233 221 206 229 212 210 207 204 201 197 197 192 191 186 198 193 193 192 197
217 221 225 214 217 219 215 244 229 229 233 236 247 245 243 255 299 330 329 316 312 311 313 284 288 243 235 224 225 217 226 212 208 207 203 190 195 194 197 197 195 196 195 198 200
211 213 213 159 228 217 207 235 240 227 248 228 251 256 243 288 340 336 330 316 307 300 300 288 272 248 241 230 226 234 216 217 213 208 207 197 194 198 199 199 200 202 198 167 206
176 193 214 230 185 224 234 236 226 245 232 252 222 263 260 204 334 335 322 337 318 309 295 280 268 265 250 236 233 224 222 207 219 215 208 210 207 210 139 208 207 204 200 178 218
208 189 210 226 203 233 243 219 245 242 262 277 265 263 331 341 332 329 339 335 324 324 289 288 270 269 255 240 235 222 221 219 216 225 212 200 202 208 92 209 214 107 217 213 216
209 225 226 210 210 223 226 229 255 239 261 275 71 332 337 336 341 324 332 345 312 322 303 297 268 273 260 246 232 227 224 219 216 220 215 221 211 211 210 214 214 213 217 213 213
225 225 214 229 222 225 233 245 256 270 269 276 333 334 334 343 249 389 342 368 218 355 320 295 274 269 264 248 238 230 224 217 221 214 213 212 208 218 214 215 216 224 215 222 222
235 238 225 228 244 237 250 241 255 274 287 343 335 328 325 322 255 364 412 422 423 348 320 305 282 262 259 250 239 229 228 225 218 219 218 223 214 221 211 216 206 213 219 223 213
238 227 238 242 231 241 253 252 255 301 343 339 326 322 382 361 348 394 384 436 415 384 338 308 282 267 256 249 258 237 231 231 229 219 218 221 220 223 221 219 221 213 227 252 255
215 219 248 230 223 243 263 269 266 339 333 326 516 462 420 390 373 369 369 404 394 368 318 309 289 273 259 253 250 257 234 232 234 226 224 221 224 226 219 221 220 153 252 250 252
210 235 270 237 255 266 276 269 332 327 316 375 497 477 443 402 367 352 424 380 354 343 315 304 292 274 262 252 247 244 243 241 246 238 229 223 220 237 228 230 224 251 224 246 244
264 216 248 262 272 270 277 335 319 320 372 348 361 434 384 362 334 337 386 322 353 331 312 304 279 270 261 257 250 251 247 242 230 229 236 233 229 236 236 238 253 237 240 243 203
230 249 267 278 254 293 331 321 314 348 358 335 318 346 343 324 320 326 382 326 306 377 309 300 272 273 261 256 252 251 253 253 248 242 247 234 224 219 226 238 232 240 244 256 266
263 265 245 268 300 327 322 316 334 355 347 331 301 306 307 307 343 364 359 350 315 324 301 298 277 269 270 259 251 249 249 247 248 246 243 241 235 244 249 251 247 242 251 263 262
257 254 276 290 322 311 311 342 356 375 504 406 496 386 313 324 336 334 342 355 357 306 291 302 284 272 267 262 260 256 253 250 245 243 246 245 235 248 253 256 236 255 279 271 305
249 268 298 304 310 306 312 355 375 450 446 444 454 463 377 354 333 312 307 297 292 311 287 299 212 279 265 262 257 260 256 251 251 254 256 246 246 255 252 259 268 266 265 255 290
269 283 306 308 310 287 355 345 435 423 413 421 438 452 354 347 311 304 299 294 291 292 305 312 297 284 271 259 257 258 255 257 258 259 260 259 259 266 260 260 252 256 254 308 274
295 283 303 312 280 341 337 414 404 388 395 403 414 413 344 331 317 301 294 297 292 288 292 294 322 284 279 265 258 257 255 254 255 260 257 251 248 254 252 253 242 253 299 282 254

GFSSW_2pvu_pres_093.txt.gz
Presure
188 181 135 179 203 179 207 223 166 122 173 185 145 160 134 183 146 150 192 195 190 198 206 173 187 197 216 194 218 184 219 201 209 217 209 226 217 138 237 238 232 201 221 208 193
127 151 174 147 226 188 147 210 135 166 200 197 207 170 202 164 190 198 200 195 192 203 198 205 199 206 210 199 205 205 224 206 238 175 134 143 216 225 226 230 223 190 219 215 206
139 177 137 146 112 127 116 197 194 206 209 191 200 147 193 202 196 191 186 196 200 204 193 206 207 193 223 192 195 220 239 205 166 210 167 190 214 219 216 208 216 216 206 208 206
148 199 177 193 188 200 200 200 216 190 182 131 212 179 209 195 212 199 200 202 196 196 207 212 200 199 215 217 219 218 189 212 208 211 237 215 210 160 207 207 204 194 206 217 217
143 202 182 153 211 177 204 226 172 189 213 201 215 226 190 218 219 224 211 192 206 197 209 214 201 205 210 206 214 200 227 216 234 218 198 195 208 209 201 203 203 204 204 201 205
200 190 173 204 153 215 176 210 216 230 228 225 164 212 221 172 215 251 221 206 210 206 205 199 200 206 216 217 207 213 210 211 226 223 207 199 207 212 208 201 200 196 203 198 202
189 150 174 170 223 207 128 145 230 177 140 210 222 150 225 236 233 236 245 216 235 229 236 208 232 236 230 239 225 214 210 209 223 215 225 216 199 215 202 195 199 199 67 123 189
193 191 199 207 162 152 213 218 198 214 227 217 140 216 227 215 239 232 246 238 241 228 247 247 246 268 294 220 262 226 223 210 222 218 232 210 204 208 210 214 208 196 204 201 196
183 165 186 183 216 224 130 227 142 217 207 186 202 231 216 216 246 229 245 229 244 252 262 247 259 346 326 305 295 259 239 235 224 216 221 227 198 201 212 198 201 203 197 195 201
184 219 197 211 152 215 216 209 215 216 221 200 226 191 229 242 249 245 241 246 253 259 258 257 342 351 335 301 289 258 234 226 227 210 221 212 218 203 201 204 199 201 198 198 198
153 220 141 141 221 204 142 139 210 224 217 224 230 221 232 245 234 256 240 257 269 264 303 329 343 339 315 319 305 272 247 245 231 220 217 215 205 209 216 203 200 206 206 198 200
203 228 222 211 144 208 135 190 222 212 166 233 229 242 243 251 265 254 243 261 272 330 338 337 344 318 314 302 313 317 257 253 235 229 217 211 208 198 206 188 204 199 201 198 196
220 222 217 217 209 218 221 222 219 230 235 233 243 245 235 247 260 259 261 276 330 347 341 333 344 320 311 305 299 299 287 251 234 229 219 205 209 205 204 207 209 198 196 189 190
221 218 212 220 218 219 226 237 236 215 237 237 248 248 234 256 257 278 285 361 363 352 344 343 311 335 320 301 292 294 273 256 235 227 212 209 203 208 204 203 205 207 207 203 198
214 219 214 220 229 221 229 223 227 216 245 232 242 232 277 85 101 291 367 357 350 348 346 351 333 305 342 291 282 279 267 263 230 224 218 213 206 217 204 208 207 205 203 130 204
226 227 249 231 225 225 225 208 210 222 217 228 238 253 271 287 286 374 352 223 335 344 334 350 329 339 341 291 283 271 274 268 232 226 221 215 223 208 219 214 198 201 208 208 208
229 218 231 219 228 234 233 219 222 225 245 246 249 271 290 287 362 349 443 430 403 373 370 427 372 339 297 302 283 273 267 259 242 231 220 222 229 209 209 205 123 213 213 205 204
223 220 216 226 222 213 239 220 237 235 240 244 282 290 294 353 340 390 466 414 385 373 357 406 367 355 313 302 278 273 267 260 256 233 219 218 217 212 220 215 215 212 221 222 221
226 219 239 216 236 233 217 240 257 242 249 281 275 329 348 380 380 430 437 391 371 369 398 397 358 339 331 297 277 269 272 268 258 241 228 219 222 226 217 213 213 211 212 208 224
236 221 222 222 235 216 218 254 240 252 288 275 309 349 324 371 356 451 408 380 369 374 393 387 357 337 326 300 271 267 259 254 262 245 235 227 221 224 221 225 219 212 215 223 226
226 218 214 221 226 231 229 238 263 289 278 326 352 325 368 349 334 389 363 354 346 352 365 356 328 319 322 298 266 257 259 250 245 255 235 227 225 222 220 221 223 222 227 230 198
232 220 222 236 220 237 262 282 275 274 315 352 323 382 364 366 319 355 343 345 352 329 339 335 325 316 307 282 264 256 251 251 250 249 249 238 224 220 227 224 220 224 234 228 231
250 243 224 244 236 245 279 272 271 314 347 324 514 515 502 370 306 331 323 333 327 336 375 360 298 322 295 281 262 253 251 243 244 241 245 247 241 237 234 230 233 239 235 239 235
223 242 247 257 278 275 270 287 315 337 313 471 473 480 487 369 297 308 311 318 308 325 336 303 277 286 288 281 257 256 255 250 242 236 232 228 231 236 244 249 245 232 244 254 246
234 238 268 240 283 264 283 310 330 302 381 447 452 449 449 359 323 305 320 307 316 316 342 296 295 285 285 280 267 259 257 250 244 242 234 235 240 243 246 244 244 246 243 244 247
254 241 258 273 259 283 307 323 298 364 429 428 443 476 401 341 320 349 356 314 312 308 314 284 306 289 286 279 267 259 254 251 248 244 240 241 235 236 239 247 247 243 238 256 253
255 260 263 258 277 286 312 300 355 362 411 415 429 438 356 324 322 324 326 331 302 316 297 296 298 289 289 281 258 259 253 247 246 244 242 237 237 238 244 247 249 248 255 260 235

GFSSW_2pvu_pres_096.txt.gz
Presure
144 164 191 205 186 197 135 130 220 178 199 111 158 123 198 212 212 195 190 194 205 182 203 152 185 203 160 208 206 160 216 211 182 226 168 210 211 192 108 184 191 225 242 175 240
137 183 172 193 171 182 210 204 160 191 161 190 188 212 206 211 159 203 132 195 193 205 201 198 185 201 181 201 208 209 206 187 208 222 213 214 205 216 230 87 215 229 185 227 245
171 183 189 197 178 194 178 201 189 212 173 198 197 206 214 136 181 193 155 195 169 203 212 201 209 155 199 203 208 207 221 212 216 208 206 226 226 187 205 241 63 214 222 212 217
201 191 194 183 180 188 175 193 206 171 195 167 135 156 208 217 205 229 208 209 143 224 150 221 217 210 207 199 207 208 205 216 213 228 216 193 218 215 218 78 229 212 200 193 202
162 183 185 182 192 156 161 191 201 132 224 165 212 211 212 213 204 188 215 214 224 208 220 232 208 223 219 210 202 200 210 210 212 216 225 210 206 209 207 210 223 222 217 204 185
171 176 181 130 125 147 197 156 200 214 209 202 212 198 206 212 185 202 210 211 189 155 137 226 181 249 220 233 220 212 210 216 212 226 210 225 220 204 221 216 206 229 201 192 192
192 134 189 193 195 131 186 207 200 163 137 217 208 218 223 157 217 150 149 205 227 224 235 224 236 242 233 220 237 218 219 219 215 211 222 226 218 230 201 222 207 207 210 182 192
187 188 201 127 195 199 176 200 161 194 213 194 201 223 143 205 217 216 157 223 227 242 226 245 225 234 224 244 234 223 203 210 223 226 221 213 226 218 219 224 216 207 180 208 203
201 195 196 157 161 147 191 202 196 204 230 177 140 182 201 217 205 175 182 221 239 232 243 259 250 273 258 247 251 236 264 253 283 267 271 249 228 218 196 210 232 215 197 202 207
198 196 198 178 195 188 195 205 202 206 216 223 216 189 209 164 217 224 226 237 227 246 249 234 271 268 263 257 265 285 285 309 285 265 315 278 265 220 213 218 217 226 211 211 206
194 190 124 121 196 201 132 202 203 212 217 221 207 134 207 223 226 225 232 238 234 213 233 231 279 254 264 278 298 305 349 342 358 339 321 304 254 251 223 213 217 220 211 209 199
193 196 194 196 168 198 206 199 197 191 206 219 219 226 224 232 235 236 228 225 230 231 240 273 277 283 284 282 309 367 345 342 329 327 314 298 263 248 234 214 208 209 208 210 196
195 194 197 200 193 192 196 222 209 217 226 218 220 225 245 237 235 220 216 232 242 247 288 282 290 286 293 367 362 350 342 329 321 321 320 295 273 250 227 218 219 213 206 205 211
198 197 194 201 217 205 221 217 222 231 227 239 245 229 213 235 212 228 227 243 256 267 287 290 285 362 364 364 357 358 336 328 312 310 320 280 274 246 225 220 208 200 214 209 198
199 199 204 212 221 218 231 225 226 229 247 247 230 242 241 239 244 240 261 257 302 303 296 405 389 356 355 344 339 362 332 330 300 295 308 309 276 238 223 217 210 203 205 203 199
196 200 204 215 220 228 223 230 223 224 227 241 223 229 237 235 239 248 253 287 299 303 386 395 426 446 434 338 346 352 318 316 293 289 296 294 283 231 237 234 219 199 198 201 201
231 200 199 218 210 219 223 230 225 220 231 238 240 238 229 239 238 254 291 301 324 388 79 401 428 423 406 338 338 342 328 314 293 288 287 282 271 244 235 239 214 209 201 202 79
218 217 219 216 215 223 222 220 216 232 226 245 219 230 239 238 266 283 299 329 379 397 454 405 412 389 370 368 337 382 334 301 288 279 268 262 264 240 235 222 221 208 203 204 186
232 219 222 226 234 213 233 223 223 208 239 245 235 237 240 255 279 300 357 407 393 433 421 378 386 359 407 361 362 330 334 283 277 269 257 255 251 247 232 225 215 212 207 202 191
224 224 224 224 207 209 219 222 232 238 231 224 243 253 259 269 298 351 406 384 370 415 401 364 352 387 346 334 328 331 330 276 278 258 255 250 248 234 220 218 219 211 218 207 210
229 221 222 223 227 223 228 229 228 218 222 234 240 285 264 297 413 469 390 367 420 377 364 358 349 361 348 327 315 305 306 276 272 256 254 243 246 228 216 225 225 224 213 214 218
241 222 222 227 207 228 226 232 237 242 239 245 278 290 304 374 504 475 385 360 363 352 361 375 337 329 334 322 323 321 276 266 261 261 250 236 235 229 221 216 220 220 231 221 217
245 232 227 226 225 231 224 222 238 239 262 277 295 336 376 520 501 396 363 341 358 350 352 342 326 334 329 312 321 321 264 257 258 261 262 243 227 230 229 230 215 217 218 220 218
247 251 252 245 233 246 249 241 262 265 287 292 344 394 475 465 444 373 338 313 349 345 340 303 301 295 312 300 300 269 255 251 244 251 240 244 234 235 231 235 231 230 228 223 225
249 249 247 241 233 252 262 270 273 277 290 330 350 474 464 459 392 343 320 329 340 360 295 278 261 284 288 278 295 256 244 242 241 242 245 245 245 250 240 230 226 227 221 226 228
245 251 250 255 266 273 270 264 280 283 311 340 398 465 495 476 356 325 319 313 334 350 285 274 262 263 265 279 276 256 245 243 247 243 247 238 236 234 239 234 239 234 233 236 233
245 248 243 256 261 257 261 272 282 304 324 370 433 467 400 360 341 319 307 310 310 319 283 273 279 266 258 265 284 263 252 247 242 237 238 243 240 238 239 238 240 232 243 239 230

GFSSW_2pvu_pres_102.txt.gz
Presure
201 178 143 154 154 182 146 192 173 179 190 193 201 205 162 179 152 183 198 200 149 165 124 174 171 187 195 200 214 202 197 142 197 239 207 158 207 200 198 207 215 208 225 211 225
189 177 158 169 167 190 168 134 201 153 190 196 183 189 191 189 187 187 176 210 195 222 182 211 204 219 170 152 214 216 213 217 214 220 257 229 202 215 208 198 177 171 211 212 235
186 189 158 128 149 183 146 173 172 178 142 195 203 200 194 103 181 197 199 154 183 174 208 211 207 155 196 209 120 197 200 238 229 241 237 232 158 243 231 244 179 190 196 209 211
195 161 182 172 187 181 183 193 193 196 194 189 140 193 160 165 187 208 196 198 200 204 196 205 216 225 216 216 216 123 228 217 225 222 237 235 229 233 248 242 243 233 211 216 204
191 155 163 180 147 181 188 188 188 194 184 201 156 172 180 187 160 168 207 180 213 180 172 205 194 216 210 217 213 198 141 170 221 225 215 238 246 207 229 221 225 225 229 221 218
178 187 194 147 139 195 182 217 188 161 202 193 189 189 154 194 202 156 195 210 166 191 168 206 208 196 215 209 217 227 184 208 208 226 227 249 193 256 227 240 223 232 231 231 220
186 202 161 208 190 188 194 180 201 186 140 204 185 163 192 203 197 180 203 200 203 201 204 201 213 215 207 178 209 213 214 204 199 223 214 189 257 237 242 224 232 247 239 238 229
192 201 188 208 202 200 196 198 197 139 146 208 200 195 200 196 192 207 209 199 211 195 203 172 220 216 207 214 212 220 214 218 207 220 222 216 256 251 235 240 205 198 214 239 238
151 153 135 172 181 213 205 158 200 199 181 204 172 191 173 212 212 210 205 215 199 218 218 214 212 224 188 218 220 224 237 252 236 217 223 233 249 239 202 254 247 238 258 246 248
197 201 212 199 217 207 209 166 212 209 199 204 208 197 206 202 200 204 219 218 184 207 219 225 225 224 218 226 228 225 230 224 224 139 200 239 241 240 238 247 217 242 272 259 254
132 141 193 230 222 215 202 213 187 133 172 197 202 208 201 211 208 220 209 206 192 204 218 208 222 217 218 222 221 218 222 236 241 230 225 245 278 258 261 264 301 296 292 275 267
197 194 193 194 210 166 161 213 183 204 218 196 166 204 209 220 198 217 201 211 206 209 222 229 214 221 228 222 228 239 246 248 247 231 237 185 319 137 62 329 309 313 300 284 279
210 198 202 216 195 210 204 209 197 184 182 197 157 207 213 208 220 207 208 213 209 208 228 225 228 221 227 236 243 234 232 237 249 255 282 291 329 347 376 362 334 312 305 321 294
209 209 198 202 208 218 114 155 167 200 161 171 209 168 208 204 209 212 214 218 207 235 218 232 228 245 230 217 208 220 236 255 261 303 325 411 433 454 418 387 380 371 364 377 375
199 205 213 206 203 211 212 136 197 171 210 140 215 215 216 203 208 205 230 213 234 231 235 228 243 251 241 240 226 247 252 290 303 437 425 453 452 486 347 366 341 332 346 357 358
204 211 218 140 173 216 207 209 209 203 201 216 224 205 226 211 216 222 216 212 230 239 240 169 251 246 249 257 258 276 306 397 408 459 459 422 384 375 345 335 326 340 341 341 337
217 160 223 245 202 224 215 209 216 239 152 228 227 215 219 211 209 226 228 229 234 235 242 174 240 255 260 265 283 324 410 435 456 434 440 64 359 350 345 340 332 331 296 301 313
256 266 139 228 249 244 240 252 246 234 228 237 208 232 247 231 237 232 238 244 233 232 254 273 268 263 269 297 450 468 457 435 447 427 343 349 336 321 322 317 337 263 261 260 296
281 142 269 256 260 228 258 274 249 248 238 237 225 242 249 251 243 257 257 259 264 268 266 269 285 296 327 463 507 439 409 414 401 332 326 332 310 291 303 320 258 251 251 273 256
302 295 301 292 282 261 272 266 277 253 264 259 261 260 259 262 258 263 265 265 262 281 283 293 311 463 452 437 408 396 393 365 326 342 315 291 281 272 286 255 251 244 245 266 247
266 272 277 265 269 276 272 269 273 266 264 251 246 246 248 248 249 269 273 278 281 274 296 338 456 440 416 380 385 379 342 341 317 308 281 268 261 265 283 243 240 233 233 242 261
264 271 273 269 264 261 257 254 256 251 242 243 253 252 242 269 276 265 265 276 281 305 449 424 422 410 364 368 354 397 331 334 291 281 270 257 250 253 263 241 229 220 229 233 257
265 256 254 260 253 252 252 246 238 242 240 241 236 243 247 272 274 270 278 292 338 426 398 397 370 374 361 331 323 308 317 281 271 271 263 259 248 240 248 258 236 236 231 232 244
253 244 258 242 248 243 242 250 248 239 248 245 254 237 266 269 275 285 287 455 410 391 387 355 363 377 325 325 324 324 317 275 274 269 264 251 244 244 229 247 251 234 240 245 214
241 238 246 239 240 242 241 241 245 248 255 246 241 258 262 272 288 290 439 385 393 347 354 353 353 341 323 313 309 317 309 268 268 262 263 253 238 229 235 235 235 246 248 256 235
239 227 231 222 240 237 238 244 243 252 245 250 255 274 273 276 351 417 383 348 322 318 303 305 309 300 286 284 285 309 291 264 264 258 258 257 245 249 234 236 250 230 236 245 222
245 245 244 233 232 233 230 248 233 241 256 264 261 264 275 335 411 373 323 306 310 293 291 284 281 287 324 304 301 296 287 258 249 256 255 252 250 241 237 248 243 254 243 231 231

GFSSW_2pvu_pres_105.txt.gz
Presure
143 192 139 165 181 196 167 147 187 145 180 190 184 168 192 147 196 179 182 126 186 197 156 194 200 208 193 199 123 145 186 219 216 213 215 142 192 163 234 219 172 142 183 183 165
195 175 211 172 205 123 203 195 151 174 179 186 128 181 187 165 157 178 168 206 198 181 194 191 143 205 204 215 211 217 216 206 182 162 179 199 210 208 197 220 238 248 225 255 197
193 190 161 205 198 203 204 190 150 174 191 188 162 186 174 196 188 174 180 193 189 187 115 202 206 208 207 178 204 170 209 212 216 211 199 220 222 236 235 238 232 154 237 233 245
179 209 216 182 193 203 155 191 195 197 142 147 184 187 175 184 164 199 203 196 148 190 136 162 210 207 204 209 213 199 205 214 214 215 195 124 223 225 227 223 224 230 229 200 232
208 199 148 196 201 195 169 161 191 201 149 200 183 171 175 154 180 168 200 197 195 191 196 195 200 175 198 197 197 150 199 203 217 212 218 214 218 196 218 209 212 232 237 248 248
187 196 167 182 154 195 171 180 208 152 150 205 186 195 194 167 170 166 168 189 157 196 191 199 206 207 216 205 196 142 212 202 216 208 200 218 217 222 194 168 200 230 215 250 246
174 166 202 191 213 177 185 144 159 183 206 186 202 194 198 178 199 174 199 186 199 191 207 202 213 216 209 220 193 191 227 203 194 219 217 227 224 215 213 224 260 207 247 240 240
189 187 185 185 145 203 186 204 182 190 218 193 201 201 154 195 161 199 197 199 179 201 196 207 203 148 217 209 197 218 236 220 208 235 229 231 95 210 228 231 233 234 215 240 239
151 190 177 176 204 192 203 189 138 197 206 202 192 185 155 206 204 216 210 196 105 206 190 207 214 213 198 206 193 217 201 206 209 219 222 229 226 222 215 210 223 221 231 233 238
194 197 223 199 214 161 152 140 200 183 187 210 176 204 160 203 213 187 204 187 198 214 212 208 212 201 207 226 213 227 226 244 216 224 227 224 224 219 229 241 237 230 230 234 232
207 210 186 219 208 181 199 204 201 189 161 210 208 172 204 195 115 171 213 169 214 197 198 219 198 204 206 222 233 224 237 243 230 232 238 234 237 228 223 134 227 231 240 240 240
193 205 209 212 213 212 210 127 206 183 195 209 182 203 178 213 192 194 214 212 160 158 227 209 213 207 216 203 228 228 226 240 243 220 232 241 231 237 233 233 239 247 267 298 282
217 226 190 160 165 169 202 208 198 208 141 202 205 172 185 160 197 214 212 191 195 211 215 230 208 215 207 227 214 222 228 231 240 227 229 243 260 82 147 171 258 311 313 322 344
211 212 219 227 207 187 212 193 219 211 202 210 204 208 209 195 216 198 216 213 178 215 223 195 253 210 211 227 229 238 242 247 242 248 226 222 223 135 243 319 462 457 433 436 416
208 222 218 214 161 210 219 222 224 223 209 215 212 195 212 198 211 208 211 173 218 211 220 109 227 234 227 235 245 244 233 229 228 258 273 260 128 102 399 501 462 427 188 404 393
226 214 224 217 228 233 231 236 234 200 215 221 206 211 216 238 218 216 146 212 220 238 224 229 227 217 222 235 239 236 254 256 268 272 278 283 206 341 364 437 416 405 404 392 377
293 284 239 168 223 234 239 238 239 244 227 226 240 211 214 221 237 229 229 226 244 233 234 237 212 233 246 256 248 262 261 267 279 280 308 443 371 74 322 80 377 382 393 385 356
335 302 295 290 266 281 239 243 243 245 222 214 246 221 252 227 234 239 240 244 252 250 251 241 250 267 252 261 264 261 270 281 302 337 504 474 64 354 334 377 369 380 310 310 309
348 341 337 312 318 286 284 290 288 279 269 246 267 261 267 251 254 253 268 285 246 238 274 271 268 268 226 280 289 284 292 310 495 473 461 369 346 319 323 324 297 283 287 284 280
322 328 341 326 318 319 312 273 276 269 284 276 287 288 292 278 269 268 269 269 271 266 266 266 265 284 286 283 293 312 481 446 461 372 341 313 295 295 302 297 267 264 267 264 275
332 304 302 297 303 305 295 280 287 278 277 272 268 270 276 272 269 269 265 258 262 255 259 250 288 287 291 302 425 438 432 413 358 332 302 296 296 296 289 254 258 250 250 263 280
276 293 301 290 270 265 266 271 265 263 264 271 268 264 262 259 251 246 248 251 247 270 256 287 292 308 472 396 407 412 362 341 318 293 290 289 284 282 259 248 241 250 256 252 266
270 266 287 265 258 267 270 266 268 265 261 257 253 252 244 240 244 249 262 263 254 280 281 301 391 433 389 393 403 356 335 308 286 272 280 274 274 265 251 238 251 232 241 250 263
278 273 266 251 245 255 257 258 261 254 245 246 238 246 248 250 255 261 262 262 275 286 353 401 412 386 366 381 337 326 287 281 274 270 282 272 268 247 256 246 243 230 258 234 239
253 254 252 252 254 256 258 250 245 239 240 241 241 249 244 261 252 268 270 276 302 389 396 369 364 362 355 365 324 309 270 273 272 286 265 271 267 244 232 243 241 249 245 227 229
262 261 246 255 259 248 240 241 235 242 242 241 237 257 249 249 264 262 276 319 386 359 345 353 370 331 319 327 305 304 264 271 274 268 260 267 259 263 242 230 243 246 241 241 234
248 247 244 243 240 234 231 231 239 243 233 245 254 245 259 258 270 270 322 353 335 320 303 316 337 305 313 312 309 294 270 266 266 256 267 254 254 262 266 231 250 243 243 233 227

GFSSW_2pvu_pres_108.txt.gz
Presure
162 165 164 131 168 181 177 127 215 195 177 176 141 181 149 146 197 164 159 134 163 174 170 193 189 184 161 196 198 171 212 202 206 203 196 208 179 149 222 206 226 217 225 219 120
153 167 171 175 158 139 194 216 214 164 171 193 192 207 184 194 166 167 172 187 180 194 119 158 179 168 160 200 196 195 139 198 190 200 189 154 164 210 212 188 158 195 220 225 246
164 144 175 180 152 196 208 199 206 179 198 134 195 145 189 200 171 181 165 184 167 170 186 189 165 196 207 185 206 200 191 197 199 216 140 201 197 210 215 217 140 123 135 229 230
177 178 185 192 192 138 187 196 190 186 194 203 182 151 189 202 209 177 195 200 183 180 198 201 191 189 202 190 197 187 196 187 175 196 192 204 211 199 196 200 203 146 221 222 166
191 178 184 192 202 184 186 181 207 212 210 191 195 215 210 202 138 201 206 173 190 189 190 197 199 192 182 163 195 183 197 178 214 207 207 201 197 210 199 208 192 231 205 203 225
153 179 185 191 178 182 192 201 179 185 198 180 178 194 201 184 162 216 183 142 183 191 183 192 178 201 184 192 187 192 197 197 202 213 213 217 189 200 203 212 212 205 187 213 218
181 176 181 189 180 192 192 198 207 172 201 158 202 204 158 207 165 152 203 197 195 188 140 195 191 162 193 186 199 198 214 202 197 208 203 201 197 198 227 222 204 228 221 213 215
180 181 189 195 193 199 199 202 196 195 209 192 196 201 192 203 179 192 200 218 199 198 200 199 209 201 200 208 207 187 149 201 213 202 191 207 187 207 228 224 227 226 219 218 220
188 194 194 203 202 201 160 207 206 175 203 205 132 195 210 197 149 192 135 192 212 206 167 204 208 181 210 204 206 198 216 208 215 215 204 197 193 185 185 206 212 218 224 234 220
189 178 187 185 210 204 146 178 179 174 141 172 214 193 180 162 194 198 190 190 162 204 209 209 199 192 176 213 206 210 218 203 214 200 206 102 220 80 198 243 244 231 233 215 205
195 194 197 205 165 176 169 144 199 140 190 201 201 199 196 193 195 170 202 202 192 186 189 175 215 209 215 208 181 159 204 208 227 214 216 229 218 229 193 204 262 226 217 196 218
148 193 198 199 205 188 196 224 174 182 167 232 222 207 186 203 203 204 204 194 209 196 223 118 179 204 212 226 205 211 192 227 249 228 234 218 210 220 98 128 251 224 238 220 227
210 240 232 217 238 219 211 220 225 213 211 219 178 203 202 189 209 193 203 195 206 167 169 205 110 194 205 222 217 216 226 224 220 234 243 261 227 66 247 247 245 243 235 231 242
196 205 185 216 206 227 220 215 219 227 227 227 209 220 222 213 213 127 208 215 191 174 233 175 215 221 218 231 177 191 219 230 246 248 230 238 259 66 256 257 261 73 80 77 255
198 211 209 222 168 165 231 217 183 153 218 223 220 224 225 214 219 223 223 225 223 215 214 220 222 223 192 233 237 239 233 234 246 245 246 168 262 290 241 204 142 288 307 307 305
220 219 226 213 202 161 218 216 233 219 228 226 233 235 231 228 230 231 232 222 230 224 222 226 235 217 226 228 237 239 230 240 255 256 249 257 90 125 220 283 284 159 336 470 476
228 226 228 227 225 234 236 241 249 248 231 255 254 246 248 269 257 244 242 239 242 234 240 226 246 229 249 235 233 245 267 265 247 272 267 268 269 206 281 306 93 424 82 426 411
253 257 254 255 257 310 319 320 331 314 314 287 285 298 280 279 275 273 273 265 256 276 285 272 249 251 255 266 136 262 267 264 278 267 268 278 291 290 315 437 349 78 382 358 364
255 309 375 366 359 326 322 327 297 298 294 307 337 307 335 314 260 293 285 278 282 277 277 272 288 271 264 265 103 266 267 268 267 261 282 284 308 419 397 359 357 343 336 328 301
365 349 329 326 328 351 341 334 325 324 320 301 313 304 302 287 283 284 285 283 289 278 272 262 267 269 271 267 263 256 259 259 273 293 306 417 409 370 332 321 314 304 301 299 293
310 334 318 321 305 300 320 330 318 306 288 286 276 268 277 285 286 280 265 263 264 267 263 266 264 260 251 253 255 267 275 298 316 408 420 381 342 311 312 304 287 281 290 281 275
337 309 311 300 315 319 290 304 283 285 278 274 274 277 278 265 268 261 266 263 256 254 258 256 254 254 268 275 270 301 432 423 418 374 346 314 294 296 307 279 280 261 270 275 255
310 311 292 291 286 287 289 272 273 265 264 266 264 259 263 263 256 251 251 253 254 254 259 261 266 271 294 302 383 401 409 399 364 320 296 296 288 301 293 268 258 263 266 268 251
318 286 281 283 267 276 267 258 256 256 262 264 263 258 251 248 247 244 247 253 254 246 248 283 288 307 406 380 385 385 379 350 303 289 290 279 280 287 270 259 253 263 247 248 254
265 268 270 252 268 264 252 251 250 244 256 250 250 247 241 241 243 245 249 252 250 267 276 289 387 399 380 373 366 364 321 290 286 285 284 275 280 291 260 251 257 244 247 237 245
268 263 269 257 254 255 254 247 246 257 259 248 246 242 238 243 241 253 253 268 269 281 296 374 379 370 350 362 351 314 279 273 280 277 270 270 261 281 259 246 244 244 249 231 233
263 265 255 254 251 257 253 253 244 251 242 238 235 232 236 249 258 254 262 264 274 326 354 351 359 350 337 340 316 292 280 268 275 269 268 267 263 242 261 251 256 238 225 241 227

GFSSW_2pvu_pres_111.txt.gz
Presure
172 171 170 173 175 193 156 149 184 161 175 190 126 187 169 200 156 129 190 192 175 158 194 182 146 170 192 188 182 133 164 190 201 193 193 192 185 197 212 216 203 211 226 222 221
177 169 178 174 184 190 174 184 173 174 178 156 167 148 180 210 215 193 211 167 186 188 184 193 162 164 170 143 178 189 191 189 160 188 156 187 193 204 206 177 217 210 208 150 119
168 183 172 179 190 185 195 187 187 183 183 188 174 141 167 217 197 187 196 195 198 209 195 197 186 190 190 190 185 194 187 174 197 202 195 156 194 190 186 204 201 210 168 210 210
181 175 184 190 189 179 159 175 176 147 133 141 172 187 176 145 204 191 214 203 198 215 159 177 181 188 192 176 168 183 185 177 190 183 187 189 179 183 195 187 216 206 203 201 216
184 183 182 189 186 163 195 183 178 183 189 185 173 198 174 175 186 195 163 198 205 188 204 206 189 202 187 157 190 199 189 186 188 168 181 193 180 198 185 202 211 213 220 219 207
180 176 177 199 179 189 190 198 196 190 169 190 176 200 198 180 163 214 186 202 204 135 202 179 191 153 155 195 194 198 193 189 197 199 197 160 185 164 202 196 199 207 197 207 205
190 190 202 197 199 187 198 200 185 193 164 204 179 192 183 154 197 202 191 190 195 194 136 156 197 165 198 195 192 200 201 197 200 143 193 188 191 202 204 204 207 208 195 206 192
193 186 199 188 183 176 201 193 181 178 183 184 193 186 197 193 159 213 174 149 204 158 200 193 193 153 197 209 201 147 185 191 190 197 196 205 198 203 204 212 215 208 201 201 198
180 174 182 193 152 204 181 200 185 175 190 191 188 191 196 155 186 177 177 172 182 214 146 213 179 198 211 176 201 201 185 196 203 203 204 207 200 204 206 212 215 206 203 197 212
182 204 196 144 203 201 189 195 184 203 166 189 192 207 189 203 164 170 132 197 157 203 191 204 197 200 196 187 203 204 202 207 206 192 207 206 104 179 206 206 202 214 212 198 195
202 199 190 199 193 194 183 211 199 167 207 186 179 198 229 219 146 200 218 201 219 205 204 196 182 196 177 191 192 206 211 145 183 205 207 217 213 109 210 226 196 227 205 180 229
188 192 201 209 198 196 198 198 189 173 141 194 209 198 151 224 219 204 129 169 194 188 215 209 194 181 203 201 204 193 206 167 184 218 216 220 225 60 244 243 221 224 231 246 208
196 196 178 199 204 194 199 196 207 205 215 210 163 172 191 199 209 213 185 217 205 207 178 226 198 195 197 210 196 191 199 198 226 228 193 213 188 196 231 238 195 237 244 191 265
206 210 199 201 195 200 190 204 217 221 210 206 197 226 225 224 229 223 231 225 222 223 224 214 221 228 213 220 220 216 229 192 234 222 220 215 260 192 233 223 233 263 254 226 260
193 205 211 200 192 204 202 190 215 169 218 226 238 230 160 240 233 225 225 217 235 222 219 222 223 226 227 234 238 236 238 237 242 235 234 238 196 277 95 174 243 117 115 267 270
204 190 202 210 202 208 203 211 180 205 234 183 184 255 253 166 253 243 241 248 246 248 252 240 236 239 237 244 248 252 244 248 253 249 256 96 259 69 255 269 270 265 272 279 211
220 201 205 213 203 201 216 220 233 243 242 238 241 243 255 264 255 262 300 346 322 312 304 309 312 312 208 287 276 271 273 267 249 287 265 187 269 278 283 109 73 198 273 263 313
221 207 204 223 220 228 229 236 249 225 252 239 246 261 300 310 301 310 308 287 290 302 305 298 297 297 313 309 283 287 287 274 268 267 269 274 271 272 250 268 272 293 319 409 411
226 217 220 228 229 230 254 246 249 245 239 271 352 324 170 311 313 297 281 297 316 315 314 310 291 290 277 274 272 273 268 272 282 281 274 271 275 278 273 289 295 323 395 368 352
253 254 257 258 249 257 243 239 251 355 334 341 337 324 310 294 288 284 307 295 286 284 279 277 279 274 275 280 285 274 266 264 267 264 271 273 276 282 282 351 414 191 337 336 308
253 260 255 247 254 263 254 339 356 351 349 357 320 313 310 287 291 288 275 277 282 286 285 276 267 265 267 270 269 268 270 270 271 270 279 281 282 291 383 344 324 318 307 281 285
257 250 270 281 290 337 350 336 344 310 301 327 331 298 283 277 269 271 280 264 262 259 263 255 270 267 259 258 255 259 263 269 271 274 285 333 366 356 320 306 306 289 258 284 285
326 337 322 331 320 341 325 332 304 290 304 284 280 276 277 271 266 256 254 260 256 257 253 257 257 254 257 254 261 263 276 306 416 405 366 328 325 311 290 298 279 262 275 279 279
311 312 309 313 331 318 311 297 300 282 274 277 279 270 266 258 251 257 251 248 252 254 254 249 250 257 259 259 277 344 425 409 401 334 317 300 308 292 283 285 269 265 275 259 255
290 289 326 315 305 294 295 286 274 263 261 262 257 255 249 255 248 248 249 250 250 249 254 249 248 274 288 420 398 395 383 335 309 303 293 291 289 281 275 280 259 250 264 251 257
312 314 312 280 277 282 275 269 255 263 258 252 250 247 248 246 246 248 248 247 243 252 250 285 280 304 385 383 334 350 304 291 292 288 280 279 280 267 272 278 246 243 248 256 239
312 303 284 266 269 284 267 261 262 260 250 244 245 252 252 244 243 242 240 249 244 275 286 281 364 382 354 342 336 327 287 280 284 274 276 277 273 265 275 264 253 240 247 241 252

GFSSW_2pvu_pres_114.txt.gz
Presure
155 177 179 185 180 127 165 180 181 175 185 194 175 183 176 144 145 174 175 175 163 212 208 162 184 192 134 182 181 164 177 171 161 186 181 189 179 172 195 207 199 185 199 204 207
189 180 185 178 174 158 183 181 149 190 177 149 186 133 152 185 192 168 158 186 167 183 138 187 201 153 131 155 137 186 188 184 171 175 174 174 197 196 196 184 189 209 205 206 198
172 176 183 180 183 181 188 166 186 159 183 174 188 181 159 167 190 124 158 183 175 197 170 193 209 208 204 195 188 165 167 180 139 172 190 190 188 192 186 167 194 186 184 197 198
167 179 181 174 166 181 182 172 114 178 172 181 193 180 192 198 200 198 198 177 171 138 206 161 184 189 204 207 209 199 178 189 169 183 186 186 180 140 200 190 197 180 193 189 189
189 180 184 170 179 175 182 185 184 182 184 198 182 185 194 181 185 198 193 152 176 196 177 215 143 179 204 191 199 207 195 189 157 165 178 197 197 192 191 186 188 189 193 192 199
158 182 167 176 176 178 182 174 181 179 185 175 191 184 170 199 188 187 172 177 199 156 192 189 190 162 226 202 217 195 201 202 197 192 188 193 191 190 195 183 199 199 193 186 190
182 171 182 179 181 180 179 185 183 192 192 195 184 184 186 138 202 175 181 186 171 191 180 204 211 173 152 205 144 200 190 191 184 201 207 204 194 198 190 192 192 171 192 191 183
184 186 145 186 177 178 174 182 189 182 175 180 171 182 191 191 196 196 196 198 181 185 199 198 156 183 151 141 201 216 203 201 196 196 160 200 198 194 191 191 191 198 196 201 204
194 147 194 189 183 178 183 160 186 182 181 185 178 195 193 203 190 189 188 190 183 182 187 169 174 194 209 176 194 155 158 174 141 192 197 205 181 159 207 197 193 189 202 203 206
173 171 143 191 183 183 188 184 185 178 189 203 190 195 207 197 192 199 184 203 187 187 179 164 141 161 179 168 201 185 186 183 199 187 196 203 188 198 124 191 199 209 205 207 205
175 129 190 153 185 186 183 192 192 199 208 212 203 204 192 207 192 200 191 199 172 200 202 166 178 197 164 224 219 159 212 165 161 206 164 195 187 186 205 209 210 208 199 201 207
137 197 162 139 201 193 202 196 180 205 197 194 196 190 203 185 197 193 203 207 155 208 219 196 156 204 199 207 181 201 213 211 206 195 184 200 172 178 164 198 199 199 203 220 219
202 169 195 209 201 183 205 198 210 172 211 202 198 211 200 207 197 163 207 200 192 202 221 224 241 211 229 235 221 198 213 200 226 216 205 215 170 211 205 215 221 217 213 211 202
190 206 194 192 176 182 209 213 194 204 196 196 202 196 203 201 207 214 201 205 201 193 162 214 234 245 246 239 235 227 221 231 204 221 225 204 144 127 125 227 190 232 209 202 212
196 210 204 210 185 191 190 190 202 198 196 188 202 226 192 202 209 204 201 151 225 255 244 239 161 244 260 255 248 238 236 229 235 155 224 222 249 235 94 63 252 235 245 253 235
181 188 214 185 205 205 199 172 194 195 208 200 192 198 217 210 208 220 226 225 219 263 264 258 271 337 351 344 343 276 262 259 254 254 258 255 116 189 254 267 287 106 211 289 285
194 211 188 184 192 218 205 195 193 194 204 228 208 201 213 217 225 228 229 245 257 247 254 305 320 172 309 300 300 293 293 294 306 290 306 312 286 286 269 246 215 217 236 173 83
212 217 188 225 189 228 199 197 229 204 223 215 222 217 222 220 228 242 256 259 255 312 302 305 308 298 287 307 301 294 293 290 297 291 290 332 297 280 262 288 265 87 77 279 281
213 214 221 219 226 226 215 223 223 220 209 232 246 250 250 243 261 253 262 281 314 302 304 307 288 284 290 284 277 293 295 289 294 293 287 275 272 274 276 279 282 290 294 282 278
225 230 236 239 228 230 235 231 230 225 230 228 232 257 250 249 244 289 332 331 322 316 293 289 303 275 276 272 273 273 279 285 280 282 284 282 280 279 274 276 281 279 285 312 394
246 247 235 245 242 265 261 267 252 247 253 246 250 261 252 323 344 346 332 316 323 291 294 274 274 281 281 277 273 267 264 273 271 270 268 268 271 276 283 281 284 305 366 360 332
246 249 249 247 256 256 235 240 245 252 247 261 249 358 338 332 323 313 318 305 303 278 275 269 260 263 259 261 264 270 264 260 260 261 267 270 270 281 289 387 334 324 333 308 277
230 251 241 239 242 251 247 239 246 264 322 337 342 323 315 306 304 297 296 284 273 266 258 255 258 256 254 253 254 254 258 263 271 273 274 272 299 377 352 308 303 307 294 283 276
290 335 297 275 320 272 315 301 321 309 318 324 308 310 298 297 292 278 275 265 255 255 255 251 251 254 255 251 251 258 270 273 282 346 350 330 350 323 298 293 295 291 263 260 250
320 331 343 329 325 310 312 302 307 303 311 291 294 286 284 282 270 263 259 251 255 252 252 253 245 254 245 250 259 266 311 405 346 327 311 312 315 290 282 276 286 267 255 266 257
319 326 313 299 297 290 283 319 299 296 286 290 280 285 263 260 260 252 251 254 254 251 249 244 243 251 259 286 364 380 363 314 313 300 294 300 292 278 271 271 266 248 265 256 253
302 298 286 288 274 280 302 291 284 279 289 279 284 260 253 254 246 250 253 252 246 241 242 247 251 281 285 371 372 330 308 299 298 287 284 298 280 273 264 261 258 256 247 244 225

GFSSW_2pvu_pres_117.txt.gz
Presure
139 156 156 168 179 159 185 188 169 172 184 185 179 190 161 181 181 172 164 189 159 122 124 142 144 174 136 150 153 176 143 182 171 177 168 187 161 167 182 166 185 193 195 191 192
166 180 172 153 179 180 173 168 161 161 167 136 177 113 129 161 169 186 174 186 169 170 152 155 196 129 162 191 190 164 148 186 192 161 188 185 166 180 187 188 164 182 181 187 192
157 151 172 171 172 172 172 174 172 171 178 176 177 184 179 182 188 153 187 192 193 189 193 183 190 168 193 185 189 154 132 224 194 182 185 189 163 188 149 189 179 186 182 180 188
167 172 170 176 165 169 142 170 190 171 156 185 172 180 180 185 182 181 185 171 189 182 189 185 179 188 169 192 160 179 215 213 205 191 170 185 185 179 182 187 168 157 195 197 185
168 169 180 162 174 183 171 169 181 181 179 175 175 174 178 155 187 183 187 185 198 175 176 198 191 179 180 146 148 168 188 193 215 209 168 197 190 185 178 163 157 176 184 189 191
176 164 173 172 177 174 148 178 177 164 179 179 179 175 181 183 185 184 175 172 172 182 184 187 197 177 183 164 190 203 199 185 223 220 194 202 200 197 179 170 191 193 174 191 199
175 160 173 174 170 165 182 187 186 180 178 181 183 176 184 179 181 181 188 181 170 193 176 195 189 192 196 176 172 185 193 194 169 196 233 189 187 205 207 191 192 202 197 194 198
185 182 183 185 181 185 190 193 179 182 179 177 173 179 172 173 178 182 187 171 185 192 201 185 180 197 189 192 192 208 176 194 173 176 198 205 213 206 166 195 190 190 192 200 197
190 187 183 192 138 202 191 191 161 172 162 174 174 182 179 184 182 189 189 192 187 174 200 196 188 195 204 189 195 195 173 200 184 156 187 198 208 206 189 185 200 199 192 195 199
153 172 107 163 175 194 181 184 182 182 183 178 182 179 194 175 183 187 185 185 198 200 200 202 207 209 188 181 193 192 174 203 184 209 211 161 173 159 199 193 187 195 202 200 206
152 125 194 184 137 195 103 192 195 182 186 186 177 194 198 192 183 191 189 199 192 191 207 207 203 201 186 193 195 202 201 174 199 173 155 204 200 173 200 186 179 197 204 200 199
136 182 131 192 137 158 174 189 183 191 177 189 192 182 187 195 191 200 203 211 199 199 206 207 209 212 127 189 206 210 206 185 195 201 177 224 187 207 204 212 181 188 181 175 196
195 185 155 177 181 176 157 187 162 158 207 196 180 192 201 178 200 205 204 199 202 203 201 202 208 215 207 207 210 205 207 210 216 243 226 243 233 240 211 222 217 218 215 209 197
186 166 198 189 195 176 199 172 196 198 187 196 206 198 199 214 173 212 190 192 192 198 199 196 195 204 210 206 205 209 212 229 157 271 267 252 259 255 143 180 208 230 173 188 222
202 186 212 178 187 191 191 212 177 193 188 149 174 196 188 182 187 206 189 200 187 192 197 214 210 214 203 204 224 223 262 277 258 264 265 254 270 97 237 244 142 95 114 214 213
181 201 182 183 167 177 184 186 187 178 189 181 188 195 183 189 188 191 202 200 193 200 194 192 219 229 249 214 260 147 266 271 332 325 332 320 288 343 82 104 182 261 242 220 140
196 181 189 183 225 184 189 195 188 195 189 185 212 187 201 208 209 209 196 218 203 188 223 226 179 184 265 267 268 292 319 319 305 293 297 294 298 289 304 146 312 153 260 258 255
208 198 213 185 181 176 203 187 200 221 213 199 187 188 212 220 208 217 223 226 218 221 227 219 248 275 248 252 304 312 294 294 291 295 301 308 313 306 299 292 295 124 302 280 295
206 212 200 209 212 216 190 187 187 192 212 199 217 216 214 222 222 228 237 224 240 236 248 249 257 263 324 307 307 311 296 301 294 284 287 280 278 293 291 291 255 291 294 156 291
229 222 260 243 228 215 212 202 208 211 212 217 217 211 215 227 226 235 247 257 259 164 175 270 318 327 328 322 300 292 284 281 275 276 275 277 276 282 283 281 281 280 279 283 293
250 245 261 255 243 236 226 217 225 235 226 224 219 226 235 245 246 235 256 239 241 256 357 343 337 329 339 300 282 282 271 277 270 269 266 264 269 273 277 279 277 278 282 290 296
233 246 230 253 253 247 246 241 239 234 230 241 240 239 246 250 242 246 252 252 265 344 361 317 310 303 282 280 271 264 263 258 261 263 268 271 268 267 272 270 266 272 285 325 376
283 253 244 242 251 266 254 257 264 262 251 246 246 238 250 247 248 263 325 317 333 326 307 308 279 271 265 260 259 256 260 259 258 258 257 264 263 266 268 272 284 342 344 337 304
287 268 255 244 256 242 236 248 255 246 255 253 257 244 239 288 322 320 315 317 305 302 284 274 269 264 259 257 258 258 259 261 261 262 264 273 296 379 356 319 309 313 310 287 277
314 311 314 293 303 258 287 280 230 259 259 273 315 329 308 317 308 303 304 289 278 273 267 263 255 256 256 256 256 249 257 260 265 285 347 350 347 318 298 284 293 305 283 260 256
324 321 347 319 299 300 300 294 290 273 322 316 307 291 303 292 294 291 284 273 267 262 257 247 255 257 252 252 249 253 267 303 370 330 324 336 310 286 276 278 290 285 255 252 259
292 301 319 324 315 315 305 311 310 312 297 293 283 305 292 287 282 278 260 255 258 254 255 258 253 248 245 251 265 296 370 330 322 312 312 301 283 279 274 267 280 261 254 253 234

GFSSW_2pvu_pres_120.txt.gz
Presure
141 156 160 159 125 158 169 166 169 178 174 167 158 173 171 168 168 179 105 152 164 192 133 108 170 162 172 168 167 156 186 177 191 158 182 161 220 197 192 192 186 167 193 173 187
137 160 161 155 148 160 171 154 156 143 168 168 172 167 179 173 182 180 174 176 147 179 192 142 180 162 197 195 189 182 170 182 188 188 193 155 200 210 185 159 96 191 195 153 192
162 168 127 167 162 165 169 168 172 164 171 170 164 170 155 173 181 175 181 163 149 172 177 190 185 168 185 180 170 187 196 192 172 199 188 143 214 212 165 196 134 190 191 191 125
173 176 172 178 175 166 173 176 164 161 158 178 181 170 169 152 150 177 164 123 187 174 122 180 189 187 181 177 177 161 190 187 188 181 193 151 169 160 227 189 133 195 194 187 186
166 167 171 180 179 171 140 172 166 172 168 176 153 176 159 166 170 177 173 178 182 167 180 181 189 190 192 182 175 187 200 188 189 180 182 198 183 176 182 205 226 202 201 176 186
174 161 168 169 172 172 168 165 170 172 178 173 181 170 178 172 175 178 180 174 176 172 178 183 173 190 178 177 182 184 195 196 202 207 175 203 185 161 186 198 201 180 210 206 208
183 179 187 174 177 182 177 176 182 179 188 173 172 167 176 171 180 176 174 172 169 177 177 184 168 188 187 185 188 188 191 197 180 204 206 199 188 175 187 192 171 228 220 185 184
175 182 180 184 185 190 178 189 190 189 186 184 181 182 182 184 184 171 177 161 175 167 171 177 156 153 185 193 193 195 205 206 201 208 197 205 180 200 183 204 203 193 176 210 224
180 181 160 176 191 182 186 189 183 182 187 188 151 159 183 192 191 180 180 182 181 183 176 177 182 184 189 192 189 190 205 196 206 207 207 202 171 169 183 203 180 191 205 190 215
175 170 154 158 182 190 174 175 166 186 186 166 185 191 194 146 181 182 186 183 180 171 146 182 183 187 193 196 204 208 218 202 210 205 205 196 193 204 209 202 210 193 207 166 173
181 172 175 161 173 161 166 186 166 187 180 189 184 181 192 192 191 177 166 136 198 185 189 190 196 192 196 207 197 200 197 199 205 210 213 173 189 132 201 206 211 219 210 169 135
192 126 131 180 166 171 170 162 178 169 128 170 153 178 176 163 161 175 169 181 189 195 190 198 195 187 189 199 204 198 206 193 188 192 200 202 174 200 216 211 208 213 213 216 213
96 186 192 173 185 151 198 134 143 152 152 187 184 176 179 193 184 172 173 194 188 194 207 201 205 206 193 219 216 208 204 202 193 185 195 210 201 215 167 157 216 190 229 283 276
183 104 165 185 186 149 183 182 163 178 177 187 187 183 188 191 186 191 175 196 205 186 194 187 188 191 169 188 187 193 194 188 196 214 205 213 225 236 268 268 270 102 307 253 270
181 163 197 198 184 192 183 182 85 142 180 168 173 196 142 187 196 167 178 180 198 187 188 179 192 186 203 189 194 220 199 224 173 238 216 224 231 137 256 266 114 337 159 319 174
186 182 183 177 199 210 207 188 196 192 224 190 199 167 187 190 193 195 187 197 203 183 189 190 187 200 187 206 220 219 220 242 245 187 272 83 73 343 83 166 91 77 140 93 99
203 192 178 192 185 189 172 194 165 188 155 227 204 199 171 171 190 192 184 182 184 188 187 192 204 223 225 211 226 235 246 207 268 262 254 251 326 304 212 184 272 77 101 74 204
184 231 203 207 199 206 197 196 216 213 209 197 194 212 196 190 194 198 182 196 195 186 188 198 215 224 232 232 245 252 240 242 243 262 320 308 305 275 305 292 285 257 296 226 302
202 190 196 193 184 207 194 197 212 195 194 190 199 217 219 196 211 224 204 215 215 199 215 220 229 224 224 243 249 239 254 256 326 317 314 302 281 282 286 280 277 277 137 277 281
217 236 206 183 228 198 220 228 204 207 197 209 213 210 218 212 206 209 220 230 227 227 219 226 232 231 252 264 263 246 330 328 323 325 296 279 278 277 276 275 273 274 274 277 280
242 235 215 240 239 236 221 232 215 194 234 216 212 219 229 232 249 232 246 248 239 233 233 245 253 262 251 259 344 340 337 310 301 284 273 269 268 267 272 274 271 271 276 277 281
260 244 252 255 249 240 239 255 243 252 258 246 248 257 255 250 254 242 266 252 244 240 256 269 265 241 361 334 330 311 290 279 272 265 268 270 265 264 270 275 267 262 264 272 276
234 277 265 246 256 254 233 246 227 233 234 248 233 250 250 238 260 260 254 257 263 255 259 261 339 329 314 308 287 277 276 269 266 264 261 263 268 264 266 264 260 267 285 352 346
308 335 310 299 290 297 275 276 276 270 242 259 248 237 230 240 240 246 239 245 244 250 338 328 315 302 282 276 270 266 260 260 260 262 264 264 266 257 258 280 342 350 334 318 306
322 324 308 305 307 307 303 288 281 272 271 264 251 248 256 248 249 244 260 267 284 321 315 299 282 276 271 265 259 258 257 264 262 262 255 265 277 374 377 332 313 311 306 291 279
329 331 332 317 318 323 311 308 290 283 273 281 277 268 266 251 247 316 321 313 304 303 286 276 269 263 256 258 250 263 259 257 258 260 288 398 362 337 304 295 292 297 281 266 267
340 330 319 317 291 275 261 301 301 284 279 278 290 301 296 291 316 308 304 299 290 281 269 261 258 253 249 262 259 249 251 260 278 375 342 336 318 299 281 277 276 282 270 258 259

GFSSW_2pvu_pres_126.txt.gz
Presure
167 161 155 176 168 150 153 172 178 178 174 165 168 178 163 170 140 136 166 165 169 170 173 170 162 134 179 126 175 171 128 167 193 185 138 123 105 162 185 173 177 145 185 153 190
173 177 156 177 168 180 175 134 142 164 174 164 169 163 169 165 164 162 163 166 157 162 177 175 172 175 179 147 178 178 151 149 159 169 172 173 185 180 179 184 199 160 179 151 157
179 161 123 174 139 174 179 177 173 175 170 168 168 171 167 172 171 172 169 165 162 165 134 178 176 169 166 173 180 103 176 178 184 151 162 182 187 185 190 197 193 187 193 174 208
179 170 174 188 177 173 120 177 171 187 179 167 172 168 170 167 169 164 163 170 175 183 173 178 168 175 174 177 178 169 172 175 177 182 185 193 184 190 187 185 180 189 194 199 209
163 177 176 128 180 179 180 177 180 170 173 177 174 177 174 173 170 171 175 176 161 178 177 169 169 175 178 178 174 169 172 178 181 186 188 191 179 190 155 173 173 211 186 203 209
170 180 162 166 171 167 173 172 150 183 179 187 181 175 173 173 177 184 174 172 174 168 171 172 173 185 178 179 179 177 176 178 181 195 189 170 187 178 186 182 190 178 201 205 192
188 185 189 191 189 190 182 180 186 187 183 177 175 180 179 143 173 174 171 185 171 175 179 175 185 187 183 187 185 185 174 181 186 190 196 193 185 199 196 196 197 165 198 204 202
176 177 172 175 181 178 192 185 176 182 187 170 170 176 173 178 178 179 172 173 175 179 182 190 181 177 184 178 178 192 189 187 189 190 191 192 190 180 192 193 192 194 197 201 202
167 170 173 169 135 172 171 176 176 173 176 134 162 170 181 170 167 178 174 186 183 186 179 184 185 178 181 184 188 188 196 160 194 193 188 182 184 189 189 188 192 200 204 209 211
182 183 181 177 189 166 178 158 165 171 121 158 180 179 175 158 180 181 184 195 191 175 190 181 179 167 191 184 189 194 189 190 184 181 184 184 167 189 186 189 198 206 206 204 196
184 181 182 154 182 181 173 173 169 190 174 181 170 170 175 166 160 186 175 176 171 189 175 187 186 186 197 202 204 181 177 189 192 187 194 196 195 193 184 194 194 205 215 181 189
153 182 182 173 179 175 165 176 179 160 162 182 159 182 192 190 188 193 171 187 184 183 187 178 174 181 185 184 203 174 179 187 195 198 192 198 202 183 186 196 187 186 187 186 193
183 194 199 189 165 170 195 184 174 179 182 174 177 174 180 163 188 174 168 182 181 177 175 189 173 172 175 199 171 190 180 183 190 183 190 181 173 168 176 202 189 188 195 204 202
191 194 187 201 189 190 193 181 195 190 193 184 185 178 189 183 181 187 185 192 172 178 188 158 181 177 185 178 186 180 174 169 199 210 184 171 205 196 192 179 180 194 182 177 199
186 194 195 199 197 159 188 191 197 191 200 197 190 135 97 191 199 182 190 194 169 190 144 157 204 200 200 189 192 211 194 188 206 190 177 170 200 73 198 150 184 209 199 193 192
200 216 195 176 191 190 193 191 205 194 180 195 151 108 156 174 185 186 192 196 190 193 161 185 203 202 195 195 203 214 196 192 197 200 183 121 199 193 113 195 133 104 250 245 271
202 187 174 188 200 209 203 184 186 200 203 204 190 189 193 197 193 198 193 193 188 190 182 205 202 190 197 189 186 190 183 187 193 178 166 192 204 230 103 99 279 272 273 277 286
182 199 196 190 192 202 184 190 212 184 194 199 199 212 113 155 178 199 170 191 201 204 178 176 196 199 178 202 175 181 189 198 207 245 253 239 271 276 255 255 265 267 270 343 355
221 224 196 183 189 191 151 187 166 191 205 189 211 186 189 94 170 186 105 199 184 176 211 186 160 162 159 187 195 174 179 222 219 263 260 265 267 275 250 97 279 360 351 341 318
204 191 214 213 216 227 212 224 206 177 209 178 196 197 220 178 181 189 198 199 187 208 209 188 189 204 184 170 199 218 198 223 269 259 236 261 267 271 274 325 327 315 300 293 285
227 230 219 213 198 222 229 226 226 198 203 216 198 227 211 211 126 220 189 222 218 210 192 192 192 242 240 187 201 256 256 262 244 254 255 275 263 310 320 308 300 291 282 278 274
237 224 232 230 225 234 216 218 198 209 229 231 227 224 209 229 204 200 223 215 208 197 226 226 222 238 244 254 263 256 250 251 263 271 277 274 320 299 287 279 278 278 272 265 272
257 257 248 240 241 245 231 224 227 226 231 228 223 192 230 227 188 230 248 255 246 240 240 237 250 262 260 254 247 250 267 273 292 288 328 309 286 283 276 273 269 269 274 269 266
255 266 262 258 251 253 241 239 243 244 247 243 230 240 240 234 238 238 241 232 258 269 254 256 253 254 271 284 285 287 293 290 310 314 291 277 275 268 265 265 273 268 264 263 264
279 277 277 262 259 265 258 256 255 248 247 231 250 244 248 255 262 202 256 253 248 265 250 257 293 309 301 293 295 292 322 308 297 281 275 270 263 261 269 265 259 276 289 345 345
300 210 318 309 268 278 281 265 276 271 270 248 243 236 242 255 243 245 254 274 284 312 316 301 294 304 302 309 323 308 293 281 271 268 263 257 260 262 256 318 374 355 329 315 298
335 340 337 322 321 318 300 295 287 303 316 299 292 316 309 313 314 315 299 314 311 286 295 299 302 301 327 305 298 276 273 269 259 257 259 252 252 293 372 335 315 296 294 293 292

GFSSW_2pvu_pres_129.txt.gz
Presure
173 178 169 166 155 179 151 152 167 166 161 173 165 172 166 174 171 181 170 166 167 171 173 147 106 171 170 164 166 173 155 180 177 173 174 125 179 179 143 124 157 177 190 141 179
183 178 162 172 156 147 174 179 173 173 172 170 176 157 143 130 180 175 169 170 170 172 175 175 177 175 135 164 124 175 172 170 169 173 148 181 130 180 182 164 141 185 164 189 175
176 177 177 157 176 179 188 164 172 174 176 177 180 181 170 164 177 172 168 162 174 169 169 178 173 164 175 168 171 165 157 172 167 174 175 148 170 174 170 152 189 110 182 190 189
184 170 183 172 184 186 186 174 175 182 176 176 179 168 170 176 169 181 172 173 171 173 179 176 176 179 173 175 174 174 183 174 176 182 179 183 171 109 176 180 183 186 190 186 196
147 174 190 173 175 178 191 179 148 168 182 174 187 178 178 178 172 175 175 179 168 173 170 175 180 169 170 179 174 174 172 176 175 183 186 179 176 174 187 188 182 189 193 181 176
173 170 200 197 180 187 191 196 173 181 174 127 176 181 177 177 176 180 180 179 186 182 181 177 180 180 179 170 178 179 175 180 180 192 190 180 174 174 177 190 199 190 201 197 196
164 187 184 179 182 182 188 184 190 165 173 181 189 171 162 172 171 175 186 177 183 174 177 178 175 176 180 176 178 181 181 185 194 181 184 192 189 187 185 200 204 203 199 192 188
170 198 191 187 161 165 196 171 183 174 155 190 186 185 186 188 184 183 178 187 173 170 162 174 185 186 183 178 180 191 192 184 184 176 178 181 187 189 195 183 199 193 194 191 199
173 181 182 176 180 178 173 167 167 147 158 185 164 176 183 187 185 181 178 173 161 170 173 173 178 170 174 181 188 195 175 188 184 173 175 184 193 184 186 190 197 197 192 188 191
180 185 147 158 178 171 162 179 188 169 164 180 167 169 154 164 169 164 170 177 167 164 174 167 181 153 165 173 180 178 195 179 195 185 182 175 188 183 173 180 186 189 189 189 195
169 190 184 181 174 157 171 151 151 165 152 184 198 172 169 164 169 166 171 170 164 168 168 166 170 175 175 178 177 194 191 181 175 172 185 185 173 208 199 190 182 188 194 207 207
174 193 192 175 191 184 154 159 165 185 195 187 187 189 181 181 177 163 169 169 179 165 174 182 180 150 171 189 166 188 186 182 198 195 193 189 182 173 180 206 209 192 204 209 203
191 192 186 188 195 188 179 184 195 188 178 171 165 169 166 172 116 89 192 189 185 188 183 190 181 186 187 186 175 189 182 177 186 158 188 184 179 200 185 199 197 200 197 194 192
201 178 204 175 197 198 199 191 193 167 172 188 175 172 174 190 189 190 191 189 187 183 174 188 188 180 195 202 184 186 199 174 210 183 196 200 201 210 202 183 187 191 199 204 191
204 178 194 162 168 195 195 193 186 181 197 191 190 184 193 187 193 185 182 190 189 193 194 185 191 184 153 181 163 164 201 183 171 190 210 209 200 160 147 185 184 202 212 208 197
182 200 219 198 197 207 190 198 175 192 176 197 197 108 187 190 190 192 189 192 208 198 193 196 179 201 158 204 205 210 207 194 169 209 171 194 190 123 180 158 86 195 161 221 147
209 197 187 176 198 192 181 202 188 199 199 203 196 182 200 198 190 169 199 188 193 180 185 207 205 200 202 190 202 206 200 209 202 193 188 208 194 121 100 204 189 211 228 279 276
182 214 170 216 191 204 199 180 204 153 195 202 179 201 172 196 192 202 171 183 202 210 209 202 204 198 206 185 208 210 214 210 214 233 186 195 194 207 222 235 265 265 259 277 107
184 218 207 192 202 208 196 190 195 193 163 205 200 188 179 172 173 175 199 187 170 197 177 200 192 169 153 196 195 212 197 195 170 236 207 175 169 212 236 270 257 260 278 171 296
214 214 206 194 196 210 205 211 190 205 190 176 181 185 203 206 190 198 210 197 175 187 167 185 197 191 207 169 174 214 208 177 180 198 208 225 242 271 255 270 288 289 300 337 323
211 224 210 208 220 222 206 199 178 157 204 203 187 200 189 192 208 214 173 215 212 150 204 173 201 213 222 217 231 212 211 225 209 254 261 261 268 257 293 299 299 314 319 306 296
227 227 211 215 218 218 210 208 181 206 193 209 213 198 213 213 217 223 218 218 226 223 191 214 228 229 226 233 239 190 182 221 237 249 255 254 312 290 293 303 325 308 288 285 286
233 224 218 225 228 225 217 218 219 224 220 220 221 215 211 214 222 220 217 225 229 209 173 219 227 248 194 214 240 246 251 254 264 257 265 310 300 300 311 303 293 283 283 276 272
238 229 234 231 235 225 220 221 226 223 222 230 230 232 229 228 230 229 228 230 231 230 232 235 251 245 246 253 250 251 255 257 317 322 305 301 307 293 288 280 276 272 272 274 278
255 259 249 241 238 232 239 234 244 242 232 237 231 237 238 240 246 242 244 243 242 236 241 254 253 249 260 260 269 265 307 305 310 306 326 296 288 278 271 267 264 270 269 267 356
262 267 265 247 260 257 247 252 254 255 249 253 248 241 246 253 240 249 251 238 247 260 246 266 260 316 261 331 325 314 303 324 326 308 295 280 269 266 263 261 266 262 364 343 331
270 299 280 266 278 270 284 244 242 257 258 256 264 258 252 247 263 264 250 253 282 314 303 297 307 311 321 305 311 311 319 309 294 278 272 266 256 259 258 260 351 327 312 303 300

GFSSW_2pvu_pres_135.txt.gz
Presure
154 147 136 161 166 162 182 163 166 186 172 185 191 188 165 171 180 178 178 173 161 171 171 167 175 171 177 176 174 178 180 177 179 182 182 178 176 173 170 166 158 162 176 162 149
145 149 178 182 173 154 185 166 188 176 173 187 182 175 178 186 182 179 178 169 134 170 167 177 178 166 173 161 179 178 184 175 169 179 177 174 171 173 177 178 178 177 175 173 175
182 172 179 174 165 172 166 164 180 181 181 185 187 181 189 191 178 188 181 176 178 181 179 187 177 176 160 168 175 163 190 188 186 182 177 177 170 184 194 183 179 179 177 172 175
185 164 179 193 177 189 184 189 176 172 191 170 187 189 188 169 178 182 179 173 178 178 173 178 188 102 176 182 184 178 184 181 191 175 176 179 182 180 184 177 177 178 186 177 177
151 176 157 192 178 196 156 201 186 167 200 199 203 208 193 183 157 184 176 152 160 180 176 177 176 165 187 167 177 181 182 184 179 178 182 181 191 186 171 180 184 181 178 181 175
168 172 140 129 195 176 190 196 163 158 170 176 206 180 153 195 179 186 186 189 169 187 185 184 173 178 193 180 174 174 189 193 193 197 194 184 185 186 176 176 177 180 171 174 182
189 179 178 189 182 174 152 182 173 169 171 161 181 168 205 192 183 183 198 165 176 187 168 180 182 184 175 176 190 184 192 178 161 180 171 172 177 182 169 178 169 170 189 172 181
189 162 179 176 165 163 173 171 182 173 164 148 185 173 169 196 180 166 164 155 173 159 179 181 183 186 175 172 164 167 181 174 170 166 178 177 178 172 168 179 174 176 171 185 188
186 181 160 147 149 143 166 180 171 171 165 151 178 166 182 163 164 150 165 164 173 181 181 188 181 172 171 182 163 156 166 179 176 180 175 171 151 175 161 171 168 179 184 179 180
161 179 182 180 137 170 155 182 171 182 179 188 180 176 175 169 175 162 165 180 166 174 185 170 179 172 160 167 165 159 164 180 180 182 169 174 171 190 184 176 178 178 195 194 189
187 182 173 173 184 182 184 186 189 157 183 191 185 182 178 188 180 190 171 191 179 176 175 184 169 168 165 167 159 163 169 177 181 179 183 202 201 169 199 194 191 191 191 188 191
172 204 197 188 186 187 183 189 180 182 176 187 173 182 161 175 172 181 189 181 184 179 187 175 168 189 179 174 181 174 178 185 183 180 192 197 192 186 188 187 188 192 194 190 192
203 160 185 190 198 193 192 188 183 174 191 188 186 192 184 182 170 186 185 191 185 183 182 184 194 192 186 185 185 193 188 180 184 189 190 188 197 191 194 193 196 193 198 203 206
163 205 177 180 154 202 179 197 189 177 178 190 189 168 187 193 198 193 195 197 198 195 198 197 195 185 189 190 197 184 190 185 191 194 195 199 202 198 199 192 207 209 209 208 213
161 181 190 162 156 192 190 203 211 178 177 187 180 180 182 174 149 188 190 180 178 188 177 195 196 189 179 186 194 196 202 197 207 202 204 189 210 208 204 195 192 198 199 199 207
173 204 179 158 197 184 166 179 203 202 174 179 191 178 187 177 192 184 195 188 192 188 171 180 200 123 198 196 202 197 200 204 204 204 206 204 191 149 190 201 218 206 195 215 223
175 168 158 185 178 176 177 202 187 196 184 202 174 171 172 172 176 169 200 192 189 176 184 160 169 203 187 192 188 198 195 190 198 197 211 205 182 162 186 200 208 219 225 224 232
194 206 168 168 208 189 178 171 172 186 163 187 186 197 181 189 177 171 187 186 180 189 169 182 199 187 196 196 196 190 192 208 191 179 186 178 183 186 189 191 221 231 226 236 254
209 214 205 180 211 169 210 182 189 177 189 209 187 158 157 161 180 185 193 180 191 171 181 180 204 192 205 192 190 209 196 210 197 202 210 214 215 215 203 232 229 239 256 268 107
209 211 200 213 211 209 184 193 192 188 198 179 177 185 182 167 181 167 195 191 154 181 201 181 194 202 200 195 196 185 193 187 192 191 198 210 225 216 188 248 245 257 270 273 258
233 233 222 207 223 217 218 212 207 186 211 213 196 200 201 200 203 188 193 193 181 175 197 194 187 198 204 199 195 186 204 215 193 202 209 227 229 214 244 265 263 271 270 279 305
235 230 227 217 216 222 230 222 212 197 205 208 208 207 204 200 195 193 171 200 176 205 206 200 206 205 187 196 206 199 195 196 218 212 220 230 239 88 255 178 276 281 304 313 335
249 248 235 230 219 223 222 226 219 209 215 211 214 207 61 187 202 203 210 209 207 189 200 204 203 200 195 193 195 211 218 223 222 225 225 231 244 241 272 258 297 309 338 334 321
256 256 250 247 241 229 225 224 226 227 222 213 214 211 211 215 208 205 206 199 200 209 217 219 202 215 218 217 216 218 219 220 224 223 226 242 251 249 274 311 340 334 327 305 284
298 297 274 257 262 255 232 228 219 223 223 220 222 216 216 207 210 213 211 213 215 216 211 216 102 214 219 217 218 227 227 226 224 234 251 258 295 317 330 330 322 316 291 279 271
334 325 320 303 290 275 262 241 233 223 223 220 224 221 104 219 220 214 215 211 215 216 218 219 213 208 215 218 226 231 220 233 247 248 272 310 314 320 319 322 304 282 270 268 266
370 341 249 340 308 323 306 286 256 236 234 231 230 229 222 222 223 218 221 222 224 219 223 220 219 223 229 228 235 233 236 242 304 307 316 323 323 314 305 292 279 269 260 259 258

GFSSW_2pvu_pres_138.txt.gz
Presure
141 152 159 181 188 156 179 180 169 165 160 158 163 172 181 162 189 188 184 186 178 175 181 175 183 177 172 161 184 178 182 172 178 169 164 176 172 178 188 184 182 173 175 175 192
169 136 159 170 191 169 143 156 148 177 178 157 186 136 171 186 184 182 182 177 185 179 185 180 178 179 179 180 170 180 177 180 189 182 173 183 181 186 177 187 174 177 179 184 181
171 189 172 148 174 169 151 180 186 176 157 165 183 187 180 166 195 160 181 179 185 183 182 185 184 190 178 178 178 179 181 173 175 184 196 171 179 172 199 172 171 180 189 185 175
167 160 136 165 150 185 180 142 180 173 163 185 185 181 162 179 184 189 208 184 185 186 172 165 183 186 182 184 171 171 183 178 177 183 197 187 191 195 192 194 193 192 182 184 184
158 181 188 168 190 167 167 161 173 180 178 174 185 183 185 178 172 162 184 175 209 163 203 191 194 164 190 184 189 180 193 183 197 185 179 178 184 197 179 171 179 179 180 177 178
165 142 194 167 171 180 176 170 154 174 173 174 176 190 198 168 194 183 175 168 184 175 171 196 184 188 164 181 172 177 182 179 181 188 175 163 176 177 179 169 168 174 174 175 166
138 133 138 144 193 183 152 150 171 166 184 168 178 154 160 148 184 177 173 154 154 180 161 194 182 192 178 168 160 185 184 183 186 182 186 183 137 168 169 178 173 180 175 171 171
151 164 151 135 175 174 170 157 172 185 174 178 184 141 180 185 167 174 173 166 163 170 176 153 189 181 177 174 169 174 181 181 181 166 180 171 158 168 161 169 180 185 176 164 165
183 180 174 159 179 177 180 162 157 151 164 168 163 176 172 177 147 178 178 177 162 149 184 165 156 169 164 171 177 171 182 184 178 181 156 171 171 157 157 180 185 178 181 184 194
163 180 171 183 155 179 155 173 154 181 151 178 188 188 142 172 161 176 174 163 194 190 187 181 177 168 174 166 175 184 183 177 186 178 179 175 177 173 185 180 192 182 199 194 192
169 163 187 170 134 188 191 158 179 186 180 160 186 189 180 195 188 178 188 164 183 188 186 195 173 181 180 191 175 176 180 185 186 177 169 193 192 190 192 196 188 190 198 195 187
170 186 167 189 177 188 193 159 189 180 175 176 187 182 179 157 187 163 194 173 189 187 174 181 170 178 174 190 185 190 185 185 179 184 193 193 193 196 187 189 182 192 198 196 199
174 197 186 171 200 178 198 181 172 189 181 160 150 200 187 194 186 184 192 179 186 191 188 183 188 193 187 199 200 201 195 201 195 197 198 200 195 193 198 200 194 195 200 200 197
164 159 173 177 179 170 176 175 170 177 185 188 166 163 183 195 185 191 185 180 170 188 191 192 176 180 169 182 194 192 196 187 192 192 204 198 190 194 195 193 196 200 201 204 206
163 187 196 168 178 171 197 173 172 158 184 195 188 188 185 201 183 192 191 182 160 160 183 171 164 174 192 197 199 196 196 188 181 176 180 201 191 186 192 197 194 184 192 98 209
171 194 189 193 188 173 208 167 175 191 205 176 156 147 197 192 190 161 189 188 181 170 179 181 184 170 181 193 196 192 186 185 183 170 198 204 189 192 193 146 207 199 217 192 189
205 218 194 178 199 180 197 195 161 159 180 186 187 180 173 200 171 174 180 167 183 167 167 187 184 166 177 180 180 193 198 195 183 181 182 204 197 200 195 192 201 204 211 199 194
206 175 221 179 189 168 163 182 204 159 193 177 172 157 194 158 181 154 163 171 173 194 180 186 175 178 171 162 194 188 189 174 194 195 190 184 213 205 182 188 195 201 197 227 199
198 169 211 177 198 193 188 209 183 195 170 160 198 181 186 189 195 183 188 182 182 185 179 194 180 175 184 179 182 183 181 173 182 185 183 182 210 198 189 200 203 194 208 209 225
211 200 186 202 172 207 175 213 190 157 202 196 162 198 200 159 193 187 183 193 177 177 182 195 183 183 170 166 183 177 176 194 184 180 186 217 209 187 191 200 211 217 229 235 239
218 216 203 200 205 200 198 196 194 200 204 203 197 201 176 197 165 179 167 192 189 176 177 172 176 194 195 196 204 201 192 184 188 184 196 206 198 200 205 226 228 232 233 241 255
219 221 213 205 207 211 208 207 199 195 202 210 204 194 172 197 201 202 199 178 182 195 192 201 199 189 182 192 197 198 183 183 214 205 185 201 213 92 95 227 229 223 234 248 263
243 242 224 216 210 214 206 209 204 210 215 208 204 212 189 196 208 212 210 217 206 206 202 200 199 201 211 199 204 188 195 197 211 208 214 219 228 80 140 231 231 238 247 259 311
260 254 252 260 243 230 224 223 217 216 222 213 213 211 213 208 214 209 207 208 208 217 204 207 214 205 203 204 203 206 210 211 209 213 218 221 220 220 233 232 243 248 263 325 341
262 269 281 281 278 257 262 248 248 227 210 217 225 217 218 217 211 217 214 216 214 215 219 209 208 212 213 213 215 211 207 212 214 215 219 225 228 227 238 246 246 259 339 338 321
316 300 269 256 299 294 270 312 261 259 241 229 222 220 228 232 224 219 221 220 91 214 217 217 216 219 221 225 219 221 219 217 218 225 229 235 235 240 242 242 302 329 326 312 288
303 327 285 323 319 296 311 301 289 299 299 251 247 229 224 229 234 230 225 220 219 226 226 224 218 224 222 219 223 122 221 226 231 236 233 243 246 256 253 324 329 325 309 286 276

GFSSW_2pvu_pres_141.txt.gz
Presure
115 140 140 135 158 153 110 157 152 135 169 135 175 174 142 172 168 171 167 166 149 186 181 176 189 182 175 181 184 180 183 172 172 175 183 176 175 172 172 172 188 195 173 172 195
148 154 152 152 156 166 183 161 149 135 167 161 155 157 160 167 161 165 182 165 163 182 168 196 174 170 183 186 187 187 185 167 176 186 188 183 173 171 177 192 189 175 163 183 194
171 173 157 135 137 141 163 170 134 180 195 185 181 141 147 131 175 144 170 174 177 161 172 188 185 184 206 180 196 202 197 192 178 189 190 177 184 181 194 190 176 173 181 196 182
150 125 178 144 173 158 170 171 163 158 161 145 179 185 172 158 181 166 152 154 170 160 187 180 155 177 181 193 185 191 205 197 164 180 179 170 168 182 172 169 187 187 175 183 183
178 153 162 180 160 159 162 172 164 148 147 165 171 174 185 179 182 146 183 174 169 176 184 203 191 179 185 180 178 166 204 181 185 191 174 168 183 187 183 185 183 174 178 173 177
154 164 176 165 174 181 182 177 185 180 182 185 193 177 184 165 167 180 182 185 171 193 199 166 188 177 178 168 167 182 177 188 188 178 182 169 169 180 185 181 186 176 182 158 168
138 171 161 145 185 163 131 183 194 157 152 141 152 182 163 162 162 171 157 181 149 179 189 190 152 161 162 171 160 169 180 177 183 184 169 168 176 170 174 186 178 183 169 156 169
172 126 153 172 194 158 135 189 142 202 176 153 185 154 161 175 177 187 189 162 187 165 168 163 160 175 177 178 159 169 147 172 174 178 175 181 171 183 186 178 182 177 172 172 172
192 167 149 182 191 169 132 184 187 195 158 187 167 176 177 174 186 185 175 158 160 179 174 165 182 179 162 181 183 192 190 184 174 174 169 181 181 175 175 179 183 185 176 193 185
194 191 195 186 151 192 185 165 183 132 152 161 165 156 180 176 171 168 183 189 170 175 187 189 181 161 186 173 180 176 194 186 197 169 178 174 187 187 192 184 195 175 203 197 198
183 161 143 169 185 172 192 148 169 170 181 159 142 171 150 144 167 179 164 198 191 137 187 180 160 195 186 173 190 193 193 177 184 184 188 183 190 195 193 193 191 190 199 191 190
178 182 184 185 156 185 175 178 174 182 168 179 167 145 185 174 165 148 164 183 178 184 193 183 177 195 189 188 187 185 194 198 188 188 190 179 192 182 184 187 186 189 187 193 201
168 173 171 169 196 175 176 161 180 176 176 147 153 181 172 187 184 176 177 174 175 179 165 185 196 184 184 189 184 178 187 185 182 196 170 196 196 200 202 194 192 177 175 183 201
194 185 171 164 190 162 176 162 170 197 173 165 176 158 181 171 189 181 186 192 193 161 179 179 185 191 185 193 179 178 170 186 183 185 176 182 172 178 197 182 189 181 187 190 199
146 159 189 178 196 166 181 172 178 180 174 156 182 167 193 171 175 161 149 177 179 186 184 184 193 178 181 167 194 191 180 176 176 165 181 169 186 187 184 179 198 192 183 185 176
190 175 170 179 158 177 179 178 176 190 173 178 163 171 185 174 162 163 161 165 161 163 151 167 188 173 185 168 190 183 180 184 175 178 187 176 179 180 185 150 185 172 207 197 195
178 191 184 189 172 189 171 169 192 174 179 174 179 158 177 173 173 161 176 184 168 159 177 167 174 167 176 169 169 191 191 191 189 184 189 181 164 173 176 177 180 180 201 197 183
190 193 191 191 174 193 190 163 173 178 163 170 182 188 156 203 173 186 149 180 169 182 190 177 191 184 186 172 178 186 185 178 176 195 193 192 198 165 161 179 169 192 205 202 192
210 206 200 189 192 192 178 194 184 184 199 179 165 193 207 154 142 164 198 196 186 182 169 172 193 188 201 180 178 179 161 175 180 188 191 188 180 176 185 129 194 209 203 197 211
206 210 208 204 194 181 214 217 208 165 211 188 180 201 210 208 168 178 162 179 199 178 188 192 179 175 179 166 168 171 184 184 182 175 176 182 178 178 192 188 206 213 200 208 215
206 209 203 204 202 204 194 178 210 203 194 207 202 169 184 210 190 171 198 183 187 189 187 195 166 194 189 174 187 192 179 170 187 193 185 187 191 193 192 210 207 204 212 219 219
238 235 223 207 210 215 206 213 206 205 208 171 203 160 199 163 203 171 194 174 193 191 164 175 195 178 181 196 190 171 178 184 190 179 190 194 201 107 178 98 103 100 221 215 223
255 238 237 230 216 226 220 214 204 207 186 207 212 186 184 199 201 204 183 193 189 188 185 193 204 192 200 184 198 195 201 206 207 214 204 217 191 111 177 214 76 218 217 227 225
272 270 260 251 237 236 226 221 215 209 206 207 206 209 204 204 203 193 198 200 201 200 197 195 194 200 201 202 199 197 194 212 214 209 206 217 224 203 215 225 97 228 229 233 239
309 300 276 277 276 255 245 219 217 219 214 205 212 208 199 198 199 200 205 201 200 202 199 202 199 204 206 201 209 216 215 211 213 207 217 215 217 86 219 224 221 236 248 255 261
321 304 295 297 280 270 276 265 251 230 231 221 216 213 209 209 208 206 209 208 216 209 209 209 217 210 217 212 213 208 215 157 213 222 223 219 221 223 229 235 246 238 261 260 267
319 311 324 316 287 280 271 272 263 263 266 247 245 237 224 218 211 210 209 219 210 209 214 213 218 230 220 225 221 222 229 226 227 227 224 223 223 241 245 252 255 250 268 262 357

GFSSW_2pvu_pres_144.txt.gz
Presure
159 145 158 149 135 156 155 84 154 158 147 159 151 133 136 116 103 175 137 170 142 133 160 177 169 172 145 147 167 185 184 192 195 197 188 189 189 189 187 177 196 189 185 158 200
149 145 145 159 78 126 155 139 122 145 155 157 162 156 155 193 161 157 144 181 161 150 177 174 159 153 172 171 169 175 187 173 178 196 180 195 206 206 205 181 189 191 181 185 175
162 112 131 140 168 145 157 141 155 148 148 165 165 175 184 170 179 174 149 150 117 167 171 162 174 173 183 176 188 180 175 195 193 173 184 182 209 194 193 193 181 178 176 193 189
155 135 159 133 149 159 147 163 170 178 172 171 150 177 151 167 153 149 143 171 171 160 152 125 164 171 173 182 171 194 201 202 187 179 177 193 177 197 188 176 182 171 171 174 181
146 162 161 175 141 158 153 181 170 170 163 162 173 168 171 157 184 170 164 167 164 169 185 171 173 184 187 179 185 195 191 201 180 187 173 162 178 169 173 187 165 160 175 175 170
150 134 162 170 183 170 159 163 155 157 172 137 164 162 142 171 163 175 169 167 167 186 181 187 166 162 177 197 196 191 190 167 176 177 181 172 171 177 174 173 170 176 179 175 178
157 162 172 152 171 142 162 134 155 167 184 174 184 134 165 161 161 171 143 178 168 169 179 172 182 181 178 180 183 182 178 173 180 179 181 168 187 192 185 184 184 171 178 183 171
168 181 186 172 181 187 144 153 162 165 143 145 165 151 145 176 175 190 168 181 179 175 179 172 170 177 153 178 165 154 185 177 153 183 193 169 169 194 193 189 188 171 184 175 192
181 155 169 184 165 171 126 162 172 187 164 175 168 174 182 168 172 177 150 176 163 181 173 182 174 167 180 179 187 180 176 186 199 189 198 167 172 185 192 180 179 174 197 195 202
189 137 184 126 172 184 165 179 165 158 124 175 135 174 173 178 170 185 188 167 169 168 184 166 182 177 137 182 197 187 185 185 178 184 187 190 186 191 198 197 188 197 179 187 199
201 141 177 181 193 174 108 182 170 157 184 186 176 161 176 180 177 158 180 186 191 170 132 179 170 156 193 176 189 159 178 210 200 201 175 181 185 179 185 180 187 184 205 189 181
167 151 192 186 138 137 185 165 156 181 175 139 183 191 178 150 190 184 173 159 169 179 158 171 154 164 183 180 190 185 159 184 185 194 183 189 183 178 172 182 175 186 180 180 185
208 190 195 185 188 192 189 190 162 173 182 181 174 160 175 181 171 182 164 157 165 170 162 178 171 185 184 181 193 164 193 195 194 184 183 169 187 185 184 188 177 168 179 174 179
191 201 177 197 191 176 184 193 152 145 153 163 178 173 179 172 175 173 178 158 169 153 183 173 179 168 187 159 159 163 163 152 169 186 177 186 183 188 181 187 185 186 186 192 190
161 190 188 184 163 171 173 163 181 182 175 178 176 141 154 187 173 170 183 171 182 185 181 181 183 167 178 167 166 162 177 179 183 170 166 150 185 159 176 190 191 184 185 181 182
192 186 191 196 173 178 184 182 176 160 182 159 173 154 176 173 172 167 161 178 168 184 174 181 188 178 166 160 173 170 149 168 177 173 155 176 179 182 145 127 181 179 187 187 184
181 182 194 197 180 192 176 187 189 183 174 187 166 170 166 169 159 175 178 165 159 167 178 167 167 189 150 177 167 185 168 167 184 177 191 178 166 176 181 173 177 181 188 185 174
183 180 179 180 197 180 179 162 179 181 183 179 182 190 178 188 174 167 180 170 168 176 167 176 174 169 185 176 188 179 170 180 165 176 196 173 182 192 174 177 167 176 183 188 196
204 202 193 204 179 195 185 166 182 174 181 167 182 177 183 176 192 181 161 155 179 175 160 162 187 175 182 150 168 156 167 192 194 188 166 180 176 173 185 177 93 178 177 189 193
210 211 199 209 201 202 202 204 183 177 176 167 179 175 181 171 190 195 184 189 165 170 204 174 156 212 187 181 187 186 174 168 182 181 169 169 185 179 190 184 183 184 181 190 208
240 234 212 201 208 202 206 207 197 190 192 196 197 194 177 190 191 183 186 99 181 172 174 205 178 167 216 174 179 167 180 188 193 177 186 172 192 179 187 188 191 205 208 207 144
257 246 240 222 219 211 201 205 197 186 206 190 198 186 202 205 201 179 190 188 196 207 170 190 180 176 199 216 198 186 169 179 174 174 191 190 198 90 91 93 90 203 201 224 213
274 265 261 247 239 239 218 221 203 195 195 198 189 189 185 185 192 187 192 186 195 191 206 202 174 201 207 191 184 201 190 183 193 193 193 198 192 184 188 161 208 214 152 198 222
278 280 275 270 268 254 254 238 225 211 202 214 193 202 197 194 195 197 195 197 191 202 197 201 186 176 197 159 202 202 195 195 196 200 198 198 198 129 189 210 206 151 210 220 226
280 294 290 276 278 267 264 249 237 230 228 214 222 214 200 198 197 198 199 200 208 204 200 196 199 206 203 202 201 199 206 205 205 198 198 196 213 204 198 201 209 216 222 220 232
352 345 274 311 294 281 278 267 281 251 245 242 228 213 211 216 209 210 213 209 210 212 209 210 207 209 204 199 210 205 198 204 206 202 201 206 223 212 219 213 236 225 236 235 235
330 331 324 324 331 292 283 289 282 266 274 260 245 240 230 216 213 213 209 208 207 202 206 206 209 212 211 207 212 117 211 214 206 205 206 206 209 213 221 223 225 232 241 239 257